[[{"header":{"parameterUnit":"m.s-1","parameterCategory":1,"la1":30.6,"la2":28.766,"lo1":-90.7593,"lo2":-88.6598,"dy":0.0162,"dx":0.0183,"nx":116,"ny":114,"refTime":"2024-06-23T00:00:00:Z","depth":0,"parameterNumber":2,"parameterNumberName":"U-component_of_WINDS"},"data":[0.0,0.0,0.0,0.0,0.0,0.0,0.0,0.0,0.0,0.0,0.0,0.0,0.0,0.0,0.0,0.0,0.0,0.0,0.0,0.0,0.0,0.0,0.0,0.0,0.0,0.0,0.0,0.0,0.0,0.0,0.0,0.0,0.0,0.0,0.0,0.0,0.0,0.0,0.0,0.0,0.0,0.0,0.0,0.0,0.0,0.0,0.0,0.0,0.0,0.0,0.0,0.0,0.0,0.0,0.0,0.0,0.0,0.0,0.0,0.0,0.0,0.0,0.0,0.0,0.0,0.0,0.0,0.0,0.0,0.0,0.0,0.0,0.0,0.0,0.0,0.0,0.0,0.0,0.0,0.0,0.0,0.0,0.0,0.0,0.0,0.0,0.0,0.0,0.0,0.0,0.0,0.0,0.0,0.0,0.0,0.0,0.0,0.0,0.0,0.0,0.0,0.0,0.0,0.0,0.0,0.0,0.0,0.0,0.0,0.0,0.0,0.0,0.0,0.0,0.0,0.0,0.0,0.0,0.0,0.0,0.0,0.0,0.0,0.0,0.0,0.0,0.0,0.0,0.0,0.0,0.0,0.0,0.0,0.0,0.0,0.0,0.0,0.0,0.0,0.0,0.0,0.0,0.0,0.0,0.0,0.0,0.0,0.0,0.0,0.0,0.0,0.0,0.0,0.0,0.0,0.0,0.0,0.0,0.0,0.0,0.0,0.0,0.0,0.0,0.0,0.0,0.0,0.0,0.0,0.0,0.0,0.0,0.0,0.0,0.0,0.0,0.0,0.0,0.0,0.0,0.0,0.0,0.0,0.0,0.0,0.0,0.0,0.0,0.0,0.0,0.0,0.0,0.0,0.0,0.0,0.0,0.0,0.0,0.0,0.0,0.0,0.0,0.0,0.0,0.0,0.0,0.0,0.0,0.0,0.0,0.0,0.0,0.0,0.0,0.0,0.0,0.0,0.0,0.0,0.0,0.0,0.0,0.0,0.0,0.0,0.0,0.0,0.0,0.0,0.0,0.0,0.0,0.0,0.0,0.0,0.0,0.0,0.0,0.0,0.0,0.0,0.0,0.0,0.0,0.0,0.0,0.0,0.0,0.0,0.0,0.0,0.0,0.0,0.0,0.0,0.0,0.0,0.0,0.0,0.0,0.0,0.0,0.0,0.0,0.0,0.0,0.0,0.0,0.0,0.0,0.0,0.0,0.0,0.0,0.0,0.0,0.0,0.0,0.0,0.0,0.0,0.0,0.0,0.0,0.0,0.0,0.0,0.0,0.0,0.0,0.0,0.0,0.0,0.0,0.0,0.0,0.0,0.0,0.0,0.0,0.0,0.0,0.0,0.0,0.0,0.0,0.0,0.0,0.0,0.0,0.0,0.0,0.0,0.0,0.0,0.0,0.0,0.0,0.0,0.0,0.0,0.0,0.0,0.0,0.0,0.0,0.0,0.0,0.0,0.0,0.0,0.0,0.0,0.0,0.0,0.0,0.0,0.0,0.0,0.0,0.0,0.0,0.0,0.0,0.0,0.0,0.0,0.0,0.0,0.0,0.0,0.0,0.0,0.0,0.0,0.0,0.0,0.0,0.0,0.0,0.0,0.0,0.0,0.0,0.0,0.0,0.0,0.0,0.0,0.0,0.0,0.0,0.0,0.0,0.0,0.0,0.0,0.0,0.0,0.0,0.0,0.0,0.0,0.0,0.0,0.0,0.0,0.0,0.0,0.0,0.0,0.0,0.0,0.0,0.0,0.0,0.0,0.0,0.0,0.0,0.0,0.0,0.0,0.0,0.0,0.0,0.0,0.0,0.0,0.0,0.0,0.0,0.0,0.0,0.0,0.0,0.0,0.0,0.0,0.0,0.0,0.0,0.0,0.0,0.0,0.0,0.0,0.0,0.0,0.0,0.0,0.0,0.0,0.0,0.0,0.0,0.0,0.0,0.0,0.0,0.0,0.0,0.0,0.0,0.0,0.0,0.0,0.0,0.0,0.0,0.0,0.0,0.0,0.0,0.0,0.0,0.0,0.0,0.0,0.0,0.0,0.0,0.0,0.0,0.0,0.0,0.0,0.0,0.0,0.0,0.0,0.0,0.0,0.0,0.0,0.0,0.0,0.0,0.0,0.0,0.0,0.0,0.0,0.0,0.0,0.0,0.0,0.0,0.0,0.0,0.0,0.0,0.0,0.0,0.0,0.0,0.0,0.0,0.0,0.0,0.0,0.0,0.0,0.0,0.0,0.0,0.0,0.0,0.0,0.0,0.0,0.0,0.0,0.0,0.0,0.0,0.0,0.0,0.0,0.0,0.0,0.0,0.0,0.0,0.0,0.0,0.0,0.0,0.0,0.0,0.0,0.0,0.0,0.0,0.0,0.0,0.0,0.0,0.0,0.0,0.0,0.0,0.0,0.0,0.0,0.0,0.0,0.0,0.0,0.0,0.0,0.0,0.0,0.0,0.0,0.0,0.0,0.0,0.0,0.0,0.0,0.0,0.0,0.0,0.0,0.0,0.0,0.0,0.0,0.0,0.0,0.0,0.0,0.0,0.0,0.0,0.0,0.0,0.0,0.0,0.0,0.0,0.0,0.0,0.0,0.0,0.0,0.0,0.0,0.0,0.0,0.0,0.0,0.0,0.0,0.0,0.0,0.0,0.0,0.0,0.0,0.0,0.0,0.0,0.0,0.0,0.0,0.0,0.0,0.0,0.0,0.0,0.0,0.0,0.0,0.0,0.0,0.0,0.0,0.0,0.0,0.0,0.0,0.0,0.0,0.0,0.0,0.0,0.0,0.0,0.0,0.0,0.0,0.0,0.0,0.0,0.0,0.0,0.0,0.0,0.0,0.0,0.0,0.0,0.0,0.0,0.0,0.0,0.0,0.0,0.0,0.0,0.0,0.0,0.0,0.0,0.0,0.0,0.0,0.0,0.0,0.0,0.0,0.0,0.0,0.0,0.0,0.0,0.0,0.0,0.0,0.0,0.0,0.0,0.0,0.0,0.0,0.0,0.0,0.0,0.0,0.0,0.0,0.0,0.0,0.0,0.0,0.0,0.0,0.0,0.0,0.0,0.0,0.0,0.0,0.0,0.0,0.0,0.0,0.0,0.0,0.0,0.0,0.0,0.0,0.0,0.0,0.0,0.0,0.0,0.0,0.0,0.0,0.0,0.0,0.0,0.0,0.0,0.0,0.0,0.0,0.0,0.0,0.0,0.0,0.0,0.0,0.0,0.0,0.0,0.0,0.0,0.0,0.0,0.0,0.0,0.0,0.0,0.0,0.0,0.0,0.0,0.0,0.0,0.0,0.0,0.0,0.0,0.0,0.0,0.0,0.0,0.0,0.0,0.0,0.0,0.0,0.0,0.0,0.0,0.0,0.0,0.0,0.0,0.0,0.0,0.0,0.0,0.0,0.0,0.0,0.0,0.0,0.0,0.0,0.0,0.0,0.0,0.0,0.0,0.0,0.0,0.0,0.0,0.0,0.0,0.0,0.0,0.0,0.0,0.0,0.0,0.0,0.0,0.0,0.0,0.0,0.0,0.0,0.0,0.0,0.0,0.0,0.0,0.0,0.0,0.0,0.0,0.0,0.0,0.0,0.0,0.0,0.0,0.0,0.0,0.0,0.0,0.0,0.0,0.0,0.0,0.0,0.0,0.0,0.0,0.0,0.0,0.0,0.0,0.0,0.0,0.0,0.0,0.0,0.0,0.0,0.0,0.0,0.0,0.0,0.0,0.0,0.0,0.0,0.0,0.0,0.0,0.0,0.0,0.0,0.0,0.0,0.0,0.0,0.0,0.0,0.0,0.0,0.0,0.0,0.0,0.0,0.0,0.0,0.0,0.0,0.0,0.0,0.0,0.0,0.0,0.0,0.0,0.0,0.0,0.0,0.0,0.0,0.0,0.0,0.0,0.0,0.0,0.0,0.0,0.0,0.0,0.0,0.0,0.0,0.0,0.0,0.0,0.0,0.0,0.0,0.0,0.0,0.0,0.0,0.0,0.0,0.0,0.0,0.0,0.0,0.0,0.0,0.0,0.0,0.0,0.0,0.0,0.0,0.0,0.0,0.0,0.0,0.0,0.0,0.0,0.0,0.0,0.0,0.0,0.0,0.0,0.0,0.0,0.0,0.0,0.0,0.0,0.0,0.0,0.0,0.0,0.0,0.0,0.0,0.0,0.0,0.0,0.0,0.0,0.0,0.0,0.0,0.0,0.0,0.0,0.0,0.0,0.0,0.0,0.0,0.0,0.0,0.0,0.0,0.0,0.0,0.0,0.0,0.0,0.0,0.0,0.0,0.0,0.0,0.0,0.0,0.0,0.0,0.0,0.0,0.0,0.0,0.0,0.0,0.0,0.0,0.0,0.0,0.0,0.0,0.0,0.0,0.0,0.0,0.0,0.0,0.0,0.0,0.0,0.0,0.0,0.0,0.0,0.0,0.0,0.0,0.0,0.0,0.0,0.0,0.0,0.0,0.0,0.0,0.0,0.0,0.0,0.0,0.0,0.0,0.0,0.0,0.0,0.0,0.0,0.0,0.0,0.0,0.0,0.0,0.0,0.0,0.0,0.0,0.0,0.0,0.0,0.0,0.0,0.0,0.0,0.0,0.0,0.0,0.0,0.0,0.0,0.0,0.0,0.0,0.0,0.0,0.0,0.0,0.0,0.0,0.0,0.0,0.0,0.0,0.0,0.0,0.0,0.0,0.0,0.0,0.0,0.0,0.0,0.0,0.0,0.0,0.0,0.0,0.0,0.0,0.0,0.0,0.0,0.0,0.0,0.0,0.0,0.0,0.0,0.0,0.0,0.0,0.0,0.0,0.0,0.0,0.0,0.0,0.0,0.0,0.0,0.0,0.0,0.0,0.0,0.0,0.0,0.0,0.0,0.0,0.0,0.0,0.0,0.0,0.0,0.0,0.0,0.0,0.0,0.0,0.0,0.0,0.0,0.0,0.0,0.0,0.0,0.0,0.0,0.0,0.0,0.0,0.0,0.0,0.0,0.0,0.0,0.0,0.0,0.0,0.0,0.0,0.0,0.0,0.0,0.0,0.0,0.0,0.0,0.0,0.0,0.0,0.0,0.0,0.0,0.0,0.0,0.0,0.0,0.0,0.0,0.0,0.0,0.0,0.0,0.0,0.0,0.0,0.0,0.0,0.0,0.0,0.0,0.0,0.0,0.0,0.0,0.0,0.0,0.0,0.0,0.0,0.0,0.0,0.0,0.0,0.0,0.0,0.0,0.0,0.0,0.0,0.0,0.0,0.0,0.0,0.0,0.0,0.0,0.0,0.0,0.0,0.0,0.0,0.0,0.0,0.0,0.0,0.0,0.0,0.0,0.0,0.0,0.0,0.0,0.0,0.0,0.0,0.0,0.0,0.0,0.0,0.0,0.0,0.0,0.0,0.0,0.0,0.0,0.0,0.0,0.0,0.0,0.0,0.0,0.0,0.0,0.0,0.0,0.0,0.0,0.0,0.0,0.0,0.0,0.0,0.0,0.0,0.0,0.0,0.0,0.0,0.0,0.0,0.0,0.0,0.0,0.0,0.0,0.0,0.0,0.0,0.0,0.0,0.0,0.0,0.0,0.0,0.0,0.0,0.0,0.0,0.0,0.0,0.0,0.0,0.0,0.0,0.0,0.0,0.0,0.0,0.0,0.0,0.0,0.0,0.0,0.0,0.0,0.0,0.0,0.0,0.0,0.0,0.0,0.0,0.0,0.0,0.0,0.0,0.0,0.0,0.0,0.0,0.0,0.0,0.0,0.0,0.0,0.0,0.0,0.0,0.0,0.0,0.0,0.0,0.0,0.0,0.0,0.0,0.0,0.0,0.0,0.0,0.0,0.0,0.0,0.0,0.0,0.0,0.0,0.0,0.0,0.0,0.0,0.0,0.0,0.0,0.0,0.0,0.0,0.0,0.0,0.0,0.0,0.0,0.0,0.0,0.0,0.0,0.0,0.0,0.0,0.0,0.0,0.0,0.0,0.0,0.0,0.0,0.0,0.0,0.0,0.0,0.0,0.0,0.0,0.0,0.0,0.0,0.0,0.0,0.0,0.0,0.0,0.0,0.0,0.0,0.0,0.0,0.0,0.0,0.0,0.0,0.0,0.0,0.0,-1.3147,0.0,0.0,0.0,0.0,0.0,0.0,0.0,0.0,0.0,0.0,0.0,0.0,0.0,0.0,0.0,0.0,0.0,0.0,0.0,0.0,0.0,0.0,0.0,0.0,-0.7042,-0.7091,-0.7397,-0.7676,-0.7839,-0.7839,0.0,0.0,0.0,0.0,0.0,-0.8045,-0.7777,-0.7977,-0.867,-0.8706,-0.9249,-1.0223,-0.9934,-0.9391,-0.867,0.0,0.0,0.0,0.0,0.0,0.0,0.0,0.0,0.0,0.0,0.0,0.0,0.0,0.0,0.0,0.0,0.0,0.0,0.0,0.0,0.0,0.0,0.0,0.0,0.0,0.0,0.0,0.0,0.0,0.0,0.0,0.0,0.0,0.0,0.0,0.0,0.0,0.0,0.0,0.0,0.0,0.0,0.0,0.0,0.0,0.0,0.0,0.0,0.0,0.0,0.0,0.0,0.0,0.0,0.0,0.0,0.0,0.0,0.0,0.0,0.0,0.0,0.0,0.0,0.0,0.0,0.0,0.0,0.0,0.0,0.0,-1.4504,0.0,0.0,0.0,0.0,0.0,0.0,0.0,0.0,0.0,0.0,0.0,0.0,0.0,0.0,0.0,0.0,0.0,0.0,0.0,0.0,0.0,-0.7258,-0.7533,-0.7641,-0.7939,-0.8537,-0.8664,-0.8676,-0.8587,-0.8664,0.0,0.0,0.0,-0.8428,-0.8292,-0.8281,-0.8766,-0.9786,-1.0147,-1.1063,-1.2445,-1.2993,-1.2289,-1.0576,-1.0219,0.0,0.0,0.0,0.0,0.0,0.0,0.0,0.0,0.0,0.0,0.0,0.0,0.0,0.0,0.0,0.0,0.0,0.0,0.0,0.0,0.0,0.0,0.0,0.0,0.0,0.0,0.0,0.0,0.0,0.0,0.0,0.0,0.0,0.0,0.0,0.0,0.0,0.0,0.0,0.0,0.0,0.0,0.0,0.0,0.0,0.0,0.0,0.0,0.0,0.0,0.0,0.0,0.0,0.0,0.0,0.0,0.0,0.0,0.0,0.0,0.0,0.0,0.0,-1.9856,-2.0303,-2.0609,-2.0609,-2.0904,-2.1288,-1.9297,-1.7933,-1.7043,-1.612,0.0,0.0,0.0,0.0,0.0,0.0,0.0,0.0,0.0,0.0,0.0,0.0,0.0,0.0,0.0,0.0,0.0,0.0,0.0,-0.7565,-0.8112,-0.86,-0.9101,-0.9642,-1.0118,-1.0193,-0.9717,-1.0131,0.0,0.0,-0.9616,-0.9553,-0.9476,-0.9411,-0.9879,-1.0894,-1.274,-1.3992,-1.4605,-1.5133,-1.525,-1.4881,-1.3083,-1.1981,-1.1399,0.0,0.0,0.0,0.0,0.0,0.0,0.0,0.0,0.0,0.0,0.0,0.0,0.0,0.0,0.0,0.0,0.0,0.0,0.0,0.0,0.0,0.0,0.0,0.0,0.0,0.0,0.0,0.0,0.0,0.0,0.0,0.0,0.0,0.0,0.0,0.0,0.0,0.0,0.0,0.0,0.0,-1.2355,-1.2431,0.0,0.0,0.0,0.0,0.0,0.0,0.0,0.0,0.0,0.0,0.0,0.0,0.0,-1.8687,-1.9627,-2.1023,-2.157,-2.1221,-2.2531,-2.2931,-2.263,-2.263,-2.2892,-2.3291,-2.2975,0.0,-1.9562,-1.8622,0.0,0.0,0.0,0.0,0.0,0.0,0.0,0.0,0.0,0.0,0.0,0.0,0.0,0.0,0.0,0.0,0.0,0.0,0.0,0.0,0.0,-0.9679,-1.0344,-1.1236,-1.1798,-1.1748,-1.091,0.0,0.0,-0.9878,-0.9776,-0.9845,-1.0096,-1.0316,-1.1379,-1.3286,-1.4838,-1.586,-1.6355,-1.6595,-1.6703,-1.6655,-1.5752,-1.457,-1.3179,-1.2268,0.0,0.0,0.0,0.0,0.0,0.0,0.0,0.0,0.0,0.0,0.0,0.0,0.0,0.0,0.0,0.0,0.0,0.0,0.0,0.0,0.0,0.0,0.0,0.0,0.0,0.0,0.0,0.0,0.0,0.0,0.0,0.0,0.0,0.0,0.0,0.0,0.0,0.0,0.0,-1.1903,-1.3395,-1.3135,-1.3784,-1.3707,0.0,0.0,0.0,0.0,0.0,0.0,0.0,0.0,0.0,-1.9965,-2.0478,-2.1188,-2.2113,-2.3078,-2.3558,-2.3651,-2.4235,-2.4574,-2.4628,-2.4628,-2.4749,-2.4956,-2.4956,-2.4203,-2.2859,-2.1341,-1.9834,-1.8461,0.0,0.0,0.0,0.0,-1.773,-1.7715,0.0,0.0,0.0,0.0,0.0,0.0,0.0,0.0,0.0,0.0,0.0,0.0,-1.0157,-1.0933,-1.1798,-1.2944,-1.3403,0.0,0.0,0.0,-1.1332,-1.0315,-1.0033,-1.0124,-1.0617,-1.1588,-1.3125,-1.5205,-1.6427,-1.7207,-1.7616,-1.776,-1.782,-1.7796,-1.7659,-1.6563,-1.4808,-1.3832,-1.2434,0.0,0.0,0.0,0.0,0.0,0.0,0.0,0.0,0.0,0.0,0.0,0.0,0.0,0.0,0.0,0.0,0.0,0.0,0.0,0.0,0.0,0.0,0.0,0.0,0.0,0.0,0.0,0.0,0.0,0.0,0.0,0.0,0.0,0.0,0.0,0.0,0.0,0.0,-1.3032,-1.4387,-1.3723,-1.5028,-1.5194,0.0,0.0,0.0,0.0,0.0,0.0,-1.9375,-2.0009,-2.0948,-2.2291,-2.2794,-2.3449,-2.424,-2.4661,-2.5022,-2.5401,-2.5401,-2.5546,-2.5895,-2.5895,-2.5895,-2.5895,-2.5895,-2.5699,-2.527,-2.3558,-2.2048,-2.0794,-2.0314,-1.9867,-1.9539,-2.0358,-2.0434,-2.038,0.0,0.0,0.0,0.0,0.0,0.0,0.0,0.0,0.0,0.0,0.0,-0.9667,-1.1339,0.0,-1.3529,-1.467,0.0,0.0,0.0,0.0,-1.2115,-1.1525,-1.0842,-1.0716,-1.1241,-1.3577,-1.5121,-1.5756,-1.7327,-1.8133,-1.8169,-1.8674,-1.8915,-1.8888,-1.832,-1.7438,-1.6299,-1.4857,-1.3718,-1.2651,0.0,0.0,0.0,0.0,0.0,0.0,0.0,0.0,0.0,0.0,0.0,0.0,0.0,0.0,0.0,0.0,0.0,0.0,0.0,0.0,0.0,0.0,0.0,0.0,0.0,0.0,0.0,0.0,0.0,0.0,0.0,0.0,0.0,0.0,0.0,0.0,0.0,0.0,0.0,-1.4522,-1.6691,0.0,0.0,0.0,0.0,-1.7634,-1.9083,-2.0391,-2.1396,-2.2324,-2.3285,-2.4312,-2.4792,-2.5273,-2.5786,-2.5819,-2.5841,-2.5863,-2.5863,-2.5874,-2.5895,-2.5895,-2.5895,-2.5895,-2.5895,-2.5884,-2.5786,-2.4792,-2.3777,-2.2815,-2.2357,-2.1876,-2.1505,-2.2018,-2.2157,-2.2212,0.0,0.0,0.0,-0.7605,-0.7605,-0.7507,-0.7251,-0.7471,-0.7774,-0.8042,-0.9276,-1.0646,0.0,-1.3421,-1.4607,0.0,0.0,0.0,0.0,0.0,-1.3129,-1.2597,-1.1861,-1.2154,-1.3657,-1.4898,-1.6272,-1.7869,-1.8434,-1.9071,-1.9756,-1.9949,-2.0033,-2.0005,-1.932,-1.86,-1.7806,-1.5968,-1.4634,-1.3611,-1.1907,-1.0725,0.0,0.0,0.0,0.0,0.0,0.0,0.0,0.0,0.0,0.0,0.0,0.0,0.0,0.0,0.0,0.0,0.0,0.0,0.0,0.0,0.0,0.0,0.0,0.0,0.0,0.0,0.0,0.0,0.0,0.0,0.0,0.0,0.0,0.0,0.0,0.0,0.0,-1.7219,-1.8347,0.0,-1.7348,-1.8245,-1.9022,-1.9314,-2.0441,-2.1755,-2.3151,-2.3551,-2.4382,-2.5799,-2.6026,-2.6332,-2.6802,-2.6813,-2.6813,-2.6813,-2.6813,-2.6813,-2.6813,-2.6813,-2.6813,-2.6813,-2.6813,-2.6813,-2.6758,-2.6125,-2.5284,-2.4388,-2.4224,-2.3864,-2.3514,-2.3984,-2.4159,-2.4224,-0.7605,-0.7605,0.0,-0.7605,-0.756,-0.7453,-0.7235,-0.76,-0.8082,-0.8606,-1.0019,-1.1512,0.0,0.0,0.0,0.0,0.0,0.0,0.0,0.0,-1.4063,-1.3648,-1.3264,-1.3826,-1.5492,-1.6427,-1.7651,-1.9263,-1.9459,-1.9889,-2.0581,-2.0581,-2.0581,-2.0553,-1.9643,-1.9037,-1.8591,-1.6784,-1.5482,-1.4502,-1.3313,-1.233,-1.1445,0.0,0.0,0.0,0.0,0.0,0.0,0.0,0.0,0.0,0.0,0.0,0.0,0.0,0.0,0.0,0.0,0.0,0.0,0.0,0.0,0.0,0.0,0.0,0.0,0.0,0.0,0.0,0.0,0.0,0.0,0.0,0.0,0.0,0.0,0.0,-1.8052,-1.8523,-1.9502,-1.9785,-1.8844,-1.9841,-2.0609,-2.086,-2.2098,-2.3278,-2.4134,-2.444,-2.5008,-2.6027,-2.6322,-2.6604,-2.695,-2.7183,-2.7315,-2.7315,-2.7315,-2.7315,-2.7315,-2.7315,-2.7315,-2.7315,-2.7315,-2.7315,-2.7293,-2.6944,-2.6474,-2.5863,-2.5546,-2.5229,-2.5,-2.5306,-2.5456,-2.5459,-0.7605,-0.7605,-0.7605,-0.7597,-0.7484,-0.7392,-0.7384,-0.7569,-0.8128,-0.9252,-1.0707,-1.2269,0.0,0.0,0.0,0.0,0.0,0.0,0.0,-1.5505,-1.4876,-1.4745,-1.5012,-1.5651,-1.6655,-1.8217,-1.9314,-1.9856,-2.0374,-2.0622,-2.0658,-2.0658,-2.0658,-2.0613,-1.9332,-1.8761,-1.867,-1.7324,-1.6269,-1.54,-1.4494,-1.3682,-1.2866,0.0,0.0,0.0,0.0,0.0,0.0,0.0,0.0,0.0,0.0,0.0,0.0,0.0,0.0,0.0,0.0,0.0,0.0,0.0,0.0,0.0,0.0,0.0,0.0,0.0,0.0,0.0,0.0,0.0,0.0,0.0,0.0,0.0,-1.5225,-1.7759,-1.9273,-1.836,-2.0174,-2.0958,-1.9537,-2.1265,-2.2393,-2.2235,-2.4002,-2.4914,-2.4454,-2.5114,-2.5365,-2.5093,-2.584,-2.6256,-2.6277,-2.6993,-2.7359,-2.7359,-2.7359,-2.7359,-2.7359,-2.7359,-2.7359,-2.7359,-2.7359,-2.7359,-2.7359,-2.7337,-2.7337,-2.7239,-2.631,-2.5928,-2.5928,-2.5886,-2.5875,-2.5812,-0.7605,-0.7605,-0.756,-0.7469,-0.7422,-0.7321,-0.7075,-0.7748,-0.8497,-0.9105,-1.1265,0.0,0.0,0.0,0.0,0.0,0.0,-1.65,-1.65,-1.5807,-1.5512,-1.5775,-1.652,-1.7424,-1.8465,0.0,0.0,0.0,-2.1103,-2.138,-2.1765,-2.1765,-2.1765,-2.1734,-2.0826,-2.0178,-1.965,-1.8736,-1.778,-1.6738,-1.5537,-1.4736,-1.417,0.0,0.0,0.0,0.0,0.0,0.0,0.0,0.0,0.0,0.0,0.0,0.0,0.0,0.0,0.0,0.0,0.0,0.0,0.0,0.0,0.0,0.0,0.0,0.0,0.0,0.0,0.0,0.0,0.0,0.0,0.0,0.0,-1.7426,-1.7865,-1.9033,-2.0282,-2.1574,-2.1679,-2.1711,-2.1821,-2.2136,-2.2316,-2.2294,-2.3081,-2.3929,-2.4836,-2.5118,-2.583,-2.7128,-2.7377,-2.7685,-2.8077,-2.8318,-2.8399,-2.8399,-2.8399,-2.8399,-2.8399,-2.8399,-2.8399,-2.8399,-2.8399,-2.8399,-2.8377,-2.7981,-2.7794,-2.774,-2.7162,-2.6725,-2.6345,-2.5862,-2.5144,-2.437,-0.7605,-0.7605,-0.7568,-0.7492,-0.7438,-0.7306,-0.7026,-0.7851,-0.8722,-0.9352,-1.1635,0.0,0.0,0.0,0.0,0.0,0.0,-1.64,-1.6183,-1.6032,-1.6203,-1.6839,0.0,-1.8745,0.0,0.0,0.0,0.0,0.0,0.0,-2.2197,-2.2197,-2.2306,-2.2491,-2.1745,-2.1333,-2.113,-2.0417,-1.9456,-1.8305,-1.7372,-1.6437,-1.5508,-1.4639,-1.3838,-1.313,-1.2592,-1.2217,-1.1875,-1.1105,0.0,0.0,0.0,0.0,0.0,0.0,0.0,0.0,0.0,0.0,0.0,0.0,0.0,0.0,0.0,0.0,0.0,0.0,0.0,0.0,0.0,0.0,0.0,0.0,-1.7743,-1.9106,-1.9775,-2.0175,-2.0912,-2.2332,-2.2026,-2.193,-2.2544,-2.2689,-2.2722,-2.2575,-2.3308,-2.3981,-2.4415,-2.503,-2.5843,-2.6864,-2.749,-2.7989,-2.8315,-2.8606,-2.8803,-2.8803,-2.8803,-2.8803,-2.8803,-2.8803,-2.8803,0.0,-2.8803,-2.8803,-2.8781,-2.8451,-2.8342,0.0,0.0,0.0,0.0,0.0,-2.4897,-2.4289,-0.7605,-0.7605,-0.7605,-0.7575,-0.7476,-0.7329,-0.7107,-0.7889,-0.8838,-0.978,0.0,0.0,0.0,0.0,0.0,0.0,0.0,-1.6249,0.0,0.0,0.0,-1.797,-1.885,0.0,0.0,0.0,0.0,0.0,0.0,0.0,-2.2197,-2.2258,-2.2534,-2.2979,-2.2388,-2.2314,-2.2661,-2.208,-2.1103,-1.9954,-1.9481,-1.8273,-1.6687,-1.5849,-1.5498,-1.5264,-1.4131,-1.3691,-1.3467,-1.2279,0.0,0.0,0.0,0.0,0.0,0.0,0.0,0.0,0.0,0.0,0.0,0.0,0.0,0.0,0.0,0.0,0.0,0.0,0.0,0.0,0.0,0.0,0.0,0.0,-1.9262,-2.0287,-2.1071,-2.1181,-2.1319,-2.165,-2.1733,-2.1897,-2.2245,-2.295,-2.3314,-2.2988,-2.415,-2.4577,-2.3729,0.0,0.0,0.0,0.0,-2.7746,-2.7746,-2.8571,-2.8967,-2.8967,-2.8967,-2.8967,-2.8967,-2.8967,-2.8967,-2.8967,-2.8967,-2.8935,-2.888,-2.888,-2.8858,-2.8716,-2.7752,-2.6947,-2.6208,-2.5422,-2.5083,-2.4987,-0.7605,-0.7605,-0.756,-0.7453,-0.7415,-0.7298,-0.6985,-0.7822,-0.8838,-0.978,-1.1462,0.0,0.0,0.0,0.0,0.0,0.0,0.0,0.0,0.0,-1.7833,-1.918,0.0,0.0,0.0,0.0,0.0,0.0,0.0,0.0,0.0,-2.263,-2.2883,-2.3003,-2.3281,-2.3176,-2.2695,-2.2559,-2.2059,-2.1248,-2.0112,-1.8697,-1.7197,-1.6648,-1.6005,-1.5381,-1.5137,-1.4824,-1.4443,-1.3838,-1.3931,-1.4123,-1.2803,0.0,0.0,0.0,0.0,0.0,0.0,0.0,0.0,0.0,0.0,0.0,0.0,0.0,0.0,0.0,0.0,0.0,0.0,0.0,0.0,-1.9317,-2.031,-2.1053,-2.1504,-2.1568,-2.1604,-2.1678,-2.197,-2.219,-2.2272,-2.3008,-2.3441,-2.337,-2.3964,-2.4519,-2.4926,-2.5516,0.0,-2.6714,-2.7973,-2.8642,-2.8642,-2.9516,-2.9925,-2.9925,0.0,0.0,-2.9925,-2.9925,-2.9925,-2.9925,-2.9925,-2.9707,-2.9347,-2.9347,-2.9153,-2.8749,-2.8123,-2.7441,-2.6785,-2.6271,-2.5729,-2.524,-0.7605,-0.7605,-0.7575,-0.7507,-0.7499,-0.7384,-0.705,-0.8048,-0.9007,-0.9439,-1.1302,0.0,0.0,0.0,0.0,0.0,0.0,0.0,0.0,0.0,0.0,0.0,0.0,0.0,0.0,0.0,0.0,0.0,0.0,0.0,0.0,0.0,-2.3541,-2.3761,-2.4025,-2.3857,-2.3444,-2.3839,-2.3236,-2.1974,-2.1455,-2.0404,-1.8992,-1.7588,-1.6787,-1.6338,-1.5898,-1.5635,-1.5351,-1.4678,-1.4644,-1.474,-1.3814,-1.3129,-1.2511,0.0,0.0,0.0,0.0,0.0,0.0,0.0,0.0,0.0,0.0,0.0,0.0,0.0,0.0,-1.6486,-1.7092,0.0,-1.9317,-2.0356,-2.1025,-2.1449,-2.1659,-2.1696,-2.1769,-2.1961,-2.2163,-2.2437,-2.2849,-2.3251,-2.3581,-2.3831,-2.4235,-2.4664,-2.5045,-2.5784,-2.6357,-2.6811,-2.7763,-2.8466,-2.8914,-2.9331,-2.9796,-3.0209,-3.0209,-3.0209,-3.0209,-3.0209,-3.0209,-3.0209,-3.0209,-3.0078,-2.9849,-2.9849,-2.9565,-2.9095,-2.8412,-2.7791,-2.7222,-2.662,-2.6176,-2.5819,-0.7605,-0.7605,-0.7605,-0.7605,-0.7605,-0.7499,-0.7203,-0.8186,-0.9009,-0.9141,-1.0969,-1.2404,-1.2843,-1.3325,-1.3871,0.0,0.0,0.0,0.0,0.0,0.0,0.0,0.0,0.0,0.0,0.0,0.0,0.0,0.0,0.0,0.0,0.0,-2.4037,-2.4496,-2.4592,-2.4542,-2.4384,-2.5004,-2.4366,-2.2851,-2.2765,-2.2117,-2.0984,-1.8604,-1.7622,-1.7352,-1.6507,-1.6065,-1.5752,-1.5146,-1.4938,-1.4883,-1.4402,-1.3867,-1.3298,-1.2553,-1.1846,0.0,0.0,0.0,0.0,0.0,0.0,0.0,0.0,0.0,-1.5936,-1.6413,-1.7348,-1.8284,-1.8944,-1.9619,-2.0351,-2.1108,-2.1476,-2.1696,-2.1696,-2.1696,-2.1833,-2.2227,-2.2355,-2.2693,-2.3425,-2.3563,-2.3831,-2.4293,-2.4643,-2.4812,-2.4895,-2.5862,-2.6492,-2.6647,-2.7485,-2.834,-2.9187,-2.9337,-2.9807,-3.0482,-3.0482,-3.0482,-3.0482,-3.0482,-3.0482,-3.0482,-3.0384,-3.0341,-3.0341,-3.0253,-2.998,-2.9561,-2.8818,-2.8301,-2.7868,-2.687,-2.6504,-2.6358,-0.7605,-0.7605,-0.7605,-0.7605,-0.7605,-0.7545,-0.7392,-0.7802,-0.8435,-0.9252,-0.9868,-1.0625,-1.1666,-1.1842,-1.2294,-1.3303,0.0,0.0,0.0,0.0,0.0,0.0,0.0,0.0,0.0,0.0,0.0,0.0,0.0,0.0,0.0,0.0,-2.4037,-2.4508,-2.5011,-2.5181,-2.5158,-2.5276,-2.5158,-2.4838,-2.3293,-2.2638,-2.223,-1.9772,-1.8388,-1.7657,-1.691,-1.5908,-1.4999,-1.5244,-1.5447,-1.5502,-1.4921,-1.5024,-1.5051,-1.3318,0.0,-1.267,-1.2607,-1.3178,-1.4184,-1.5829,-1.576,-1.6071,0.0,0.0,-1.8522,-1.9262,-1.9802,-2.0209,-2.0301,-2.0677,-2.1126,-2.1549,-2.1659,-2.1696,-2.1696,-2.1696,-2.1833,-2.2227,-2.2611,-2.3014,-2.3453,-2.3868,-2.4312,-2.4684,-2.4757,-2.4941,-2.5289,-2.5779,-2.6362,-2.7089,-2.8331,-2.937,-3.0234,-3.0944,-3.1364,-3.1415,-3.1415,-3.1415,-3.1415,-3.1415,-3.1415,-3.1444,-3.1007,-3.0821,-3.0788,-3.0384,-3.0177,-3.0089,-2.9546,-2.935,-2.905,-2.7174,-2.6504,-2.6494,-0.7605,-0.7605,-0.7605,-0.7605,-0.7605,-0.7552,-0.7415,-0.7843,-0.8396,-0.9026,-0.9713,-1.0431,-1.1226,-1.1477,-1.1776,-1.2241,-1.3589,0.0,-1.6654,0.0,0.0,0.0,0.0,0.0,0.0,0.0,0.0,0.0,0.0,0.0,0.0,0.0,0.0,-2.4508,-2.5071,-2.504,-2.4636,-2.5087,-2.4873,-2.4143,-2.3565,-2.2915,-2.201,-1.9998,-1.849,-1.7284,-1.6605,-1.583,0.0,0.0,-1.4706,-1.472,-1.4459,-1.4416,-1.4266,-1.3474,-1.3603,0.0,-1.5253,-1.5937,0.0,0.0,-1.8238,-1.8924,-1.9981,-2.0071,-2.0088,-2.0493,-2.09,-2.1183,-2.1183,-2.1321,-2.1559,0.0,-2.2034,-2.2034,-2.2034,-2.2034,-2.2089,-2.2254,-2.2437,-2.2794,-2.3435,-2.3914,-2.4376,-2.4748,-2.4996,-2.5298,-2.5745,-2.6105,-2.6487,-2.6854,-2.7844,-2.8774,-2.9628,-3.0474,-3.1167,-3.1618,-3.1618,-3.1618,-3.1618,-3.1618,-3.1618,-3.1607,-3.14,-3.1323,-3.1302,-3.1116,-3.0865,-3.0542,-2.993,-2.9325,-2.8732,-2.8063,-2.7846,-2.7694,-0.7612,-0.7605,-0.7605,-0.7605,-0.7605,-0.756,-0.7469,-0.7937,-0.8433,-0.8832,-0.9572,-1.026,-1.0715,-1.0986,-1.1263,-1.1578,-1.2973,-1.4488,0.0,-1.7506,0.0,0.0,0.0,0.0,0.0,0.0,0.0,0.0,0.0,0.0,0.0,0.0,0.0,-2.4326,-2.4711,-2.4553,-2.4073,-2.4623,-2.434,-2.3502,-2.3549,-2.2927,-2.1797,-2.0084,-1.8567,-1.7254,-1.6257,-1.5449,0.0,0.0,-1.3938,-1.3938,-1.3938,-1.3802,-1.3695,-1.3965,-1.4648,-1.5596,-1.6855,0.0,0.0,-1.9004,-2.0139,-2.0974,-2.0631,-2.0897,-2.1243,-2.1358,-2.1574,-2.1696,-2.1696,-2.1696,-2.1824,-2.2217,-2.2282,-2.2282,-2.2282,-2.2282,-2.2282,-2.2126,-2.2217,-2.2556,-2.327,-2.3749,-2.4253,-2.4895,-2.5267,-2.5644,-2.6159,-2.6624,-2.7053,-2.726,-2.8101,-2.8943,-2.9775,-3.0422,-3.1002,-3.1618,-3.1618,-3.1618,-3.1618,-3.1618,-3.1618,-3.1618,-3.1618,-3.1618,-3.1618,-3.1618,-3.1422,-3.1033,-3.0389,-2.9668,-2.9046,-2.8983,-2.8632,-2.8034,-0.762,-0.7605,-0.7605,-0.7605,-0.7605,-0.7605,-0.7605,-0.7995,-0.8429,-0.8759,-0.9223,-0.9628,-0.9906,-0.9956,-1.0409,-1.1487,-1.2601,-1.3942,-1.5618,-1.6566,0.0,0.0,0.0,0.0,0.0,0.0,0.0,0.0,0.0,0.0,0.0,0.0,0.0,-2.383,-2.3842,-2.3821,-2.3809,-2.3854,-2.3809,-2.3737,-2.322,-2.269,-2.1997,-2.0195,-1.8897,-1.7831,-1.6046,0.0,0.0,0.0,-1.3525,-1.3525,-1.3525,-1.3773,0.0,-1.5079,-1.5946,0.0,0.0,0.0,-1.889,-2.0233,-2.1021,-2.1588,-2.2034,-2.211,-2.2069,-2.2078,-2.1865,-2.1696,-2.1696,-2.1696,-2.1824,-2.2217,-2.2282,-2.2282,-2.2282,-2.2282,-2.2181,-2.1751,-2.2044,-2.2446,0.0,-2.3279,-2.406,-2.5313,-2.5362,-2.5773,-2.6527,-2.7359,-2.8145,-2.8976,-2.9848,-3.0703,-3.1516,-3.1567,-3.1578,-3.1618,-3.1618,-3.1618,-3.1618,-3.1618,-3.1618,-3.1618,-3.1618,-3.1618,-3.1618,-3.1618,-3.1567,-3.1553,-3.1022,-3.0826,-3.0684,-2.9805,-2.8238,-2.6552,-0.762,-0.7605,-0.7605,-0.7605,-0.7605,-0.7605,-0.7605,-0.7995,-0.8555,-0.9242,-0.9895,0.0,0.0,0.0,0.0,0.0,-1.2266,-1.3493,-1.5425,-1.6182,0.0,0.0,0.0,0.0,0.0,0.0,0.0,0.0,0.0,0.0,0.0,0.0,0.0,0.0,-2.3649,-2.3806,-2.3806,-2.3893,-2.3688,-2.3228,-2.2781,-2.1928,-2.0803,-1.9563,-1.8221,-1.6779,0.0,0.0,0.0,0.0,-1.3347,-1.3096,-1.3096,0.0,0.0,-1.5371,-1.6269,-1.7009,0.0,0.0,-2.0498,-2.126,-2.2006,-2.2582,-2.2597,-2.2566,-2.241,-2.182,-2.1721,-2.1603,-2.1022,-2.124,-2.1597,-2.1869,-2.2346,-2.2693,-2.2693,-2.2922,-2.2831,-2.2163,-2.2446,0.0,0.0,0.0,0.0,-2.528,-2.5424,-2.5729,-2.6545,-2.6845,-2.7161,-2.7422,-2.8784,-2.9681,-2.9932,-3.1043,-3.1618,-3.1618,-3.1618,-3.1618,-3.1618,-3.1618,-3.1618,-3.1618,-3.1618,-3.1618,-3.1618,-3.1618,-3.1618,-3.1556,-3.1444,-3.1181,-3.0854,-3.0537,-2.9613,-2.8365,-0.762,-0.7605,-0.7605,-0.7605,-0.7605,0.0,0.0,0.0,0.0,0.0,0.0,0.0,0.0,0.0,0.0,0.0,0.0,-1.3043,-1.4592,-1.5347,0.0,0.0,0.0,0.0,0.0,0.0,0.0,0.0,0.0,0.0,0.0,0.0,0.0,0.0,-2.2527,-2.2756,-2.2819,-2.2901,-2.2676,-2.2262,-2.1806,-2.0966,-1.9866,-1.8877,-1.7688,0.0,0.0,0.0,0.0,0.0,0.0,0.0,0.0,0.0,0.0,-1.6367,-1.7189,-1.8115,-2.0285,-2.1026,-2.1366,-2.2148,-2.2744,-2.3057,-2.2925,-2.2722,-2.2371,-2.1546,-2.1306,-2.0997,-2.0205,-2.0384,-2.0832,-2.1401,-2.2034,-2.2574,-2.2867,-2.3242,-2.3242,-2.2584,-2.2867,-2.3178,0.0,0.0,0.0,-2.535,-2.5552,-2.5876,-2.6554,-2.6845,-2.7053,-2.7053,-2.8688,-2.9576,-2.9576,-3.094,-3.1618,-3.1618,-3.1618,-3.1618,-3.1618,-3.1618,-3.1618,-3.1618,-3.1618,-3.1618,-3.1618,-3.1618,-3.1618,-3.1618,-3.1618,-3.1433,-3.1138,-3.0963,-3.0515,-2.9844,-0.7635,-0.7605,-0.7605,0.0,0.0,0.0,0.0,0.0,0.0,0.0,0.0,0.0,0.0,0.0,0.0,0.0,0.0,0.0,-1.316,0.0,0.0,0.0,0.0,-1.665,-1.8049,-1.8133,-1.841,0.0,0.0,0.0,0.0,0.0,0.0,0.0,0.0,-2.0787,-2.0888,-2.0916,-2.0916,-2.0851,-2.0327,-1.9812,-1.9235,-1.8216,0.0,0.0,0.0,0.0,0.0,0.0,0.0,0.0,0.0,0.0,0.0,-1.8142,-1.8785,-1.9851,-2.2033,-2.1959,-2.158,-2.2799,-2.3091,-2.3091,-2.3062,-2.2611,-2.1972,-2.1265,-2.0592,-1.9928,0.0,0.0,-1.9709,-2.0805,-2.1438,-2.2025,-2.2794,-2.3279,-2.3407,0.0,0.0,0.0,0.0,0.0,0.0,-2.5424,0.0,-2.6195,-2.6564,-2.7359,-2.777,-2.777,-2.9481,-3.0391,-3.0391,-3.1219,-3.1618,-3.1618,-3.1618,-3.1618,-3.1618,-3.1618,-3.1618,-3.1618,-3.1618,-3.1618,-3.1618,-3.1618,-3.1618,-3.1618,-3.1618,-3.1618,-3.1575,-3.1105,-3.0919,-3.0766,0.0,0.0,0.0,0.0,0.0,0.0,0.0,0.0,0.0,0.0,0.0,0.0,0.0,0.0,0.0,0.0,0.0,0.0,0.0,0.0,0.0,0.0,0.0,0.0,-1.6541,-1.7243,0.0,0.0,0.0,0.0,0.0,0.0,0.0,0.0,0.0,-1.9477,-1.9531,-1.9719,-1.9758,-1.9641,0.0,-1.9017,-1.8719,0.0,0.0,0.0,0.0,0.0,0.0,0.0,0.0,0.0,0.0,0.0,-1.8638,0.0,0.0,-2.0681,-2.2528,-2.2856,-2.2682,-2.3013,-2.3091,-2.3013,-2.2701,-2.2311,-2.1615,-2.0292,-1.965,-1.8964,-1.7626,0.0,0.0,-1.9478,-2.1373,0.0,-2.2876,-2.3822,0.0,0.0,0.0,-2.4831,-2.4638,-2.5304,0.0,0.0,-2.5957,-2.6195,-2.6564,-2.7359,-2.777,-2.777,-2.9481,-3.0391,-3.0391,-3.1219,-3.1618,-3.1618,-3.1618,-3.1618,-3.1618,-3.1618,-3.1618,-3.1618,-3.1618,-3.1618,-3.1618,-3.1618,-3.1618,-3.1618,-3.1618,-3.1618,-3.1607,-3.1487,-3.1203,-3.0865,0.0,0.0,0.0,0.0,0.0,0.0,0.0,0.0,0.0,0.0,0.0,0.0,0.0,0.0,0.0,0.0,0.0,0.0,0.0,0.0,0.0,0.0,0.0,0.0,0.0,0.0,0.0,0.0,0.0,0.0,0.0,0.0,0.0,0.0,0.0,0.0,-1.8326,0.0,0.0,0.0,0.0,0.0,0.0,0.0,0.0,0.0,0.0,0.0,0.0,0.0,0.0,-1.86,-1.9104,-1.9935,-2.1029,-2.2512,0.0,-2.272,-2.4449,-2.4347,-2.3691,-2.3691,-2.3541,-2.3105,-2.2196,-2.1799,-2.1017,-1.8986,-1.8223,0.0,-1.6154,0.0,0.0,0.0,0.0,0.0,-2.2831,-2.4005,-2.4744,0.0,-2.5185,0.0,-2.5378,-2.6219,-2.6795,0.0,-2.6795,-2.6899,-2.7088,-2.7941,-2.8349,-2.8349,-2.9691,-3.0547,-3.0899,-3.1362,-3.1618,-3.1618,-3.1618,-3.1618,-3.1618,-3.1618,-3.1618,-3.1618,0.0,-3.1618,-3.1618,-3.1618,-3.1618,-3.1618,-3.1618,-3.1618,-3.1618,-3.1618,-3.1455,-3.1181,0.0,0.0,0.0,0.0,0.0,0.0,0.0,0.0,0.0,0.0,0.0,0.0,0.0,0.0,0.0,0.0,0.0,0.0,0.0,0.0,0.0,0.0,0.0,0.0,0.0,0.0,0.0,0.0,0.0,0.0,0.0,0.0,0.0,0.0,0.0,0.0,0.0,0.0,0.0,0.0,0.0,0.0,0.0,0.0,0.0,0.0,0.0,0.0,0.0,0.0,-2.0065,-2.0428,-2.098,-2.2343,-2.401,-2.518,-2.5088,-2.4973,-2.6585,-2.5883,-2.4616,-2.437,-2.3979,-2.3207,-2.1482,-2.0943,-2.0039,-1.7498,0.0,-1.593,-1.4897,-1.5676,-1.6853,-1.7998,0.0,-2.1528,-2.2767,-2.4055,-2.4896,-2.5002,-2.5764,-2.6308,-2.6308,-2.7302,-2.7985,-2.7985,-2.8092,-2.8092,-2.7985,-2.8774,-2.9303,-2.945,-3.0172,-3.0899,-3.1567,-3.1618,-3.1618,-3.1618,-3.1618,-3.1618,-3.1618,-3.1618,-3.1618,-3.1618,-3.1618,0.0,-3.1618,-3.1618,-3.1618,-3.1618,-3.1618,-3.1618,-3.1618,-3.1618,-3.1618,-3.1615,0.0,0.0,0.0,0.0,0.0,0.0,0.0,-1.1002,-1.2199,-1.2545,-1.168,-1.0908,0.0,0.0,0.0,0.0,0.0,0.0,0.0,0.0,0.0,0.0,0.0,0.0,0.0,0.0,0.0,0.0,0.0,0.0,0.0,0.0,0.0,0.0,0.0,0.0,0.0,0.0,0.0,0.0,0.0,0.0,0.0,0.0,0.0,0.0,0.0,0.0,0.0,0.0,-2.1349,-2.3269,-2.4183,-2.4857,-2.5573,-2.6892,-2.6221,-2.5201,-2.5884,-2.583,-2.52,-2.3724,-2.3291,-2.2734,-2.0619,-1.9334,0.0,0.0,0.0,-1.47,-1.3905,-1.5244,0.0,-1.7364,0.0,0.0,0.0,0.0,-2.5335,0.0,0.0,0.0,0.0,0.0,0.0,0.0,0.0,-2.9638,-2.8933,-2.9681,-3.0484,-3.1146,-3.1311,-3.1465,-3.1618,-3.1618,-3.1618,-3.1618,-3.1618,-3.1618,-3.1618,-3.1618,-3.1618,-3.1618,-3.1618,0.0,-3.1618,-3.1618,-3.1618,-3.1618,-3.1618,-3.1618,-3.1618,-3.1618,-3.1618,-3.1669,0.0,0.0,0.0,0.0,0.0,0.0,0.0,-1.1914,-1.3227,-1.4084,-1.3654,-1.2878,-1.18,-1.1162,-1.0638,0.0,0.0,0.0,0.0,0.0,0.0,0.0,0.0,0.0,0.0,0.0,0.0,0.0,0.0,0.0,0.0,0.0,0.0,0.0,0.0,0.0,0.0,0.0,0.0,0.0,0.0,0.0,0.0,0.0,0.0,0.0,0.0,0.0,0.0,0.0,-2.0619,-2.2859,-2.4723,-2.579,-2.6514,-2.7445,-2.7121,-2.661,-2.7076,-2.6876,-2.6329,-2.5453,-2.4345,-2.2853,-2.0548,0.0,0.0,0.0,0.0,-1.3976,-1.3606,0.0,0.0,0.0,0.0,0.0,0.0,0.0,0.0,0.0,0.0,0.0,0.0,0.0,0.0,0.0,0.0,-3.0929,-2.9848,-3.0588,-3.1219,-3.1578,-3.1618,-3.1618,-3.1618,-3.1618,-3.1618,-3.1618,-3.1618,-3.1618,-3.1618,-3.1618,-3.1618,-3.1618,-3.1618,0.0,-3.1618,-3.1618,-3.1772,-3.2015,-3.2015,-3.2179,-3.2432,-3.2432,-3.2432,-3.2482,0.0,0.0,0.0,0.0,0.0,0.0,0.0,-1.2609,-1.4049,-1.5327,-1.5541,-1.4939,-1.326,-1.2252,-1.1349,0.0,0.0,0.0,0.0,0.0,0.0,0.0,0.0,0.0,0.0,0.0,0.0,0.0,0.0,0.0,0.0,0.0,0.0,0.0,0.0,0.0,0.0,0.0,0.0,0.0,0.0,0.0,0.0,0.0,0.0,0.0,0.0,0.0,0.0,0.0,-1.9254,-2.1115,-2.34,-2.5252,-2.6645,-2.7212,-2.7536,-2.7798,-2.8128,-2.7846,-2.7389,-2.701,-2.5256,-2.2966,-2.0487,-1.8639,0.0,0.0,-1.3776,-1.3478,-1.3586,0.0,0.0,0.0,0.0,0.0,0.0,0.0,0.0,0.0,0.0,0.0,0.0,0.0,0.0,0.0,0.0,0.0,-3.0899,-3.1311,-3.1618,-3.1618,-3.1618,-3.1618,-3.1618,-3.1618,-3.1618,-3.1618,-3.1618,-3.1618,-3.1618,-3.1618,-3.1669,-3.1772,-3.1772,0.0,0.0,-3.1924,-3.2179,-3.2572,-3.2572,-3.2835,-3.3197,-3.3197,-3.3197,-3.3296,0.0,0.0,0.0,0.0,0.0,0.0,0.0,-1.2659,-1.466,-1.595,-1.632,-1.6022,-1.4817,-1.3587,-1.2401,0.0,0.0,0.0,0.0,0.0,0.0,0.0,0.0,0.0,0.0,0.0,0.0,0.0,0.0,0.0,0.0,0.0,0.0,0.0,0.0,0.0,0.0,0.0,0.0,0.0,0.0,0.0,0.0,0.0,0.0,0.0,0.0,0.0,0.0,0.0,0.0,-1.871,-1.9913,-2.2666,-2.5564,-2.6093,0.0,0.0,-2.7383,-2.7846,-2.8007,-2.6329,-2.4607,-2.2644,-1.9965,0.0,0.0,-1.3955,-1.3296,-1.3089,-1.3525,-1.3947,0.0,0.0,0.0,0.0,0.0,0.0,0.0,0.0,0.0,0.0,0.0,0.0,0.0,0.0,0.0,0.0,-3.2269,-3.1823,-3.1618,-3.1618,-3.1618,-3.1618,-3.1618,-3.1618,-3.1618,-3.1618,-3.1618,-3.1618,-3.1618,-3.1618,-3.1874,-3.2319,-3.2319,0.0,0.0,-3.3047,-3.3097,-3.3147,-3.3147,-3.3147,-3.3197,-3.3197,-3.3197,-3.3296,0.0,0.0,0.0,0.0,0.0,0.0,-1.1429,-1.2845,-1.45,-1.6532,-1.6891,-1.6778,-1.6328,-1.5012,-1.3277,-1.1131,0.0,0.0,0.0,0.0,0.0,0.0,0.0,0.0,0.0,0.0,0.0,0.0,0.0,0.0,0.0,0.0,0.0,0.0,0.0,0.0,0.0,0.0,0.0,0.0,0.0,0.0,0.0,0.0,0.0,0.0,0.0,0.0,0.0,0.0,0.0,0.0,-1.7748,-1.9552,0.0,0.0,-2.5444,-2.6452,-2.7265,-2.7981,-2.8267,-2.7207,-2.5417,-2.3239,-2.068,0.0,-1.5777,-1.4731,-1.3881,-1.3573,-1.4362,-1.4363,-1.4651,-1.5817,-1.6462,-1.8055,0.0,0.0,0.0,0.0,0.0,0.0,0.0,0.0,0.0,0.0,0.0,0.0,-3.3373,-3.2572,-3.1913,-3.1618,-3.1618,-3.1618,-3.1618,-3.1924,-3.2066,-3.2066,-3.2432,-3.2544,-3.2544,-3.2544,-3.2684,-3.2885,-3.2885,0.0,0.0,-3.3197,-3.3396,-3.3694,-3.3694,-3.3892,-3.4139,-3.4139,-3.4139,-3.4188,0.0,0.0,0.0,0.0,0.0,-0.988,-1.1586,-1.2555,-1.3948,-1.6329,-1.6519,-1.6527,-1.6778,-1.5217,-1.3359,-1.1434,-1.1288,0.0,0.0,0.0,0.0,0.0,0.0,0.0,0.0,0.0,0.0,0.0,0.0,0.0,0.0,0.0,0.0,0.0,0.0,0.0,0.0,0.0,0.0,0.0,0.0,0.0,0.0,0.0,0.0,0.0,0.0,0.0,0.0,0.0,0.0,0.0,0.0,0.0,0.0,0.0,-2.3785,-2.5168,-2.661,-2.7512,-2.7957,-2.7546,-2.5627,-2.3248,0.0,0.0,-1.6208,-1.53,-1.4408,-1.4082,-1.4949,-1.48,-1.4829,0.0,-1.6153,-1.7584,-2.1033,0.0,0.0,0.0,0.0,0.0,0.0,0.0,0.0,0.0,0.0,0.0,0.0,-3.3273,-3.2622,-3.2077,-3.1783,-3.1732,-3.2077,-3.2269,-3.2471,-3.2622,-3.3035,-3.3197,-3.3197,-3.3197,-3.3296,-3.3446,-3.3446,0.0,0.0,-3.3694,-3.3892,-3.4237,-3.4237,-3.4482,-3.4775,-3.4775,-3.4775,-3.4775,0.0,0.0,0.0,0.0,0.0,0.0,-1.0314,-1.1589,-1.3108,-1.5066,-1.4918,-1.4956,-1.5829,-1.3782,-1.2399,-1.2581,-1.1188,0.0,0.0,0.0,0.0,0.0,0.0,0.0,0.0,0.0,0.0,0.0,0.0,0.0,0.0,0.0,0.0,0.0,0.0,0.0,0.0,0.0,0.0,0.0,0.0,0.0,-1.6392,0.0,0.0,0.0,0.0,0.0,0.0,0.0,0.0,0.0,0.0,0.0,0.0,0.0,-2.2144,-2.4047,-2.5059,-2.6081,-2.691,-2.691,-2.4778,-2.2349,0.0,-1.8424,-1.614,-1.5279,-1.4686,-1.4467,-1.5006,-1.5108,-1.5062,-1.5006,-1.6562,-1.8595,-2.0953,0.0,0.0,0.0,0.0,0.0,0.0,0.0,0.0,0.0,0.0,0.0,0.0,-3.3991,-3.3744,-3.3197,-3.2128,-3.2128,-3.3147,-3.2672,-3.2672,-3.3197,-3.3197,-3.3197,-3.3197,-3.3197,-3.3496,0.0,0.0,0.0,0.0,-3.4775,-3.4775,-3.4775,-3.4775,-3.4775,-3.4775,-3.4775,-3.4775,-3.4775,0.0,0.0,0.0,0.0,0.0,0.0,0.0,-1.0836,-1.1803,-1.3744,-1.3867,-1.397,-1.4478,-1.3315,-1.2525,-1.2581,-1.1776,0.0,0.0,0.0,0.0,0.0,0.0,0.0,0.0,0.0,-1.4094,-1.4702,-1.4999,0.0,0.0,0.0,0.0,0.0,0.0,0.0,0.0,0.0,0.0,0.0,0.0,-1.4364,-1.5029,0.0,0.0,0.0,0.0,0.0,0.0,0.0,0.0,0.0,0.0,0.0,0.0,-1.7063,-1.936,0.0,-2.245,-2.3424,-2.4061,-2.334,-2.2209,-2.0849,-1.9317,-1.7737,-1.631,-1.5303,-1.496,-1.4892,-1.5062,-1.5356,-1.6173,-1.8005,-1.8775,0.0,0.0,0.0,0.0,0.0,0.0,0.0,0.0,0.0,0.0,0.0,0.0,0.0,0.0,-3.4188,-3.3744,-3.3197,-3.2846,-3.2846,-3.3197,-3.3385,-3.3583,-3.3744,-3.4139,-3.4286,-3.4286,-3.4286,0.0,0.0,0.0,0.0,0.0,-3.4775,-3.4775,-3.4775,-3.4775,-3.4775,-3.4775,-3.4775,-3.4775,-3.4775,0.0,0.0,0.0,0.0,0.0,0.0,0.0,-0.9773,-1.0479,-1.2434,-1.2463,-1.2713,-1.3785,-1.2692,-1.2088,-1.2567,-1.1966,0.0,0.0,0.0,0.0,0.0,0.0,0.0,0.0,-1.3571,-1.4069,-1.4695,-1.5157,-1.5544,-1.5819,-1.56,0.0,0.0,0.0,0.0,0.0,0.0,0.0,0.0,-1.3605,-1.3902,-1.4396,0.0,0.0,0.0,0.0,0.0,0.0,0.0,0.0,0.0,0.0,0.0,0.0,0.0,-1.6907,-1.9032,0.0,-2.1272,-2.1939,-2.1277,-2.0538,-1.9684,-1.847,-1.7406,-1.636,-1.5246,-1.5221,-1.5289,-1.5085,-1.5446,-1.6415,-1.8289,-1.8927,0.0,0.0,0.0,0.0,0.0,0.0,0.0,0.0,0.0,0.0,0.0,0.0,0.0,0.0,-3.4482,-3.4139,-3.3793,-3.3396,-3.3396,-3.3793,-3.3941,-3.4089,-3.4286,-3.4628,-3.4775,-3.4775,-3.4775,0.0,0.0,0.0,0.0,0.0,-3.4775,-3.4775,-3.4775,-3.4775,-3.4775,-3.4775,-3.4775,-3.4775,-3.4775,0.0,0.0,0.0,0.0,0.0,0.0,0.0,-0.8603,-0.9278,-1.1184,-1.0886,-1.1313,-1.3446,-1.1892,-1.1165,-1.2334,0.0,0.0,0.0,0.0,0.0,0.0,0.0,0.0,0.0,-1.3248,-1.3788,-1.4715,-1.4913,-1.5477,-1.6392,-1.5819,-1.524,0.0,0.0,0.0,0.0,0.0,0.0,0.0,-1.3482,-1.3791,0.0,0.0,0.0,0.0,0.0,0.0,0.0,0.0,0.0,0.0,0.0,0.0,0.0,0.0,0.0,0.0,0.0,-1.9507,-2.0302,-2.0278,-1.9519,-1.8638,-1.8145,-1.7255,0.0,-1.5097,-1.5367,-1.5638,-1.512,-1.5472,-1.6126,-1.6919,0.0,0.0,0.0,0.0,0.0,0.0,0.0,0.0,0.0,0.0,0.0,0.0,0.0,0.0,0.0,-3.4775,-3.4775,-3.4775,-3.3843,-3.3793,-3.4775,-3.4286,-3.4286,-3.4775,-3.4775,-3.4775,-3.4775,-3.4775,-3.4775,0.0,0.0,0.0,0.0,-3.4775,-3.4775,-3.4775,-3.4775,-3.4775,-3.4775,-3.4775,-3.4775,-3.4775,0.0,0.0,0.0,0.0,0.0,0.0,0.0,0.0,0.0,0.0,-1.0589,-1.0745,-1.1384,-1.1,-1.074,0.0,0.0,0.0,0.0,0.0,0.0,0.0,0.0,0.0,0.0,-1.3835,-1.4613,-1.4858,-1.5657,-1.6165,-1.6392,-1.6151,-1.5529,-1.4624,-1.4462,0.0,0.0,0.0,0.0,0.0,-1.289,-1.2963,0.0,0.0,0.0,0.0,-1.3083,-1.3402,0.0,0.0,0.0,0.0,0.0,0.0,0.0,0.0,-1.4144,-1.4835,-1.5706,0.0,-1.7423,-1.7027,-1.6739,-1.6523,0.0,-1.6175,-1.5677,0.0,0.0,-1.5902,-1.6224,-1.6357,-1.7531,0.0,0.0,0.0,0.0,0.0,0.0,0.0,0.0,0.0,0.0,0.0,0.0,0.0,0.0,0.0,0.0,-3.4775,-3.4775,-3.4775,-3.458,-3.4531,-3.4775,-3.4677,-3.4677,-3.4775,-3.4775,-3.4775,-3.4775,-3.4775,-3.4775,0.0,0.0,0.0,-3.4775,-3.4775,-3.4775,-3.4775,-3.4775,-3.4775,-3.4775,-3.4775,-3.4775,-3.4775,0.0,0.0,0.0,0.0,0.0,0.0,0.0,0.0,0.0,0.0,0.0,-1.0249,-1.0658,-1.0801,0.0,0.0,0.0,0.0,0.0,0.0,0.0,0.0,0.0,0.0,-1.2388,-1.379,-1.4594,-1.4709,-1.5566,-1.607,-1.6219,-1.6132,-1.5669,-1.4861,-1.4333,-1.3593,0.0,0.0,0.0,-1.2709,-1.2709,0.0,0.0,0.0,0.0,0.0,-1.2709,-1.3047,0.0,-1.3782,-1.4369,-1.4869,0.0,0.0,0.0,0.0,-1.3517,-1.4048,-1.4538,-1.561,-1.6595,-1.6547,-1.6535,-1.6535,-1.6535,0.0,0.0,0.0,0.0,-1.5889,-1.6178,0.0,0.0,0.0,0.0,0.0,0.0,0.0,0.0,0.0,0.0,0.0,0.0,0.0,0.0,0.0,0.0,0.0,0.0,-3.4775,-3.4775,-3.4775,-3.4775,-3.4775,-3.4775,-3.4775,-3.4775,-3.4775,-3.4775,-3.4775,-3.4775,-3.4775,-3.4775,0.0,0.0,0.0,-3.4775,-3.4775,-3.4775,-3.4775,-3.4775,-3.4775,-3.4775,-3.4775,-3.4775,-3.4775,0.0,0.0,0.0,0.0,0.0,0.0,0.0,0.0,0.0,0.0,0.0,0.0,0.0,0.0,0.0,0.0,0.0,0.0,0.0,0.0,0.0,0.0,0.0,-1.1839,-1.2388,-1.3571,-1.4325,-1.4656,-1.5356,-1.5844,-1.611,-1.611,-1.5745,-1.5028,-1.3966,-1.3204,0.0,0.0,0.0,-1.2709,-1.2709,0.0,0.0,0.0,0.0,0.0,0.0,0.0,0.0,-1.3891,-1.4418,-1.4806,-1.4221,0.0,0.0,0.0,0.0,0.0,-1.4325,-1.5596,-1.6787,-1.7075,-1.7267,-1.7388,-1.7291,0.0,0.0,0.0,0.0,0.0,0.0,0.0,0.0,0.0,0.0,0.0,0.0,0.0,0.0,0.0,0.0,0.0,0.0,0.0,0.0,0.0,0.0,0.0,0.0,-3.4775,-3.4775,-3.4775,-3.4775,-3.4775,-3.4775,-3.4775,-3.4775,-3.4775,-3.4775,-3.4775,-3.4775,-3.4775,-3.4775,-3.4775,0.0,0.0,-3.4775,-3.4775,-3.4775,-3.4775,-3.4775,-3.4775,-3.4775,-3.4775,-3.4775,-3.4775,0.0,0.0,0.0,0.0,0.0,0.0,0.0,0.0,0.0,0.0,0.0,0.0,0.0,0.0,0.0,0.0,0.0,0.0,0.0,0.0,0.0,0.0,-1.1274,-1.1839,-1.2388,-1.3851,-1.4851,-1.5356,-1.6183,-1.6642,-1.6669,-1.6669,-1.5903,-1.4493,-1.3809,-1.3204,-1.2709,0.0,0.0,-1.2709,0.0,0.0,0.0,0.0,0.0,0.0,0.0,0.0,0.0,-1.2926,-1.3602,-1.4241,-1.3264,0.0,0.0,0.0,0.0,0.0,-1.507,-1.6403,-1.7075,-1.6259,-1.6727,-1.7267,-1.6823,0.0,0.0,0.0,0.0,0.0,0.0,0.0,0.0,0.0,0.0,0.0,0.0,0.0,0.0,0.0,0.0,0.0,0.0,0.0,0.0,0.0,0.0,0.0,0.0,-3.4775,-3.4775,-3.4775,-3.4775,-3.4775,-3.4775,-3.4775,-3.4775,-3.4775,-3.4775,-3.4775,-3.4775,-3.4775,-3.4775,-3.4775,0.0,-3.4775,-3.4775,-3.4775,-3.4775,-3.4775,-3.4775,-3.4775,-3.4775,-3.4775,-3.4775,-3.4775,0.0,0.0,0.0,0.0,0.0,0.0,0.0,0.0,0.0,0.0,0.0,0.0,0.0,0.0,0.0,0.0,0.0,0.0,0.0,0.0,0.0,-1.1161,-1.1999,-1.2576,-1.2839,-1.4057,-1.4948,-1.5451,-1.6064,-1.632,-1.6253,-1.5963,-1.5308,-1.4324,-1.3753,-1.3204,-1.2709,-1.2709,-1.2709,-1.2709,0.0,0.0,0.0,0.0,0.0,0.0,0.0,0.0,0.0,0.0,-1.365,-1.4156,-1.3385,0.0,0.0,0.0,0.0,0.0,-1.4562,-1.5752,-1.6559,-1.6643,-1.7904,-1.9128,-1.9164,0.0,0.0,0.0,0.0,0.0,0.0,0.0,0.0,0.0,0.0,0.0,0.0,0.0,0.0,0.0,0.0,0.0,0.0,0.0,0.0,0.0,0.0,0.0,0.0,0.0,-3.4126,-3.4342,-3.4354,-3.4486,-3.4775,-3.4775,-3.4775,-3.4775,-3.4775,-3.4775,-3.4775,-3.4775,-3.4775,-3.4775,0.0,-3.4775,-3.4775,-3.4775,-3.4775,-3.4775,-3.4775,-3.4775,-3.4775,-3.4775,-3.4775,-3.4775,0.0,0.0,0.0,0.0,0.0,0.0,0.0,0.0,0.0,0.0,0.0,0.0,0.0,0.0,0.0,0.0,0.0,0.0,0.0,0.0,-1.0847,-1.1655,-1.2533,-1.3203,-1.3591,-1.4424,-1.5093,-1.5594,-1.5949,-1.6094,-1.5994,-1.5444,-1.4866,-1.4285,-1.3734,-1.3204,-1.2709,-1.2709,-1.2709,-1.2709,0.0,0.0,0.0,0.0,0.0,0.0,0.0,0.0,0.0,0.0,0.0,0.0,0.0,0.0,0.0,-1.3324,-1.2999,-1.318,-1.4494,-1.5307,-1.6126,-1.7423,-1.8831,-2.0129,-2.1163,0.0,0.0,0.0,0.0,0.0,0.0,0.0,0.0,0.0,0.0,0.0,0.0,0.0,0.0,0.0,0.0,0.0,0.0,0.0,0.0,0.0,0.0,0.0,0.0,0.0,-3.3464,-3.3802,-3.3826,-3.4006,-3.4463,-3.4463,-3.4595,-3.4775,-3.4775,-3.4775,-3.4775,-3.4775,-3.4775,-3.4775,-3.4775,-3.4775,-3.4775,-3.4775,-3.4775,-3.4775,-3.4775,-3.4775,-3.4775,-3.4775,-3.4775,-3.4775,0.0,0.0,0.0,0.0,0.0,0.0,0.0,0.0,0.0,0.0,0.0,0.0,0.0,0.0,0.0,0.0,0.0,0.0,0.0,0.0,-1.0499,-1.191,-1.2282,-1.3195,-1.4733,-1.5154,-1.5619,-1.6139,-1.6419,-1.6547,-1.6535,-1.5984,-1.5235,-1.4285,-1.3734,-1.3204,-1.2709,-1.2709,-1.2709,-1.2709,-1.2709,0.0,0.0,0.0,0.0,0.0,0.0,0.0,0.0,0.0,0.0,0.0,0.0,0.0,-1.4277,-1.4212,-1.3831,-1.3872,-1.5897,-1.6126,-1.6307,-1.8374,-1.8253,0.0,-2.0827,-2.0562,0.0,0.0,0.0,0.0,0.0,0.0,0.0,0.0,0.0,0.0,0.0,0.0,0.0,0.0,0.0,0.0,0.0,0.0,0.0,0.0,0.0,0.0,0.0,0.0,0.0,-3.3344,-3.3344,-3.3368,-3.3404,-3.3404,-3.3885,-3.4775,-3.4775,-3.4775,-3.4775,-3.4775,-3.4775,-3.4775,-3.4775,-3.4775,-3.4775,-3.4775,-3.4775,-3.4775,-3.4775,-3.4775,-3.4775,-3.4775,-3.4775,-3.4775,0.0,0.0,0.0,0.0,0.0,0.0,0.0,0.0,0.0,0.0,0.0,0.0,0.0,0.0,0.0,0.0,0.0,0.0,0.0,0.0,-1.091,-1.2195,-1.2679,-1.3498,-1.475,-1.5187,-1.5626,-1.6066,-1.6074,-1.6092,-1.609,-1.5247,-1.4654,-1.4253,-1.3385,-1.2902,-1.2709,-1.2709,-1.2709,-1.2709,-1.2709,-1.2709,0.0,0.0,0.0,0.0,0.0,0.0,0.0,0.0,-1.2782,-1.3445,-1.3107,-1.3372,-1.3795,-1.3795,-1.3421,-1.3378,-1.513,-1.5936,-1.6739,-1.8542,0.0,0.0,0.0,0.0,0.0,0.0,0.0,0.0,0.0,0.0,0.0,0.0,0.0,0.0,0.0,0.0,0.0,0.0,0.0,0.0,0.0,0.0,0.0,0.0,0.0,0.0,0.0,0.0,0.0,-3.2791,-3.2803,-3.2959,-3.3284,-3.3284,-3.3477,-3.3873,-3.3873,-3.3873,-3.3873,-3.3873,-3.3873,-3.3873,-3.3873,-3.3873,-3.3873,-3.3873,-3.3873,-3.3909,-3.4174,-3.4486,-3.4775,-3.4775,-3.4775,-3.4775,0.0,0.0,0.0,0.0,0.0,0.0,0.0,0.0,0.0,0.0,0.0,0.0,0.0,0.0,0.0,0.0,0.0,0.0,0.0,-1.0284,-1.0913,-1.1934,-1.2416,-1.3116,-1.4113,-1.475,-1.5306,-1.5745,-1.5774,-1.5708,-1.5528,-1.4838,-1.4446,-1.4253,-1.336,-1.2944,-1.295,-1.2764,-1.2709,-1.2709,-1.2709,-1.2709,0.0,0.0,0.0,0.0,0.0,0.0,0.0,0.0,-1.2379,-1.2999,-1.2963,-1.3204,-1.3529,-1.3698,-1.3595,-1.3696,-1.4917,-1.59,-1.6979,0.0,0.0,0.0,0.0,0.0,0.0,0.0,0.0,0.0,0.0,0.0,0.0,0.0,0.0,0.0,0.0,0.0,0.0,0.0,0.0,0.0,0.0,0.0,0.0,0.0,0.0,0.0,0.0,0.0,0.0,0.0,-3.2238,-3.2406,-3.2767,-3.2779,-3.2779,-3.2779,-3.2779,-3.2959,-3.3284,-3.3284,-3.3284,-3.3284,-3.3284,-3.3284,-3.3284,-3.3284,-3.3284,-3.332,-3.3669,-3.4066,-3.4534,-3.4534,-3.4631,-3.4775,0.0,0.0,0.0,0.0,0.0,0.0,0.0,0.0,0.0,0.0,0.0,0.0,0.0,0.0,0.0,0.0,0.0,0.0,-1.031,-1.0059,-1.0262,-1.1055,-1.1347,-1.1944,-1.2871,-1.3874,-1.4651,-1.5198,-1.5594,-1.5516,-1.5001,-1.5001,-1.4734,-1.4285,-1.3734,-1.3505,-1.3457,-1.2926,-1.2709,-1.2709,-1.2709,-1.2709,-1.2709,0.0,0.0,0.0,0.0,0.0,0.0,0.0,-1.1897,-1.209,-1.3155,-1.3493,-1.3602,-1.4132,-1.4622,-1.5121,-1.5648,-1.6211,0.0,0.0,0.0,0.0,0.0,0.0,0.0,0.0,0.0,0.0,0.0,0.0,0.0,0.0,0.0,0.0,0.0,0.0,0.0,0.0,0.0,0.0,0.0,0.0,0.0,0.0,0.0,0.0,0.0,0.0,0.0,0.0,-3.1705,-3.1705,-3.1705,-3.1705,-3.1705,-3.1705,-3.1705,-3.2271,-3.3272,-3.3272,-3.3272,-3.3272,-3.3272,-3.3272,-3.3272,-3.3272,-3.3272,-3.3284,-3.3284,-3.3585,-3.3982,-3.3982,-3.4318,-3.4763,0.0,0.0,0.0,0.0,0.0,0.0,0.0,0.0,0.0,0.0,0.0,0.0,0.0,0.0,0.0,0.0,0.0,0.0,-1.0034,-0.9944,-1.0157,-1.0724,-1.1188,-1.1684,-1.2248,-1.3253,-1.42,-1.5064,-1.5178,-1.4986,-1.451,-1.451,-1.4221,-1.3722,-1.3565,-1.3288,-1.2926,-1.277,-1.2709,-1.2709,-1.2709,-1.2709,-1.2709,0.0,0.0,0.0,0.0,0.0,0.0,0.0,0.0,0.0,-1.2842,-1.3204,-1.3529,-1.3686,-1.4088,-1.4598,-1.5097,-1.6727,0.0,0.0,0.0,0.0,0.0,0.0,0.0,0.0,0.0,0.0,0.0,0.0,0.0,0.0,0.0,0.0,0.0,0.0,0.0,0.0,0.0,0.0,0.0,0.0,0.0,0.0,0.0,0.0,0.0,0.0,0.0,0.0,-3.1705,-3.1705,-3.1705,-3.1705,-3.1705,-3.1705,-3.1705,-3.1874,-3.2187,-3.2187,-3.2187,-3.2187,-3.2187,-3.2187,-3.2187,-3.2187,-3.2382,-3.2743,-3.2743,-3.3056,-3.3513,-3.3513,-3.3609,-3.3789,0.0,0.0,0.0,0.0,0.0,0.0,0.0,0.0,0.0,0.0,0.0,-0.9836,0.0,0.0,0.0,0.0,0.0,0.0,0.0,0.0,-1.009,-1.0625,-1.086,-1.1394,-1.2254,-1.2872,-1.3486,-1.4085,-1.4505,-1.4345,-1.3674,-1.4293,-1.4305,-1.3819,-1.4016,-1.3811,-1.3324,-1.3107,-1.2902,-1.2709,-1.2709,-1.2709,-1.2685,0.0,0.0,0.0,0.0,0.0,0.0,0.0,0.0,0.0,-1.2379,-1.2758,-1.318,-1.318,-1.3992,-1.5043,-1.5766,0.0,0.0,0.0,0.0,0.0,0.0,0.0,0.0,0.0,0.0,0.0,0.0,0.0,0.0,0.0,0.0,0.0,0.0,0.0,0.0,0.0,0.0,0.0,0.0,0.0,0.0,0.0,0.0,0.0,0.0,0.0,0.0,0.0,-3.1705,-3.1705,-3.1705,-3.1705,-3.1705,-3.1705,-3.1705,-3.1705,-3.1705,-3.1705,-3.1705,-3.1705,-3.1705,-3.1705,-3.1705,-3.1705,-3.191,-3.2166,-3.2166,-3.2503,-3.2971,-3.2971,-3.3104,-3.3332,0.0,0.0,-0.7605,-0.7605,0.0,0.0,0.0,0.0,0.0,0.0,-0.9235,-0.9894,0.0,0.0,0.0,-1.1097,0.0,0.0,0.0,0.0,-1.0051,-1.0655,-1.0593,-1.1224,-1.2673,-1.2643,-1.2637,-1.2637,-1.365,-1.3626,-1.2656,-1.4205,-1.4694,-1.4241,-1.471,-1.4658,0.0,-1.3577,-1.3047,-1.2565,-1.2613,-1.2613,-1.2499,-1.2065,0.0,0.0,0.0,0.0,0.0,0.0,0.0,0.0,-1.1969,-1.233,-1.2764,-1.2764,-1.4177,-1.5948,-1.7027,0.0,0.0,0.0,0.0,0.0,0.0,0.0,0.0,0.0,0.0,0.0,0.0,0.0,0.0,0.0,0.0,0.0,0.0,0.0,0.0,0.0,0.0,0.0,0.0,0.0,0.0,0.0,0.0,0.0,0.0,0.0,0.0,-3.1633,-3.1633,-3.1657,-3.1705,-3.1705,-3.1705,-3.1705,-3.1705,-3.1705,-3.1705,-3.1705,-3.1705,-3.1705,-3.1705,-3.1705,-3.1705,-3.1705,-3.1705,-3.1705,-3.1705,-3.2018,-3.243,-3.243,-3.2731,-3.3152,0.0,0.0,-0.7605,-0.7605,0.0,0.0,0.0,0.0,-0.8435,-0.858,-0.9594,-1.0368,-1.0488,-1.0869,0.0,-1.1097,-1.0605,0.0,0.0,0.0,-1.0024,-1.0513,-1.1256,-1.1975,-1.2668,-1.2282,-1.2078,-1.2078,-1.2716,-1.2721,-1.2102,-1.3703,-1.418,-1.3686,-1.4229,-1.3939,-1.3011,-1.2463,-1.1933,-1.1471,-1.1897,-1.1825,-1.1487,-1.1789,-1.1644,0.0,0.0,0.0,0.0,0.0,0.0,0.0,-1.254,-1.2902,-1.3324,-1.3324,-1.4213,-1.5408,0.0,0.0,0.0,0.0,0.0,0.0,0.0,0.0,0.0,0.0,0.0,0.0,0.0,0.0,0.0,0.0,0.0,0.0,0.0,0.0,0.0,0.0,0.0,0.0,0.0,0.0,0.0,0.0,0.0,0.0,0.0,0.0,0.0,-3.1079,-3.1091,-3.1284,-3.1705,-3.1705,-3.1705,0.0,-3.1705,-3.1705,-3.1705,-3.1705,-3.1705,-3.1705,-3.1705,-3.1705,-3.1705,-3.1705,-3.1705,-3.1705,-3.1705,-3.1789,-3.1886,-3.1886,-3.1958,-3.2114,0.0,0.0,0.0,0.0,0.0,0.0,0.0,0.0,-0.8603,-0.8603,-0.971,-1.0502,-1.0502,-1.0965,0.0,0.0,-1.0787,-1.0483,0.0,0.0,0.0,-1.044,-1.1201,-1.1709,-1.1933,-1.1399,-1.1255,-1.1524,-1.1801,-1.2053,0.0,-1.3908,-1.449,-1.4237,-1.4514,-1.4064,-1.3047,-1.2499,-1.1837,-1.1123,-1.1399,-1.1355,-1.1099,-1.1123,-1.1111,-1.1063,-1.081,0.0,0.0,0.0,0.0,0.0,0.0,0.0,-1.3119,-1.3119,-1.4021,-1.5289,0.0,0.0,0.0,0.0,0.0,0.0,0.0,0.0,0.0,0.0,0.0,0.0,0.0,0.0,0.0,0.0,0.0,0.0,0.0,0.0,0.0,0.0,0.0,0.0,0.0,0.0,0.0,0.0,0.0,0.0,0.0,-3.0086,-3.0218,-3.0494,-3.0494,-3.0627,-3.0946,-3.1199,-3.1332,-3.1332,-3.1585,-3.1705,-3.1705,-3.1705,-3.1705,-3.1705,-3.1705,-3.1705,-3.1705,-3.1705,-3.1705,-3.1705,-3.1705,-3.1705,-3.1705,-3.1705,-3.1705,-3.1753,0.0,0.0,0.0,0.0,0.0,0.0,0.0,0.0,0.0,-0.8778,-0.9884,-1.0672,-1.0672,-1.1129,-1.1365,0.0,0.0,0.0,-1.0347,0.0,0.0,0.0,-1.0915,-1.1164,-1.1099,-1.057,-1.0618,-1.1247,-1.1147,0.0,0.0,0.0,0.0,-1.5001,-1.4917,-1.4321,-1.3324,-1.268,-1.1801,-1.0834,-1.0918,-1.0906,-1.0786,-1.0423,-1.0522,-1.0786,-1.0437,-1.0594,-1.1063,-1.1692,0.0,0.0,0.0,0.0,-1.2571,-1.2668,-1.3612,-1.4941,0.0,0.0,0.0,0.0,0.0,0.0,0.0,0.0,0.0,0.0,0.0,0.0,0.0,0.0,0.0,0.0,0.0,0.0,0.0,0.0,0.0,0.0,0.0,0.0,0.0,0.0,0.0,0.0,0.0,0.0,-2.9797,-2.9809,-2.9857,-2.9941,-2.9953,-2.9989,-3.0086,-3.0518,-3.0735,-3.079,-3.1223,-3.1488,-3.1573,-3.1573,-3.1621,-3.1705,-3.1705,-3.1705,-3.1705,-3.1705,-3.1705,-3.1705,-3.1705,-3.1705,-3.1705,-3.1705,-3.1705,-3.1705,0.0,0.0,0.0,0.0,0.0,0.0,0.0,0.0,0.0,0.0,-1.0573,-1.1373,-1.1373,-1.1239,-1.1239,-1.1433,-1.0786,-1.0409,0.0,0.0,0.0,0.0,-1.0885,-1.1164,-1.1099,-1.057,-1.0786,-1.1801,0.0,0.0,0.0,0.0,0.0,-1.4989,0.0,0.0,-1.2745,-1.174,-1.069,-0.9762,-1.0219,-1.0123,-0.9762,-1.0147,-1.0065,-0.9762,-1.0159,-1.0353,-1.0558,-1.1556,-1.1897,0.0,0.0,0.0,0.0,-1.2559,-1.2848,-1.3347,0.0,0.0,0.0,0.0,0.0,0.0,0.0,0.0,0.0,0.0,0.0,0.0,0.0,0.0,0.0,0.0,0.0,0.0,0.0,0.0,0.0,0.0,0.0,0.0,0.0,0.0,0.0,0.0,0.0,0.0,-2.8715,-2.8727,-2.8931,-2.9388,-2.94,-2.9629,-3.0086,-3.0158,-3.0194,-3.0194,-3.0266,-3.0585,-3.1019,-3.1019,-3.1271,-3.1705,-3.1705,-3.1705,-3.1705,-3.1705,-3.1705,-3.1705,-3.1705,-3.1705,-3.1705,-3.1705,-3.1705,-3.1705,0.0,0.0,0.0,0.0,0.0,0.0,0.0,0.0,0.0,0.0,0.0,-1.1489,-1.1489,-1.1387,-1.1307,-1.1285,-1.0883,0.0,0.0,0.0,0.0,0.0,-1.0131,-1.0223,-1.0195,-0.9966,-1.0219,-1.1003,0.0,0.0,0.0,-1.467,-1.5274,0.0,0.0,0.0,0.0,0.0,-1.093,-0.9942,-0.9882,-1.0243,-1.0774,-1.0111,-1.0267,-1.0762,-1.0087,-0.9858,-1.0015,-1.1087,-1.1447,-1.156,-1.2078,0.0,0.0,0.0,0.0,0.0,0.0,0.0,0.0,0.0,0.0,0.0,0.0,0.0,0.0,0.0,0.0,0.0,0.0,0.0,0.0,0.0,0.0,0.0,0.0,0.0,0.0,0.0,0.0,0.0,0.0,0.0,0.0,0.0,0.0,-2.851,-2.851,-2.851,-2.8619,-2.8847,-2.8859,-2.8967,-2.9208,-2.9496,-2.9797,-3.0086,-3.0086,-3.0206,-3.0446,-3.0735,-3.1211,-3.1705,-3.1705,-3.1705,-3.1705,-3.1705,-3.1705,-3.1705,-3.1705,-3.1705,-3.1705,-3.1705,-3.1705,-3.1705,0.0,0.0,0.0,0.0,0.0,0.0,0.0,0.0,0.0,0.0,0.0,-1.1489,-1.1489,0.0,0.0,0.0,-1.0801,0.0,0.0,0.0,0.0,0.0,0.0,-0.951,-0.951,-0.951,-0.9762,0.0,0.0,0.0,-1.4486,-1.4842,-1.5996,0.0,-1.6691,-1.55,0.0,0.0,0.0,-1.0882,-1.0459,-1.1027,-1.2017,-1.1203,-1.1648,-1.2506,-1.1039,-1.0522,0.0,0.0,0.0,0.0,0.0,0.0,0.0,0.0,0.0,0.0,0.0,0.0,0.0,0.0,0.0,0.0,0.0,0.0,0.0,0.0,0.0,0.0,0.0,0.0,0.0,0.0,0.0,0.0,0.0,0.0,0.0,0.0,0.0,0.0,0.0,0.0,0.0,0.0,0.0,-2.851,-2.851,-2.851,-2.851,-2.851,-2.851,-2.851,-2.851,-2.8907,-2.9304,-2.9689,-2.9689,-2.9749,-2.9893,-3.029,-3.0814,-3.132,-3.1585,-3.1705,-3.1705,-3.1705,-3.1705,-3.1705,-3.1705,-3.1705,-3.1705,-3.1705,-3.1705,-3.1705,0.0,0.0,0.0,0.0,0.0,0.0,0.0,0.0,0.0,0.0,0.0,-1.1489,-1.1489,-1.105,-1.0801,-1.0991,-1.0298,0.0,0.0,0.0,0.0,0.0,0.0,0.0,-0.951,-0.951,0.0,0.0,0.0,0.0,-1.4965,-1.4989,-1.6403,-1.8867,-1.7808,-1.6185,-1.4253,0.0,0.0,-1.2559,-1.2535,-1.2571,-1.28,-1.4193,-1.4773,-1.4701,-1.3667,0.0,0.0,0.0,0.0,0.0,0.0,0.0,-1.1039,0.0,0.0,0.0,0.0,0.0,0.0,0.0,0.0,0.0,0.0,0.0,0.0,0.0,0.0,0.0,0.0,0.0,0.0,0.0,0.0,0.0,0.0,0.0,0.0,0.0,0.0,0.0,0.0,0.0,0.0,0.0,0.0,-2.851,-2.851,-2.851,-2.851,-2.851,-2.851,-2.851,-2.851,-2.8534,-2.857,-2.8595,-2.8595,-2.8859,-2.934,-2.9364,-2.9677,-3.0218,-3.1271,-3.1705,-3.1705,-3.1705,-3.1705,-3.1705,-3.1705,-3.1705,-3.1705,-3.1705,-3.1705,-3.1705,0.0,0.0,0.0,0.0,0.0,0.0,0.0,0.0,0.0,0.0,0.0,0.0,0.0,-1.1132,-1.092,-1.0991,-1.0336,0.0,0.0,0.0,0.0,0.0,0.0,0.0,0.0,0.0,0.0,0.0,0.0,-1.1059,-1.354,-1.4233,-1.5223,-1.6463,-1.7111,-1.6798,-1.5692,-1.453,0.0,-1.3216,-1.3216,-1.4016,-1.5163,-1.4706,-1.5596,-1.6823,0.0,0.0,0.0,0.0,0.0,0.0,-1.2005,-1.1536,-1.093,-1.0039,0.0,0.0,0.0,0.0,0.0,0.0,0.0,0.0,0.0,0.0,0.0,0.0,0.0,0.0,0.0,0.0,0.0,0.0,0.0,0.0,0.0,0.0,0.0,0.0,0.0,0.0,0.0,0.0,0.0,0.0,0.0,0.0,-2.851,-2.851,-2.851,-2.851,-2.851,-2.851,-2.851,-2.851,-2.851,-2.851,-2.851,-2.8607,-2.8799,-2.9136,-2.94,-2.9629,-3.0338,-3.0886,-3.1199,-3.1199,-3.1404,-3.1705,-3.1705,-3.1705,-3.1705,-3.1705,-3.1705,-3.1705,0.0,0.0,0.0,-0.9909,0.0,-0.8929,-0.8929,-0.9487,-0.9909,-0.9909,0.0,0.0,0.0,0.0,-1.0813,-1.057,-1.0173,-0.9893,-0.9775,0.0,0.0,0.0,0.0,0.0,0.0,0.0,0.0,0.0,0.0,0.0,0.0,-1.3348,-1.4221,-1.5037,-1.5754,-1.6185,0.0,0.0,0.0,-1.4305,0.0,-1.5524,-1.6619,0.0,-1.7809,0.0,0.0,0.0,0.0,0.0,0.0,0.0,-1.2704,-1.1704,-1.0666,-0.9762,-1.0507,0.0,0.0,0.0,0.0,0.0,0.0,0.0,0.0,0.0,0.0,0.0,0.0,0.0,0.0,0.0,0.0,0.0,0.0,0.0,0.0,0.0,0.0,0.0,0.0,0.0,0.0,0.0,0.0,0.0,0.0,0.0,-2.851,-2.851,-2.851,-2.851,-2.851,-2.851,-2.851,-2.851,-2.851,-2.851,-2.851,-2.851,-2.8522,-2.8871,-2.9027,-2.9051,-2.9412,-2.9965,-3.0669,-3.085,-3.1127,-3.1464,-3.1633,-3.1705,-3.1705,-3.1705,-3.1705,-3.1705,-1.1373,-1.0973,-1.0531,-1.0531,-1.003,-0.9627,-0.9627,-1.0121,-1.0517,-1.0531,0.0,0.0,0.0,0.0,0.0,-0.98,-0.9787,-0.9736,-0.9537,-0.951,0.0,0.0,0.0,0.0,0.0,0.0,0.0,0.0,0.0,0.0,0.0,0.0,-1.3456,-1.4869,-1.3908,-1.4329,-1.572,0.0,-1.5768,-1.5946,0.0,-1.7087,-1.7111,0.0,0.0,0.0,-2.0641,-2.031,0.0,-1.746,0.0,0.0,0.0,-1.2053,-1.0243,-0.9726,-1.0327,0.0,0.0,0.0,0.0,0.0,0.0,0.0,0.0,0.0,0.0,0.0,0.0,0.0,0.0,0.0,0.0,0.0,0.0,0.0,0.0,0.0,0.0,0.0,0.0,0.0,0.0,0.0,0.0,0.0,0.0,-2.851,-2.851,-2.851,-2.851,-2.851,-2.851,-2.851,-2.851,-2.851,-2.851,-2.851,-2.851,-2.851,-2.851,-2.851,-2.851,-2.851,-2.851,-2.9088,-3.0074,-3.0645,-3.0886,-3.097,-3.1488,-3.1693,-3.1705,-3.1705,-3.1705,-3.1705,-1.1373,-1.1358,-1.1216,-1.1216,-1.0683,-1.0252,-1.0252,-1.0386,-1.0662,0.0,0.0,0.0,-1.2113,-1.1533,-1.1005,-1.0672,-1.0398,-1.017,-1.0021,-0.9776,-0.9644,-0.9644,-0.9604,-0.9564,-0.9564,0.0,0.0,0.0,0.0,0.0,0.0,0.0,0.0,0.0,-1.2872,-1.3366,-1.4137,-1.4137,0.0,0.0,-1.6439,-1.7543,0.0,0.0,0.0,0.0,0.0,-2.1656,-2.138,0.0,-1.8924,-1.7135,0.0,0.0,-1.1439,-1.1283,-1.1993,-1.2673,-1.1897,0.0,0.0,0.0,0.0,0.0,0.0,0.0,0.0,0.0,0.0,0.0,0.0,0.0,0.0,0.0,0.0,0.0,0.0,0.0,0.0,0.0,0.0,0.0,0.0,0.0,0.0,0.0,-2.851,-2.851,-2.851,-2.851,-2.851,-2.851,-2.851,-2.851,-2.851,-2.851,-2.851,-2.851,-2.851,-2.851,-2.851,-2.851,-2.851,-2.851,-2.851,-2.8679,-2.8991,-2.952,-3.0182,-3.0891,-3.1079,-3.1368,-3.1705,-3.1705,-3.1705,-3.1705,-1.1373,-1.1489,-1.1576,-1.1826,-1.1771,-1.1713,-1.1713,-1.1919,-1.2149,0.0,0.0,0.0,-1.2457,-1.2334,-1.203,-1.147,-1.0902,-1.0568,-1.0586,-1.003,-0.9697,-0.9697,-0.9658,-0.9631,-0.9604,-0.9564,0.0,0.0,0.0,0.0,0.0,0.0,0.0,-1.1247,-1.1331,-1.2041,-1.3143,-1.268,0.0,0.0,-1.6931,0.0,0.0,-2.0735,-2.1813,0.0,0.0,0.0,-2.2806,-2.2246,-2.049,0.0,0.0,-1.4129,-1.3071,-1.2427,-1.3137,-1.39,-1.2848,0.0,0.0,0.0,0.0,0.0,0.0,0.0,0.0,0.0,0.0,0.0,0.0,0.0,0.0,0.0,0.0,0.0,0.0,0.0,0.0,0.0,0.0,0.0,0.0,0.0,0.0,-2.851,-2.851,-2.851,-2.851,-2.851,-2.851,-2.851,-2.851,-2.851,-2.851,-2.851,-2.851,-2.851,-2.851,-2.851,-2.851,-2.851,-2.851,-2.851,-2.851,-2.851,-2.8534,-2.8847,-2.946,-3.0266,-3.0742,-3.1103,-3.1404,-3.1633,-3.1705,-3.1705,0.0,-1.1605,-1.1812,-1.2485,-1.3105,-1.3525,-1.3598,-1.4065,-1.4239,0.0,-1.3714,-1.3498,-1.2891,-1.3362,-1.3328,-1.2348,-1.1494,-1.1068,-1.1169,-1.032,-0.9785,-0.9723,-0.9723,-0.9684,-0.9631,-0.9617,-0.9578,0.0,0.0,0.0,0.0,0.0,0.0,-1.0183,-0.9714,-1.063,-1.2463,-1.1632,0.0,-1.5301,-1.776,-1.8939,0.0,0.0,-2.3445,-2.3268,-2.4194,-2.4266,-2.389,-2.33,-2.1446,0.0,0.0,-1.5876,-1.5133,-1.3595,-1.4165,0.0,-1.4028,-1.4481,0.0,0.0,0.0,0.0,-1.7352,-1.7195,0.0,0.0,0.0,0.0,0.0,0.0,0.0,0.0,0.0,0.0,0.0,0.0,0.0,0.0,0.0,0.0,0.0,-2.837,-2.8354,-2.8414,-2.8474,-2.851,-2.851,-2.851,-2.851,-2.851,-2.851,-2.851,-2.851,-2.851,-2.851,-2.851,-2.851,-2.851,-2.851,-2.851,-2.851,-2.851,-2.851,-2.851,-2.851,-2.851,-2.8823,-2.9388,-3.0338,-3.0778,-3.0898,-3.1428,-3.1621,-3.1633,-1.2093,-1.2209,-1.2586,-1.3732,-1.405,-1.4311,-1.4848,-1.5022,-1.524,-1.5603,-1.5647,-1.5458,-1.4963,-1.4604,-1.4264,-1.3878,-1.2965,-1.2198,-1.1701,-1.0941,-1.0316,-0.9879,-0.9802,-0.9775,-0.9762,-0.971,-0.9645,-0.9578,0.0,0.0,0.0,0.0,0.0,-0.9654,-0.9558,-1.0207,-1.1463,-1.2102,0.0,-1.572,-1.6679,0.0,-2.1043,-2.2101,-2.322,-2.4242,-2.4412,-2.4735,-2.4867,-2.3962,-2.2734,-2.1272,0.0,0.0,-1.7917,-1.6295,-1.6355,-1.6703,-1.5634,-1.6114,-1.6667,-1.5576,0.0,0.0,-1.5792,-1.6139,0.0,0.0,0.0,0.0,0.0,0.0,0.0,0.0,0.0,0.0,0.0,0.0,0.0,0.0,0.0,0.0,0.0,-2.7439,-2.7557,-2.7849,-2.827,-2.851,-2.851,-2.851,-2.851,-2.851,-2.851,-2.851,-2.851,-2.851,-2.851,-2.851,-2.851,-2.851,-2.851,-2.851,-2.851,-2.851,-2.851,-2.851,-2.851,-2.851,-2.8823,-2.9316,-2.9532,-2.9869,-3.0302,-3.0874,-3.1079,-3.1139,-1.234,-1.2671,-1.3295,-1.4587,-1.5051,-1.5472,-1.6139,-1.6532,-1.6849,-1.7171,-1.7461,-1.7157,-1.5886,-1.5964,-1.5837,-1.5192,-1.4051,-1.3282,-1.3116,-1.1587,-1.0582,-1.0306,-1.0004,-0.9828,-0.9802,-0.9763,-0.9788,-0.9854,0.0,0.0,0.0,0.0,0.0,-1.0434,-1.0057,-1.0813,-1.2358,0.0,-1.3744,-1.5564,-1.7423,0.0,-2.1909,-2.2955,-2.4001,-2.4915,-2.4915,-2.5083,-2.5107,-2.3821,-2.3047,0.0,0.0,-2.0205,-1.9877,0.0,-1.8181,-1.8301,-1.6955,-1.6991,-1.7267,-1.6727,0.0,0.0,0.0,0.0,0.0,0.0,0.0,0.0,0.0,0.0,0.0,0.0,0.0,0.0,0.0,0.0,0.0,0.0,0.0,0.0,0.0,-2.6956,-2.7115,-2.7588,-2.7649,-2.7876,-2.8246,-2.8153,-2.8234,-2.8498,-2.851,-2.851,-2.851,-2.851,-2.851,-2.851,-2.851,-2.851,-2.851,-2.851,-2.851,-2.851,-2.851,-2.851,-2.851,-2.851,-2.8667,-2.8931,-2.9196,-2.946,-2.9761,-3.029,-3.0694,-3.0958,-1.2412,-1.2945,-1.3801,-1.5081,-1.5922,-1.6634,-1.7301,-1.7954,-1.8433,-1.855,-1.9087,-1.8836,-1.7202,-1.7758,-1.7983,-1.7328,-1.564,-1.4732,-1.4992,-1.2694,-1.1264,-1.1148,-1.0489,-1.0172,-1.0259,-1.0071,-1.0008,-1.0084,0.0,0.0,0.0,-0.9888,-1.0383,-1.1375,0.0,0.0,0.0,0.0,0.0,-1.622,0.0,-2.0583,-2.1632,-2.3508,-2.4494,-2.4903,-2.5239,-2.5347,-2.513,-2.3803,-2.3312,-2.2991,-2.1422,-2.1361,0.0,0.0,0.0,0.0,0.0,0.0,0.0,0.0,0.0,-1.6919,0.0,0.0,0.0,-1.6859,0.0,0.0,0.0,0.0,0.0,0.0,0.0,0.0,0.0,0.0,0.0,0.0,0.0,0.0,0.0,-2.6095,-2.6329,-2.6931,-2.6651,-2.6817,-2.7585,-2.7673,-2.7921,-2.8342,-2.8462,-2.851,-2.851,-2.851,-2.851,-2.851,-2.851,-2.851,-2.851,-2.851,-2.851,-2.851,-2.851,-2.851,-2.851,-2.851,-2.851,-2.8546,-2.8979,-2.9148,-2.9208,-2.9737,-3.0206,-3.0633,-1.2412,-1.2945,-1.3801,-1.5081,-1.6284,-1.7316,-1.7966,-1.8608,-1.9217,-1.9812,-2.0407,-2.0765,0.0,0.0,0.0,0.0,0.0,0.0,-1.7236,0.0,-1.3293,-1.2764,-1.1603,-1.1264,-1.1914,-1.1055,-1.0411,-1.0008,-1.0211,0.0,0.0,-1.0368,-1.087,-1.1428,-1.181,0.0,0.0,0.0,-1.6244,0.0,-2.0446,-1.9922,0.0,-2.2005,-2.3228,-2.3457,-2.5004,-2.5571,-2.5473,0.0,-2.4486,-2.4073,0.0,-2.2722,-2.3119,0.0,0.0,0.0,0.0,0.0,0.0,0.0,-1.9492,0.0,0.0,0.0,-1.6907,-1.6128,0.0,0.0,0.0,0.0,0.0,0.0,0.0,0.0,0.0,0.0,0.0,0.0,0.0,0.0,0.0,0.0,-2.4144,-2.5044,-2.5026,-2.5345,-2.6262,-2.72,-2.7753,-2.7774,-2.827,-2.851,-2.851,-2.851,-2.851,-2.851,-2.851,-2.851,-2.851,-2.851,-2.851,-2.851,-2.851,-2.851,-2.851,-2.851,-2.851,-2.8522,-2.857,-2.8595,-2.8667,-2.9196,-2.9424,-2.9544,-1.2412,-1.3223,-1.421,-1.5138,-1.6023,-1.6982,-1.8042,-1.9667,-2.0611,-2.0161,-2.1257,0.0,0.0,0.0,0.0,0.0,0.0,-1.9542,0.0,0.0,-1.5016,-1.436,-1.3521,-1.2872,-1.2453,-1.2021,-1.1422,-1.0643,-1.0595,0.0,0.0,0.0,-1.1669,-1.3085,-1.3111,0.0,-1.6822,0.0,0.0,0.0,0.0,0.0,0.0,-2.3103,-2.4621,-2.4592,-2.534,-2.5535,-2.5332,0.0,-2.422,0.0,0.0,0.0,0.0,0.0,0.0,0.0,0.0,0.0,0.0,0.0,0.0,0.0,-1.7255,0.0,-1.6638,0.0,0.0,0.0,0.0,0.0,0.0,0.0,0.0,0.0,0.0,0.0,0.0,0.0,0.0,0.0,0.0,0.0,0.0,0.0,0.0,-2.398,-2.5538,-2.6058,-2.678,-2.7823,-2.7972,-2.821,-2.851,-2.851,-2.851,-2.851,-2.851,-2.851,-2.851,-2.851,-2.851,-2.851,-2.851,-2.851,-2.851,-2.851,-2.851,-2.851,-2.851,-2.851,-2.8534,-2.8763,-2.9039,-2.9328,-1.2671,-1.3543,-1.4457,-1.4935,-1.582,-1.6982,-1.8491,-2.0291,-2.1264,-2.0698,0.0,0.0,-2.3222,-2.3529,0.0,0.0,-2.3555,-2.2246,0.0,0.0,-1.7218,-1.6742,-1.551,-1.4481,-1.3774,-1.3303,-1.2564,-1.1566,-1.1443,-1.1443,0.0,0.0,-1.257,-1.4148,0.0,-1.6089,-1.8469,0.0,0.0,-1.9462,-1.991,-2.0397,-2.1169,-2.4119,-2.547,-2.5758,-2.5758,-2.5676,-2.5425,-2.4649,-2.4277,0.0,-2.4095,0.0,0.0,0.0,0.0,0.0,-2.1608,0.0,0.0,0.0,0.0,0.0,0.0,0.0,0.0,0.0,0.0,0.0,0.0,0.0,0.0,0.0,0.0,0.0,0.0,0.0,0.0,0.0,0.0,0.0,0.0,0.0,0.0,0.0,0.0,0.0,-2.46,-2.4941,-2.5901,-2.7619,-2.7722,-2.7981,-2.8498,-2.851,-2.851,-2.851,-2.851,-2.851,-2.851,-2.851,-2.851,-2.851,-2.851,-2.851,-2.851,-2.851,-2.851,-2.851,-2.851,-2.851,-2.851,-2.851,-2.8751,-2.9088,-1.3378,-1.3875,0.0,0.0,-1.5892,-1.7824,-1.9754,-2.0117,-2.0596,0.0,0.0,0.0,0.0,0.0,0.0,0.0,0.0,-2.5521,-2.5157,0.0,-2.0344,-2.033,-1.7325,-1.5985,0.0,-1.509,-1.3755,-1.276,-1.3004,-1.2991,0.0,0.0,0.0,0.0,-1.5958,-1.7321,-1.8123,-1.963,-2.1557,-2.3592,-2.3617,-2.4686,-2.6063,0.0,-2.4653,-2.6166,-2.6166,0.0,0.0,-2.5551,-2.5231,0.0,0.0,0.0,0.0,0.0,0.0,0.0,0.0,0.0,0.0,-1.9848,0.0,0.0,0.0,0.0,-1.7845,0.0,0.0,0.0,0.0,0.0,0.0,0.0,0.0,0.0,0.0,0.0,0.0,0.0,0.0,0.0,0.0,0.0,0.0,0.0,0.0,0.0,-2.3125,-2.4056,-2.5288,-2.6873,-2.7414,-2.7981,-2.8498,-2.851,-2.851,-2.851,-2.851,-2.851,-2.851,-2.851,-2.851,-2.851,-2.851,-2.851,-2.851,-2.851,-2.851,-2.851,-2.851,-2.851,-2.851,-2.851,-2.8522,-2.8534,0.0,0.0,0.0,0.0,0.0,-1.72,-1.9145,-2.0866,0.0,0.0,0.0,0.0,0.0,-2.8985,-2.9479,0.0,0.0,-2.7914,-2.6953,-2.4274,0.0,0.0,0.0,-1.8936,0.0,0.0,-1.6091,-1.4457,-1.4097,-1.4112,0.0,0.0,0.0,0.0,0.0,-1.8099,0.0,0.0,0.0,0.0,0.0,-2.5377,-2.6436,0.0,0.0,-2.6213,-2.6213,-2.6097,0.0,-2.5943,-2.5577,-2.517,-2.5456,-2.5102,-2.4595,-2.4779,-2.4706,0.0,0.0,0.0,-2.4287,-2.1587,0.0,0.0,0.0,0.0,0.0,0.0,0.0,0.0,0.0,0.0,0.0,0.0,0.0,0.0,0.0,0.0,0.0,0.0,0.0,0.0,0.0,0.0,0.0,0.0,0.0,0.0,0.0,-2.3535,-2.475,-2.6009,-2.678,-2.7414,-2.7981,-2.833,-2.851,-2.851,-2.851,-2.851,-2.851,-2.851,-2.851,-2.851,-2.851,-2.851,-2.851,-2.851,-2.851,-2.851,-2.851,-2.851,-2.851,-2.851,-2.851,-2.851,-1.598,0.0,0.0,0.0,0.0,0.0,-1.987,0.0,0.0,0.0,-2.6663,0.0,-3.038,0.0,-3.093,0.0,-3.1103,-2.9885,-2.8187,-2.6518,0.0,-2.4626,-2.3165,0.0,0.0,0.0,0.0,-1.6646,-1.5994,-1.5792,0.0,0.0,0.0,0.0,0.0,0.0,-2.097,0.0,-2.3069,0.0,0.0,-2.6116,0.0,0.0,-2.6624,-2.6305,0.0,-2.6223,-2.6119,-2.6258,-2.5987,-2.5695,-2.6158,-2.5738,-2.514,-2.5487,-2.5339,-2.5029,-2.4752,-2.505,0.0,-2.2725,-2.1984,0.0,-1.893,0.0,0.0,0.0,0.0,0.0,0.0,0.0,0.0,0.0,0.0,0.0,0.0,0.0,0.0,0.0,0.0,0.0,0.0,0.0,-1.7099,-1.7852,0.0,0.0,0.0,0.0,-2.4077,-2.5452,-2.6407,-2.715,-2.7678,-2.8246,-2.851,-2.851,-2.851,-2.851,-2.851,-2.851,-2.851,-2.851,-2.851,-2.851,-2.851,-2.851,-2.851,-2.851,-2.851,-2.851,-2.851,-2.851,-2.851,-2.851,0.0,0.0,0.0,0.0,-1.8883,0.0,0.0,0.0,-2.605,0.0,-2.8055,-2.9348,-3.0656,-3.0786,-3.1264,-3.2498,-3.2553,-3.1526,-2.9101,-2.8854,0.0,0.0,-2.5411,-2.4704,-2.4007,0.0,0.0,0.0,-1.8535,-1.7864,-1.7243,0.0,0.0,0.0,-1.836,0.0,-2.0875,-2.4161,-2.5661,-2.5884,-2.7125,-2.7196,-2.6624,-2.7323,-2.7167,-2.6606,-2.6533,-2.6499,-2.6499,-2.6499,-2.6499,-2.6499,-2.6499,-2.6512,-2.6524,-2.6499,-2.6537,-2.6402,-2.5644,-2.5498,-2.5104,-2.3282,0.0,0.0,0.0,0.0,-2.1703,0.0,0.0,0.0,0.0,0.0,0.0,0.0,0.0,0.0,0.0,0.0,0.0,0.0,0.0,0.0,0.0,0.0,-1.6145,-1.7234,-1.7275,0.0,0.0,0.0,-2.326,-2.5131,-2.6261,-2.7114,-2.7681,-2.821,-2.8486,-2.851,-2.851,-2.851,-2.851,-2.851,-2.851,-2.851,-2.851,-2.851,-2.851,-2.851,-2.851,-2.851,-2.851,-2.851,-2.851,-2.851,-2.851,-2.851,-1.7954,-1.9072,-2.0175,0.0,-1.9986,-2.0262,0.0,0.0,0.0,0.0,-3.0001,-3.1467,-3.3238,-3.3427,-3.3572,-3.3858,-3.3499,0.0,0.0,0.0,0.0,-2.9392,-2.7839,-2.6474,-2.5353,-2.3577,0.0,-2.0509,0.0,0.0,-1.794,0.0,0.0,0.0,0.0,0.0,-2.1731,-2.3069,-2.497,-2.7238,-2.8538,-2.8325,0.0,0.0,-2.8551,-2.7799,-2.6831,-2.6499,-2.6499,-2.6499,-2.6499,-2.6499,-2.6499,-2.6776,-2.7027,-2.6612,-2.7077,-2.7469,-2.6502,-2.6806,-2.6997,-2.5286,-2.4541,-2.3891,0.0,0.0,0.0,0.0,0.0,0.0,0.0,0.0,0.0,0.0,0.0,0.0,0.0,0.0,0.0,0.0,0.0,0.0,0.0,-1.5563,-1.5819,-1.6107,-1.7162,0.0,0.0,0.0,0.0,-2.3696,-2.5419,-2.6574,-2.709,-2.7618,-2.8126,-2.851,-2.851,-2.851,-2.851,-2.851,-2.851,-2.851,-2.851,-2.851,-2.851,-2.851,-2.851,-2.851,-2.851,-2.851,-2.851,-2.851,-2.851,-2.851,-1.9377,0.0,0.0,-2.3122,0.0,0.0,-2.4859,0.0,0.0,-2.9726,-3.1163,0.0,-3.347,-3.408,-3.4414,-3.4414,-3.4095,0.0,-3.2672,0.0,0.0,-3.0641,-2.9813,-2.8913,-2.7924,-2.5734,0.0,-2.2265,0.0,0.0,-1.8201,0.0,0.0,0.0,0.0,-1.9708,0.0,-2.3708,-2.5897,-2.8167,-2.9477,0.0,0.0,-2.9857,-2.9909,-2.9177,-2.8462,-2.798,-2.7716,-2.7716,-2.7484,-2.7216,-2.7216,-2.7394,-2.7582,-2.7268,-2.762,-2.7971,-2.7344,-2.7632,-2.7883,-2.6929,-2.6477,-2.5866,-2.4519,-2.4469,-2.4456,0.0,0.0,0.0,0.0,0.0,0.0,0.0,0.0,0.0,0.0,0.0,0.0,0.0,0.0,0.0,-1.5311,-1.5517,-1.5593,-1.5374,-1.6582,0.0,0.0,0.0,0.0,-2.279,-2.4719,-2.6129,-2.6885,-2.7414,-2.7993,-2.851,-2.851,-2.851,-2.851,-2.851,-2.851,-2.851,-2.851,-2.851,-2.851,-2.851,-2.851,-2.851,-2.851,-2.851,-2.851,-2.851,-2.851,-2.851,0.0,0.0,0.0,0.0,0.0,0.0,0.0,-2.8244,0.0,-3.0699,0.0,-3.2759,-3.2759,-3.3761,-3.4414,-3.4414,0.0,-3.367,-3.1973,-3.2962,-3.2835,-3.1062,-3.1482,-3.1395,-3.0627,-2.8186,-2.5923,0.0,0.0,-1.9406,-1.8071,0.0,0.0,0.0,0.0,0.0,0.0,-2.5275,-2.7623,-2.8963,-3.0136,-3.029,-2.9918,-3.125,-3.1294,-3.0672,-3.0856,-3.0273,-2.9434,-2.9434,-2.8915,-2.8255,-2.8255,-2.822,-2.8197,-2.8134,-2.821,-2.8298,-2.8147,-2.821,-2.8298,-2.8147,-2.816,-2.7795,-2.6189,-2.5812,-2.5674,-2.5146,-2.4224,-2.4117,0.0,0.0,0.0,0.0,0.0,0.0,0.0,0.0,0.0,0.0,0.0,0.0,0.0,-1.5731,-1.5512,-1.5035,-1.5848,0.0,0.0,0.0,0.0,-2.2317,-2.414,-2.5697,-2.6885,0.0,-2.7921,-2.851,-2.851,-2.851,-2.851,-2.851,-2.851,-2.851,-2.851,-2.851,-2.851,-2.851,-2.851,-2.851,-2.851,-2.851,-2.851,-2.851,-2.851,-2.851,0.0,0.0,0.0,0.0,0.0,-2.8593,-2.9755,-3.0118,-3.0728,-3.2004,-3.3296,-3.408,-3.408,-3.4283,-3.4414,-3.4414,-3.4414,0.0,0.0,0.0,0.0,-3.3038,-3.3097,-3.2356,-3.0641,-2.8594,-2.6358,0.0,-2.1351,-1.9174,-1.7357,0.0,0.0,0.0,0.0,0.0,-2.3572,-2.6359,0.0,-3.0316,-3.1022,-3.1247,-3.1298,-3.2643,-3.2692,-3.2182,-3.3311,-3.2204,-3.0207,-3.0207,-2.9701,-2.9093,-2.9093,-2.8948,-2.8662,-2.8235,-2.8762,-2.9302,-2.836,-2.8787,-2.9277,-2.8335,-2.8411,-2.8461,-2.7256,-2.6992,-2.6864,-2.6323,-2.6047,-2.5757,-2.5209,0.0,0.0,0.0,0.0,0.0,0.0,0.0,0.0,0.0,0.0,0.0,0.0,0.0,-1.5655,0.0,0.0,0.0,0.0,0.0,0.0,0.0,-2.3539,0.0,0.0,0.0,-2.7522,-2.851,-2.851,-2.851,-2.851,-2.851,-2.851,-2.851,-2.851,-2.851,-2.851,-2.851,-2.851,-2.851,-2.851,-2.851,-2.851,-2.851,-2.851,-2.851,0.0,0.0,0.0,0.0,0.0,0.0,0.0,-3.215,0.0,-3.2527,-3.3017,-3.3394,-3.3394,-3.3989,-3.4414,-3.4414,-3.4414,-3.4414,-3.4414,-3.4414,-3.4283,-3.3978,-3.3678,0.0,-3.2123,-2.9871,-2.7594,-2.5386,-2.2497,-2.0088,-1.8187,-1.7882,0.0,-1.7272,0.0,-2.1409,0.0,0.0,0.0,-3.0714,-3.2004,-3.2555,-3.2624,-3.3603,-3.3734,-3.3513,-3.4163,-3.3589,-3.239,-3.2,-3.1077,-3.0134,-3.0134,-2.9802,-2.9327,-2.9063,-2.9365,-2.9679,-2.9126,-2.9377,-2.9666,-2.9114,-2.9176,-2.9089,-2.7959,-2.7708,-2.7469,-2.6663,-2.6499,-2.616,-2.5021,-2.3647,0.0,0.0,0.0,0.0,0.0,0.0,0.0,0.0,0.0,0.0,0.0,0.0,0.0,0.0,0.0,0.0,0.0,0.0,0.0,0.0,0.0,0.0,0.0,0.0,0.0,-2.851,-2.851,-2.851,-2.851,-2.851,-2.851,-2.851,-2.851,-2.851,-2.851,-2.851,-2.851,-2.851,-2.851,-2.851,-2.851,-2.851,-2.851,-2.851,0.0,-2.884,0.0,0.0,-3.0887,0.0,-3.2408,-3.3568,-3.4051,-3.305,-3.2887,-3.2887,-3.2887,-3.3819,-3.4414,-3.4414,-3.4414,-3.4414,-3.4414,-3.4414,-3.4414,-3.4414,-3.3935,-3.3634,-3.3503,-3.1351,-2.9174,0.0,-2.4036,0.0,0.0,-1.868,-1.8259,-1.8114,0.0,0.0,0.0,0.0,-2.9798,-3.1353,-3.2879,-3.359,-3.375,-3.4225,-3.4414,-3.4414,-3.4414,-3.4414,-3.4298,-3.3673,-3.2528,-3.1402,-3.1402,-3.0884,-3.0292,-3.0292,-3.0292,-3.0254,-3.0075,-3.0037,-2.9998,-2.983,-2.9792,-2.9528,-2.8511,-2.8185,-2.7821,-2.6876,-2.6575,-2.616,-2.5021,-2.4249,0.0,0.0,0.0,0.0,0.0,0.0,0.0,0.0,0.0,0.0,0.0,0.0,0.0,0.0,0.0,0.0,0.0,0.0,0.0,0.0,0.0,-2.4025,-2.6525,0.0,-2.7426,-2.851,-2.851,-2.851,-2.851,-2.851,-2.851,-2.851,-2.851,-2.851,-2.851,-2.851,-2.851,-2.851,-2.851,-2.851,-2.851,-2.851,-2.851,-2.851,0.0,0.0,0.0,0.0,0.0,0.0,-3.2481,-3.3568,-3.437,-3.4254,-3.424,-3.424,-3.424,-3.4341,-3.4414,-3.4414,-3.4414,-3.4414,-3.4414,-3.4414,-3.4414,-3.4414,-3.4356,-3.4051,-3.3518,-3.2658,-3.0697,0.0,0.0,-2.2983,0.0,-1.9333,-1.9595,-2.0727,0.0,0.0,0.0,-2.8913,-3.0945,-3.3242,-3.3431,-3.3819,-3.4327,-3.4385,-3.4414,-3.4414,-3.4414,-3.4414,-3.438,-3.4298,-3.3707,-3.2967,-3.2967,-3.247,-3.1869,-3.1869,-3.1869,-3.1723,-3.1007,-3.0782,-3.0658,-2.9972,-2.9792,-2.9628,-2.895,-2.8461,-2.7934,-2.7331,-2.6839,-2.616,-2.5021,-2.5548,-2.5506,0.0,0.0,0.0,0.0,0.0,0.0,0.0,0.0,0.0,0.0,0.0,0.0,0.0,0.0,0.0,0.0,0.0,0.0,-2.1002,0.0,-2.3292,-2.5444,-2.6405,-2.7426,-2.851,-2.851,-2.851,-2.851,-2.851,-2.851,-2.851,-2.851,-2.851,-2.851,-2.851,-2.851,-2.851,-2.851,-2.851,-2.851,-2.851,-2.851,-2.851,0.0,0.0,0.0,0.0,0.0,0.0,0.0,-3.408,-3.4414,-3.4414,-3.4414,-3.4414,-3.4414,-3.4414,-3.4414,-3.4414,-3.4414,-3.4414,-3.4414,-3.4414,-3.4414,-3.4414,-3.4414,-3.4298,-3.4051,-3.3412,-3.1888,0.0,0.0,0.0,0.0,-2.228,-2.2875,0.0,0.0,-2.7403,-2.9523,-3.0814,-3.2179,-3.3532,-3.3877,-3.4182,-3.4414,-3.4414,-3.4414,-3.4414,-3.4414,-3.4414,-3.4414,-3.4414,-3.3859,-3.3178,-3.3178,-3.2684,-3.211,-3.211,-3.211,-3.2037,-3.1709,-3.1636,-3.1563,-3.1257,-3.1196,-3.1037,-3.0481,-2.9864,-2.925,-2.8739,-2.8112,-2.7439,-2.6568,-2.6245,-2.5865,0.0,0.0,0.0,0.0,0.0,0.0,0.0,0.0,0.0,0.0,0.0,0.0,0.0,0.0,-1.5169,-1.672,0.0,0.0,-2.0336,0.0,-2.3606,-2.5288,-2.6357,-2.7426,-2.851,-2.851,-2.851,-2.851,-2.851,-2.851,-2.851,-2.851,-2.851,-2.851,-2.851,-2.851,-2.851,-2.851,-2.851,-2.851,-2.851,-2.851,-2.851,-3.3994,0.0,-3.3183,0.0,-3.355,-3.3369,-3.4269,-3.4414,-3.4414,-3.4414,-3.4414,-3.4414,-3.4414,-3.4414,-3.4414,-3.4414,-3.4414,-3.4414,-3.4414,-3.4414,-3.4414,-3.4414,-3.4414,0.0,-3.4414,-3.3978,-3.289,-3.1148,-2.961,0.0,0.0,-2.5328,-2.5952,0.0,-2.8274,-2.9523,-3.1221,-3.2324,-3.3166,-3.3823,-3.424,-3.4414,-3.4414,-3.4414,-3.4414,-3.4414,-3.4414,-3.4414,-3.4414,-3.4414,-3.4011,-3.3555,-3.3555,-3.3206,-3.2769,-3.2769,-3.2769,-3.2733,-3.2484,-3.2434,-3.2362,-3.2146,-3.211,-3.2001,-3.1616,-3.0901,-3.0093,-2.9352,-2.8836,-2.8363,-2.7887,-2.7128,-2.6546,-2.6346,0.0,0.0,0.0,0.0,0.0,0.0,-2.0028,-1.8537,-1.7503,0.0,0.0,0.0,0.0,-1.5459,-1.6727,0.0,0.0,0.0,0.0,0.0,0.0,-2.6357,-2.7426,-2.851,-2.851,-2.851,-2.851,-2.851,-2.851,-2.851,-2.851,-2.851,-2.851,-2.851,-2.851,-2.851,-2.851,-2.851,-2.851,-2.851,-2.851,-2.851,-3.6276,-3.59,-3.5484,-3.5219,-3.4739,-3.4385,-3.4414,-3.4414,-3.4414,-3.4414,-3.4414,-3.4414,-3.4414,-3.4414,-3.4414,-3.4414,-3.4414,-3.4414,-3.4414,-3.4414,-3.4414,0.0,0.0,-3.4414,-3.4414,-3.4399,-3.3775,-3.2466,0.0,0.0,-2.8651,-2.7984,-2.8333,-2.9595,-3.0263,-3.1264,-3.2527,-3.3213,-3.3819,-3.4399,-3.4414,-3.4414,-3.4414,-3.4414,-3.4414,-3.4414,-3.4414,-3.4414,-3.4414,-3.4414,-3.438,-3.438,-3.438,-3.438,-3.438,-3.438,-3.438,-3.4196,-3.3402,-3.3178,-3.3003,-3.229,-3.211,-3.211,-3.211,-3.1151,-2.9971,-2.875,-2.8505,-2.8492,-2.8492,-2.8478,-2.7895,-2.6174,0.0,0.0,0.0,0.0,0.0,0.0,-1.9936,-1.8425,-1.7488,0.0,0.0,0.0,0.0,-1.7773,-1.7786,0.0,0.0,-2.0738,-2.2242,0.0,-2.5288,-2.6357,-2.7426,-2.851,-2.851,-2.851,-2.851,-2.851,-2.851,-2.851,-2.851,-2.851,-2.851,-2.851,-2.851,-2.851,-2.851,-2.851,-2.851,-2.851,-2.851,-2.851,-3.7068,-3.6844,-3.66,-3.6508,-3.6244,-3.5962,-3.5802,-3.5449,-3.5139,-3.4971,-3.4635,-3.4414,-3.4414,-3.4414,-3.4414,0.0,-3.4414,-3.4414,0.0,-3.4414,-3.4414,-3.4414,-3.4414,-3.4414,-3.4414,-3.4414,-3.4008,-3.3166,0.0,0.0,0.0,-3.0378,-3.1003,-3.2251,-3.2486,-3.3021,-3.3819,-3.4022,-3.4225,-3.4414,-3.4414,-3.4414,-3.4414,-3.4414,-3.4414,-3.4414,-3.4414,-3.4414,-3.4414,-3.4414,-3.4414,-3.4414,-3.4414,-3.4414,-3.4414,-3.4414,-3.4414,-3.4332,-3.4079,-3.4011,-3.3962,-3.3722,-3.3687,-3.3687,-3.3687,-3.2686,-3.1549,-3.0728,-3.0216,-2.9794,-2.9314,-2.9251,-2.8761,-2.7299,-2.7187,0.0,0.0,0.0,0.0,0.0,-2.1773,-2.0757,0.0,-1.909,0.0,0.0,0.0,0.0,0.0,0.0,0.0,0.0,-2.3151,0.0,-2.53,-2.6743,-2.7786,-2.851,-2.851,-2.851,-2.851,-2.851,-2.851,-2.851,-2.851,-2.851,-2.851,-2.851,-2.851,-2.851,-2.851,-2.851,-2.851,-2.851,-2.851,-2.851,-3.8306,-3.8075,-3.7902,-3.8066,-3.7731,-3.7312,-3.6947,-3.6494,-3.6048,-3.5676,-3.5112,-3.4777,-3.4777,-3.4559,0.0,-3.4414,-3.4414,-3.4414,-3.4414,-3.4414,-3.4414,-3.4414,-3.4414,-3.4414,-3.4414,-3.4414,0.0,-3.3819,-3.3427,-3.2988,-3.2582,-3.2582,-3.305,-3.3819,-3.3819,-3.4051,-3.4414,-3.4414,-3.4414,-3.4414,-3.4414,-3.4414,-3.4414,-3.4414,-3.4414,-3.4414,-3.4414,-3.4414,-3.4414,-3.4414,-3.4414,-3.4414,-3.4414,-3.4414,-3.4414,-3.4414,-3.4414,-3.4414,-3.4414,-3.4414,-3.4414,-3.4414,-3.4414,-3.4356,-3.4109,-3.3441,-3.2614,-3.1683,-3.1206,-3.0722,-3.0111,-2.9976,-2.9549,-2.8224,-2.8011,-2.7511,-2.6002,0.0,0.0,0.0,0.0,0.0,0.0,-2.1295,-2.1172,0.0,0.0,0.0,0.0,0.0,0.0,-2.1012,-2.3929,0.0,-2.5913,-2.7078,-2.7993,-2.851,-2.851,-2.851,-2.851,-2.851,-2.851,-2.851,-2.851,-2.851,-2.851,-2.851,-2.851,-2.851,-2.851,-2.851,-2.851,-2.851,-2.851,-2.851,-3.9921,-3.9601,-3.9401,0.0,-3.9251,0.0,-3.8004,-3.7594,-3.7109,-3.6514,-3.5863,-3.5465,-3.5465,-3.4907,-3.4545,-3.4545,0.0,0.0,0.0,-3.4414,-3.4414,-3.4414,-3.4414,-3.4414,-3.4414,-3.4414,-3.4414,-3.4414,-3.4414,-3.4414,-3.4414,-3.4414,-3.4414,-3.4414,-3.4414,-3.4414,-3.4414,-3.4414,-3.4414,-3.4414,-3.4414,-3.4414,-3.4414,-3.4414,-3.4414,-3.4414,-3.4414,-3.4414,-3.4414,-3.4414,-3.4414,-3.4414,-3.4414,-3.4414,-3.4414,-3.4414,-3.4414,-3.4414,-3.4414,-3.4414,-3.4414,-3.4414,-3.4414,-3.4254,-3.3707,-3.3532,-3.3155,-3.1903,-3.1553,-3.1337,-3.0786,-3.0641,-3.0191,-2.8912,-2.8665,-2.794,-2.5995,0.0,0.0,0.0,0.0,0.0,0.0,-2.3367,-2.4038,0.0,0.0,0.0,0.0,0.0,-2.1728,-2.3071,-2.4602,-2.5925,-2.6946,-2.7474,-2.8029,-2.851,-2.851,-2.851,-2.851,-2.851,-2.851,-2.851,-2.851,-2.851,-2.851,-2.851,-2.851,-2.851,-2.851,-2.851,-2.851,-2.851,-2.851,-2.851,0.0,0.0,-4.0893,-4.0988,-4.086,-4.0609,-4.0268,-3.9235,-3.8367,-3.7937,-3.6828,-3.6083,-3.6083,-3.5952,-3.5865,-3.5865,-3.4965,-3.4414,-3.4414,-3.4414,-3.4414,-3.4414,-3.4414,-3.4414,-3.4414,-3.4414,-3.4414,-3.4414,-3.4414,-3.4414,-3.4414,-3.4414,-3.4414,-3.4414,-3.4414,-3.4414,-3.4414,-3.4414,-3.4414,-3.4414,-3.4414,-3.4414,-3.4414,-3.4414,-3.4414,-3.4414,-3.4414,-3.4414,-3.4414,-3.4414,-3.4414,-3.4414,-3.4414,-3.4414,-3.4414,-3.4414,-3.4414,-3.4414,-3.4414,-3.4414,-3.4414,-3.4414,-3.4414,-3.437,-3.4225,-3.3819,-3.3416,-3.3097,-3.2208,-3.1451,-3.1322,-3.0901,-3.0191,-2.8912,-2.8274,-2.7246,-2.5303,-2.5342,0.0,0.0,-2.5676,-2.6298,-2.5638,-2.5925,-2.5725,0.0,0.0,0.0,0.0,-2.4335,-2.4353,-2.4145,-2.5673,-2.6825,-2.7486,-2.8026,-2.8378,-2.851,-2.851,-2.851,-2.851,-2.851,-2.851,-2.851,-2.851,-2.851,-2.851,-2.851,-2.851,-2.851,-2.851,-2.851,-2.851,-2.851,-2.851,-2.851,-4.1827,-4.1893,-4.1993,-4.234,-4.2274,-4.2052,-4.1664,-4.0816,-4.0017,-3.939,-3.8181,-3.7299,-3.7151,-3.6618,-3.6301,-3.6301,-3.5677,-3.5154,-3.4864,-3.4849,-3.4719,-3.4428,-3.4414,-3.4414,-3.4414,-3.4414,-3.4414,-3.4414,-3.4414,-3.4414,-3.4414,-3.4414,-3.4414,-3.4414,-3.4414,-3.4414,-3.4414,-3.4414,-3.4414,-3.4414,-3.4414,-3.4414,-3.4414,-3.4414,-3.4414,-3.4414,-3.4414,-3.4414,-3.4414,-3.4414,-3.4414,-3.4414,-3.4414,-3.4414,-3.4414,-3.4414,-3.4414,-3.4414,-3.4414,-3.4414,-3.4414,-3.4414,-3.4414,-3.4414,-3.4414,-3.4153,-3.3819,-3.3561,-3.2904,-3.2237,-3.1596,-3.1003,-3.0089,-2.8492,-2.7927,-2.7028,-2.5061,-2.5647,0.0,-2.5763,-2.6883,-2.7681,-2.7665,-2.7923,-2.7697,-2.6753,-2.6572,0.0,-2.6311,-2.6524,-2.6226,-2.5306,-2.6565,-2.739,-2.7678,-2.8246,-2.851,-2.851,-2.851,-2.851,-2.851,-2.851,-2.851,-2.851,-2.851,-2.851,-2.851,-2.851,-2.851,-2.851,-2.851,-2.851,-2.855,-2.8816,-2.8736,-2.855,-4.2539,-4.2655,-4.2853,-4.3482,-4.3355,-4.3005,-4.2585,-4.2142,-4.1575,-4.0792,-3.9669,-3.8836,-3.8552,-3.7547,-3.6898,-3.6791,-3.677,-3.6393,-3.5581,-3.5552,-3.529,-3.4719,-3.4603,-3.4559,-3.4559,-3.4457,-3.4414,-3.4414,-3.4414,-3.4414,-3.4414,-3.4414,-3.4414,-3.4414,-3.4414,-3.4414,-3.4414,-3.4414,-3.4414,-3.4414,-3.4414,-3.4414,-3.4414,-3.4414,-3.4414,-3.4414,-3.4414,-3.4414,-3.4414,-3.4414,-3.4414,-3.4414,-3.4414,-3.4414,-3.4414,-3.4414,-3.4414,-3.4414,-3.4414,-3.4414,-3.4414,-3.4414,-3.4414,-3.4414,-3.4414,-3.4414,-3.4254,-3.375,-3.3561,-3.3126,-3.1888,-3.1148,-3.0089,-2.8187,-2.784,-2.7159,-2.523,0.0,-2.7041,-2.6939,-2.765,-2.8376,-2.8941,-2.945,-2.9595,-2.9131,-2.908,-2.9064,-2.9118,-2.8588,-2.7844,-2.6851,-2.7483,-2.783,-2.7798,-2.8282,-2.851,-2.851,-2.851,-2.851,-2.851,-2.851,-2.851,-2.851,-2.851,-2.855,-2.863,-2.863,-2.8697,-2.8776,-2.8776,-2.8776,-2.8843,-2.9341,-2.9223,-2.8843,-4.34,-4.3416,-4.3466,-4.3582,-4.3568,-4.3492,-4.3402,-4.2741,-4.219,-4.1997,-4.117,-4.0541,-4.0473,-4.0036,-3.959,-3.9148,-3.8835,-3.7965,-3.6278,-3.6156,-3.6112,-3.6025,-3.5503,-3.5247,-3.5247,-3.469,-3.4414,-3.4414,-3.4414,-3.4414,-3.4414,-3.4414,-3.4414,-3.4414,-3.4414,-3.4414,-3.4414,-3.4414,-3.4414,-3.4414,-3.4414,-3.4414,-3.4414,-3.4414,-3.4414,-3.4414,-3.4414,-3.4414,-3.4414,-3.4414,-3.4414,-3.4414,-3.4414,-3.4414,-3.4414,-3.4414,-3.4414,-3.4414,-3.4414,-3.4414,-3.4414,-3.4414,-3.4414,-3.4414,-3.4414,-3.4414,-3.4385,-3.4283,-3.3833,-3.3271,-3.2498,-3.183,-3.0742,-2.884,-2.8536,-2.7853,-2.5908,0.0,-2.8187,-2.7623,-2.9087,-3.0205,-3.0307,-3.0394,-3.0611,-3.1047,-3.0548,-3.0457,-3.0941,-3.0357,-2.9918,-2.9755,-2.8924,-2.8413,-2.8378,-2.8474,-2.851,-2.851,-2.851,-2.851,-2.851,-2.851,-2.851,-2.851,-2.851,-2.8776,-2.9263,-2.9263,-2.9574,-3.0024,-3.0024,-3.0024,-3.0024,-3.0126,-3.0101,-3.0024,-4.3598,-4.3598,-4.3598,-4.3598,-4.3598,-4.3598,-4.3598,-4.3265,-4.2943,-4.2741,-4.2078,-4.1576,-4.1412,-4.0964,-4.0488,-4.0069,-3.9889,-3.9365,-3.8305,-3.7359,-3.6693,-3.633,-3.6025,-3.5865,-3.5865,-3.5241,-3.4922,-3.4922,-3.4588,-3.4414,-3.4414,-3.4414,-3.4414,-3.4414,-3.4414,-3.4414,-3.4414,-3.4414,-3.4414,-3.4414,-3.4414,-3.4414,-3.4414,-3.4414,-3.4414,-3.4414,-3.4414,-3.4414,-3.4414,-3.4414,-3.4414,-3.4414,-3.4414,-3.4414,-3.4414,-3.4414,-3.4414,-3.4414,-3.4414,-3.4414,-3.4414,-3.4414,-3.4414,-3.4414,-3.4414,-3.4414,-3.4414,-3.4414,-3.4182,-3.379,-3.3151,-3.2208,-3.1119,-2.9929,-2.9159,0.0,0.0,-2.8405,-2.9203,-2.9261,-3.0335,-3.1221,-3.1584,-3.1613,-3.1743,-3.2034,-3.1572,-3.1485,-3.1859,-3.1411,-3.1039,-3.0837,-2.9983,-2.935,-2.9,-2.9302,-2.9457,-2.9457,-2.9157,-2.8961,-2.8961,-2.8669,-2.851,-2.851,-2.8843,-2.9157,-2.9419,-2.9755,-3.0063,-3.0279,-3.0279,-3.0279,-3.0355,-3.0658,-3.0582,-3.0355,-4.3598,-4.3598,-4.3598,-4.3598,-4.3598,-4.3598,-4.3598,-4.3598,-4.3492,-4.3235,-4.2865,-4.2506,-4.2253,-4.1739,-4.1248,-4.0894,-4.0758,-4.0554,-4.0154,-3.8743,-3.7637,-3.6996,-3.6677,-3.646,-3.6301,-3.5836,-3.5625,-3.5625,-3.5096,-3.4849,-3.4849,-3.4849,-3.4849,-3.4849,-3.4849,-3.4849,-3.4849,-3.4849,-3.4849,-3.4849,-3.4849,-3.4849,-3.4849,-3.4849,-3.4849,-3.4849,-3.4849,-3.4762,-3.4632,-3.4632,-3.453,-3.4414,-3.4414,-3.4414,-3.4414,-3.4414,-3.4414,-3.4414,-3.4414,-3.4414,-3.4414,-3.4414,-3.4414,-3.4414,-3.4414,-3.4414,-3.4414,-3.4414,-3.4414,-3.4225,-3.362,-3.2658,-3.1714,-3.093,0.0,0.0,0.0,-2.9798,-3.0422,-3.0756,-3.1366,-3.1915,-3.2437,-3.2643,-3.2698,-3.2601,-3.2489,-3.2411,-3.2401,-3.2152,-3.1746,-3.122,-3.062,-3.0101,-2.96,-3.0063,-3.0279,-3.0279,-2.9832,-2.96,-2.96,-2.9118,-2.8922,-2.8922,-2.9419,-2.9678,-2.9832,-3.0317,-3.0582,-3.0746,-3.0746,-3.0746,-3.0784,-3.127,-3.1121,-3.0822,-4.3598,-4.3598,-4.3598,-4.3598,-4.3598,-4.3598,-4.3598,-4.3598,-4.3598,-4.3568,-4.3539,-4.3492,-4.3462,-4.3157,-4.2741,-4.2205,-4.1884,-4.1461,-4.0865,-4.0113,-3.9459,-3.892,-3.7828,-3.6939,-3.6315,-3.6272,-3.6228,-3.6228,-3.6185,-3.617,-3.617,-3.617,-3.617,-3.617,-3.617,-3.617,-3.617,-3.617,-3.617,-3.617,-3.617,-3.617,-3.617,-3.617,-3.617,-3.617,-3.617,-3.5793,-3.5334,-3.5334,-3.4893,-3.4414,-3.4414,-3.4414,-3.4414,-3.4414,-3.4414,-3.4414,-3.4414,-3.4414,-3.4414,-3.4414,-3.4414,-3.4414,-3.4414,-3.4414,-3.4414,-3.4414,-3.4414,-3.4225,-3.362,-3.3416,-3.2937,-3.1656,0.0,0.0,-3.0641,-3.1511,-3.206,-3.1495,-3.2002,-3.2469,-3.2481,-3.305,-3.3266,-3.2906,-3.3382,-3.3366,-3.2706,-3.2635,-3.2205,-3.122,-3.062,-3.0279,-3.0241,-3.0279,-3.0279,-3.0279,-3.0241,-3.0241,-3.0241,-3.0177,-3.0177,-3.0177,-3.0203,-3.0545,-3.1071,-3.1121,-3.1505,-3.2059,-3.2059,-3.2059,-3.2059,-3.2096,-3.2096,-3.2059,-4.3598,-4.3598,-4.3598,-4.3598,-4.3598,-4.3598,-4.3598,-4.3598,-4.3598,-4.3598,-4.3598,-4.3598,-4.3598,-4.3492,-4.3235,-4.2834,-4.2679,-4.2412,-4.1981,-4.1395,-4.055,-3.9343,-3.8502,-3.8047,-3.8038,-3.7295,-3.6925,-3.6925,-3.6504,-3.6301,-3.6301,-3.6301,-3.6301,-3.6301,-3.6301,-3.6301,-3.6301,-3.6301,-3.6301,-3.6301,-3.6301,-3.6301,-3.6301,-3.6301,-3.6301,-3.6301,-3.6301,-3.6156,-3.5952,-3.5952,-3.5793,-3.5517,-3.5125,-3.5009,-3.4922,-3.453,-3.4414,-3.4414,-3.4414,-3.4414,-3.4414,-3.4414,-3.4414,-3.4414,-3.4414,-3.4414,-3.4414,-3.4414,-3.4414,-3.4341,-3.4095,-3.3765,-3.3474,-3.3325,0.0,-3.2483,-3.2414,-3.2454,-3.2571,-3.2716,-3.2962,-3.3267,-3.3659,-3.392,-3.3869,-3.3496,-3.3882,-3.3839,-3.3094,-3.2846,-3.2417,-3.185,-3.1593,-3.1283,-3.0846,-3.1283,-3.1482,-3.1482,-3.1046,-3.0846,-3.0859,-3.0469,-3.0279,-3.0317,-3.0696,-3.0996,-3.122,-3.1666,-3.1973,-3.2218,-3.2218,-3.2218,-3.2218,-3.2218,-3.2218,-3.2218,-4.3598,-4.3598,-4.3598,-4.3598,-4.3598,-4.3598,-4.3598,-4.3598,-4.3598,-4.3598,-4.3598,-4.3598,-4.3598,-4.3598,-4.3492,-4.3265,-4.3265,-4.3174,-4.2943,-4.238,-4.1411,-3.9909,-3.9484,-3.9391,-3.9642,-3.885,-3.8335,-3.8112,-3.7605,-3.7206,-3.6983,-3.6947,-3.6896,-3.6896,-3.6896,-3.6896,-3.6896,-3.6896,-3.6896,-3.6896,-3.6896,-3.6896,-3.6896,-3.6896,-3.6896,-3.6896,-3.6896,-3.678,-3.662,-3.662,-3.6475,-3.6228,-3.5793,-3.5552,-3.5319,-3.4835,-3.4559,-3.4414,-3.4414,-3.4414,-3.4414,-3.4414,-3.4414,-3.4414,-3.4414,-3.4414,-3.4414,-3.4414,-3.4414,-3.4414,-3.4414,-3.4051,-3.3906,-3.4341,-3.3688,-3.3267,-3.3703,-3.3398,-3.3282,-3.3717,-3.3794,-3.3935,-3.437,-3.4414,-3.423,-3.3839,-3.4059,-3.3874,-3.3164,-3.2739,-3.2444,-3.2218,-3.2218,-3.1986,-3.1505,-3.1973,-3.2218,-3.2169,-3.174,-3.1505,-3.1505,-3.1097,-3.091,-3.0897,-3.132,-3.1505,-3.1542,-3.2009,-3.2218,-3.2218,-3.2218,-3.2218,-3.2218,-3.2218,-3.2218,-3.2218,-4.3598,-4.3598,-4.3598,-4.3598,-4.3598,-4.3598,-4.3598,-4.3598,-4.3598,-4.3598,-4.3598,-4.3598,-4.3598,-4.3598,-4.3598,-4.3598,-4.3598,-4.3598,-4.3598,-4.2974,-4.2078,-4.0966,-4.0932,-4.0883,-4.0932,-4.0883,-4.0576,-3.9889,-3.9697,-3.9247,-3.8516,-3.8315,-3.8202,-3.8202,-3.8202,-3.8202,-3.8202,-3.8202,-3.8202,-3.8202,-3.8202,-3.8202,-3.8202,-3.8202,-3.8202,-3.8202,-3.8202,-3.7825,-3.7317,-3.7317,-3.6881,-3.6315,-3.6315,-3.588,-3.5407,-3.5392,-3.4907,-3.4428,-3.4414,-3.4414,-3.4414,-3.4414,-3.4414,-3.4414,-3.4414,-3.4414,-3.4414,-3.4414,-3.4414,-3.4414,-3.4414,-3.4414,-3.4414,-3.4414,-3.4414,-3.4414,-3.4414,-3.4414,-3.4414,-3.4414,-3.4414,-3.4414,-3.4414,-3.4414,-3.423,-3.3839,-3.3805,-3.3479,-3.2739,-3.2372,-3.2218,-3.2218,-3.2218,-3.2218,-3.2218,-3.2218,-3.2218,-3.2218,-3.2218,-3.2218,-3.2218,-3.2218,-3.2218,-3.2218,-3.2218,-3.2218,-3.2218,-3.2218,-3.2218,-3.2218,-3.2218,-3.2218,-3.2218,-3.2218,-3.2218,-3.2218,-4.3598,-4.3598,-4.3598,-4.3598,-4.3598,-4.3598,-4.3598,-4.3598,-4.3598,-4.3598,-4.3598,-4.3598,-4.3598,-4.3598,-4.3598,-4.3598,-4.3598,-4.3598,-4.3598,-4.3402,-4.3157,-4.2802,-4.1691,-4.1231,-4.1526,-4.1115,-4.0678,-4.0259,-4.0174,-3.9945,-3.9478,-3.9406,-3.9205,-3.8833,-3.8833,-3.8612,-3.8202,-3.8202,-3.8202,-3.8202,-3.8202,-3.8202,-3.8202,-3.8202,-3.8202,-3.8202,-3.8202,-3.8086,-3.7941,-3.7941,-3.7796,-3.7564,-3.7143,-3.6562,-3.5938,-3.5523,-3.5261,-3.498,-3.453,-3.4414,-3.4414,-3.4414,-3.4414,-3.4414,-3.4414,-3.4414,-3.4414,-3.4414,-3.4414,-3.4414,-3.4414,-3.4414,-3.4414,-3.4414,-3.4414,-3.4414,-3.4414,-3.4414,-3.4414,-3.4414,-3.4414,-3.4414,-3.4414,-3.4414,-3.423,-3.3839,-3.3597,-3.3339,-3.3129,-3.2739,-3.2538,-3.2538,-3.23,-3.2218,-3.2218,-3.2218,-3.2218,-3.2218,-3.2218,-3.2218,-3.2218,-3.2218,-3.2218,-3.2218,-3.2218,-3.2218,-3.2218,-3.2218,-3.2218,-3.2218,-3.2218,-3.2218,-3.2218,-3.2218,-3.2218,-3.2218,-4.3598,-4.3598,-4.3598,-4.3598,-4.3598,-4.3598,-4.3598,-4.3598,-4.3598,-4.3598,-4.3598,-4.3598,-4.3598,-4.3598,-4.3598,-4.3598,-4.3598,-4.3598,-4.3598,-4.3598,-4.3598,-4.3598,-4.2678,-4.2253,-4.2522,-4.2141,-4.1739,-4.1262,-4.1196,-4.0826,-4.0224,-4.012,-3.9854,-3.9436,-3.9436,-3.9111,-3.8575,-3.8575,-3.8575,-3.8538,-3.8315,-3.8352,-3.8538,-3.8277,-3.8202,-3.8202,-3.8202,-3.8202,-3.8202,-3.8202,-3.8202,-3.8144,-3.7781,-3.7215,-3.662,-3.6243,-3.5973,-3.5639,-3.4965,-3.4791,-3.4733,-3.4472,-3.4414,-3.4414,-3.4414,-3.4414,-3.4414,-3.4414,-3.4414,-3.4414,-3.4414,-3.4414,-3.4414,-3.4414,-3.4414,-3.4414,-3.4414,-3.4414,-3.4414,-3.4414,-3.4414,-3.4414,-3.4414,-3.4414,-3.423,-3.3839,-3.3632,-3.3444,-3.3304,-3.3058,-3.2846,-3.2704,-3.2503,-3.2336,-3.2218,-3.2218,-3.2218,-3.2218,-3.2218,-3.2218,-3.2218,-3.2218,-3.2218,-3.2218,-3.2218,-3.2218,-3.2218,-3.2218,-3.2218,-3.2218,-3.2218,-3.2218,-3.2218,-3.2218,-3.2218,-3.2218,-4.3598,-4.3598,-4.3598,-4.3598,-4.3598,-4.3598,-4.3598,-4.3598,-4.3598,-4.3598,-4.3598,-4.3598,-4.3598,-4.3598,-4.3598,-4.3598,-4.3598,-4.3598,-4.3598,-4.3598,-4.3598,-4.3598,-4.3598,-4.3598,-4.3598,-4.3598,-4.3295,-4.2648,-4.2443,-4.1836,-4.0826,-4.0622,-4.0363,-3.9975,-3.9975,-3.9672,-3.9162,-3.9162,-3.9162,-3.9126,-3.8575,-3.8686,-3.909,-3.856,-3.83,-3.8277,-3.8277,-3.824,-3.8202,-3.8202,-3.8202,-3.8202,-3.8202,-3.7825,-3.7375,-3.7317,-3.6881,-3.6257,-3.5654,-3.5436,-3.5261,-3.4646,-3.4457,-3.4414,-3.4414,-3.4414,-3.4414,-3.4414,-3.4414,-3.4414,-3.4414,-3.4414,-3.4414,-3.4414,-3.4414,-3.4414,-3.4414,-3.4414,-3.4414,-3.4414,-3.4414,-3.4414,-3.4414,-3.4414,-3.423,-3.3839,-3.3805,-3.3667,-3.3374,-3.3304,-3.3129,-3.2775,-3.2739,-3.2538,-3.2218,-3.2218,-3.2218,-3.2218,-3.2218,-3.2218,-3.2218,-3.2218,-3.2218,-3.2218,-3.2218,-3.2218,-3.2218,-3.2218,-3.2218,-3.2218,-3.2218,-3.2218,-3.2218,-3.2218,-3.2218,-3.2218,-4.3598,-4.3598,-4.3598,-4.3598,-4.3598,-4.3598,-4.3598,-4.3598,-4.3598,-4.3598,-4.3598,-4.3598,-4.3598,-4.3598,-4.3598,-4.3598,-4.3598,-4.3598,-4.3598,-4.3598,-4.3598,-4.3598,-4.3598,-4.3598,-4.3598,-4.3598,-4.3402,-4.3005,-4.2943,-4.2522,-4.1786,-4.1754,-4.1325,-4.0612,-4.0612,-4.0285,-3.9728,-3.9728,-3.9728,-3.9728,-3.9585,-3.9621,-3.9728,-3.9585,-3.9277,-3.8907,-3.8907,-3.8612,-3.8202,-3.8202,-3.8202,-3.8202,-3.8202,-3.8115,-3.7912,-3.7447,-3.7201,-3.6939,-3.6286,-3.577,-3.5363,-3.5232,-3.4777,-3.4414,-3.4414,-3.4414,-3.4414,-3.4414,-3.4414,-3.4414,-3.4414,-3.4414,-3.4414,-3.4414,-3.4414,-3.4414,-3.4414,-3.4414,-3.4414,-3.4414,-3.4414,-3.4414,-3.4414,-3.4414,-3.423,-3.3839,-3.3805,-3.377,-3.3701,-3.3444,-3.3269,-3.3164,-3.2846,-3.2538,-3.2218,-3.2218,-3.2218,-3.2218,-3.2218,-3.2218,-3.2218,-3.2218,-3.2218,-3.2218,-3.2218,-3.2218,-3.2218,-3.2218,-3.2218,-3.2218,-3.2218,-3.2218,-3.2218,-3.2218,-3.2218,-3.2218,-4.3598,-4.3598,-4.3598,-4.3598,-4.3598,-4.3598,-4.3598,-4.3598,-4.3598,-4.3598,-4.3598,-4.3598,-4.3598,-4.3598,-4.3598,-4.3598,-4.3598,-4.3598,-4.3598,-4.3598,-4.3598,-4.3598,-4.3598,-4.3598,-4.3598,-4.3598,-4.3492,-4.3342,-4.3342,-4.3082,-4.257,-4.257,-4.2254,-4.1655,-4.1655,-4.1343,-4.0808,-4.0653,-4.0585,-4.0516,-4.0065,-4.008,-4.0305,-4.001,-3.9728,-3.9472,-3.9472,-3.9111,-3.8575,-3.8315,-3.8202,-3.8202,-3.8202,-3.8202,-3.8144,-3.7825,-3.7738,-3.7593,-3.6954,-3.6548,-3.6214,-3.5894,-3.5328,-3.4777,-3.4486,-3.4414,-3.4414,-3.4414,-3.4414,-3.4414,-3.4414,-3.4414,-3.4414,-3.4414,-3.4414,-3.4414,-3.4414,-3.4414,-3.4414,-3.4414,-3.4414,-3.4414,-3.4414,-3.4414,-3.4312,-3.4094,-3.4094,-3.4094,-3.4094,-3.3908,-3.3736,-3.3563,-3.3164,-3.281,-3.2444,-3.2277,-3.2218,-3.2218,-3.2218,-3.2218,-3.2218,-3.2218,-3.2218,-3.2218,-3.2218,-3.2218,-3.2218,-3.2218,-3.2218,-3.2218,-3.2218,-3.2218,-3.2218,-3.2218,-3.2218,-3.2218,-4.3598,-4.3598,-4.3598,-4.3598,-4.3598,-4.3598,-4.3598,-4.3598,-4.3598,-4.3598,-4.3598,-4.3598,-4.3598,-4.3598,-4.3598,-4.3598,-4.3598,-4.3598,-4.3598,-4.3598,-4.3598,-4.3598,-4.3598,-4.3598,-4.3598,-4.3598,-4.3598,-4.3598,-4.3598,-4.3432,-4.3113,-4.3113,-4.2912,-4.2617,-4.2617,-4.2349,-4.1917,-4.1574,-4.1442,-4.1376,-4.0516,-4.0478,-4.0885,-4.0359,-4.015,-4.0045,-4.0045,-3.9707,-3.9162,-3.8671,-3.8486,-3.8486,-3.8486,-3.8427,-3.8352,-3.8352,-3.8277,-3.8086,-3.7593,-3.7389,-3.7172,-3.662,-3.5996,-3.5392,-3.4719,-3.4486,-3.4414,-3.4414,-3.4414,-3.4414,-3.4414,-3.4414,-3.4414,-3.4414,-3.4414,-3.4414,-3.4414,-3.4414,-3.4414,-3.4414,-3.4414,-3.4414,-3.4414,-3.4414,-3.4414,-3.4414,-3.4414,-3.4414,-3.4414,-3.4414,-3.423,-3.3805,-3.3479,-3.3129,-3.281,-3.2444,-3.2277,-3.2277,-3.2277,-3.2241,-3.2218,-3.2218,-3.2218,-3.2218,-3.2218,-3.2218,-3.2218,-3.2218,-3.2218,-3.2218,-3.2218,-3.2218,-3.2218,-3.2218,-3.2218,-3.2218,-4.3598,-4.3598,-4.3598,-4.3598,-4.3598,-4.3598,-4.3598,-4.3598,-4.3598,-4.3598,-4.3598,-4.3598,-4.3598,-4.3598,-4.3598,-4.3598,-4.3598,-4.3598,-4.3598,-4.3598,-4.3598,-4.3598,-4.3598,-4.3598,-4.3598,-4.3598,-4.3598,-4.3598,-4.3598,-4.3432,-4.3113,-4.3113,-4.2912,-4.2617,-4.2617,-4.2554,-4.2491,-4.2126,-4.2013,-4.1964,-4.154,-4.1423,-4.1489,-4.1407,-4.1073,-4.0681,-4.0681,-4.032,-3.9799,-3.9692,-3.9677,-3.9677,-3.9677,-3.9349,-3.8995,-3.8995,-3.8612,-3.8188,-3.8101,-3.7709,-3.7288,-3.7201,-3.6678,-3.6011,-3.5407,-3.4806,-3.4414,-3.4414,-3.4414,-3.4414,-3.4414,-3.4414,-3.4414,-3.4414,-3.4414,-3.4414,-3.4414,-3.4414,-3.4414,-3.4414,-3.4414,-3.4414,-3.4414,-3.4414,-3.4414,-3.4414,-3.4414,-3.4414,-3.4414,-3.4414,-3.423,-3.3805,-3.3479,-3.3269,-3.3234,-3.2846,-3.2632,-3.2632,-3.2632,-3.2467,-3.2218,-3.2218,-3.2218,-3.2218,-3.2218,-3.2218,-3.2218,-3.2218,-3.2218,-3.2218,-3.2218,-3.2218,-3.2218,-3.2218,-3.2218,-3.2218,-4.3598,-4.3598,-4.3598,-4.3598,-4.3598,-4.3598,-4.3598,-4.3598,-4.3598,-4.3598,-4.3598,-4.3598,-4.3598,-4.3598,-4.3598,-4.3598,-4.3598,-4.3598,-4.3598,-4.3598,-4.3598,-4.3598,-4.3598,-4.3598,-4.3598,-4.3598,-4.3598,-4.3598,-4.3598,-4.3522,-4.3372,-4.3372,-4.3295,-4.3174,-4.3174,-4.3174,-4.3113,-4.2601,-4.2381,-4.2349,-4.1802,-4.1588,-4.1588,-4.1588,-4.1456,-4.1189,-4.0901,-4.0646,-4.0339,-4.001,-3.9889,-3.9889,-3.9889,-3.9728,-3.9529,-3.9529,-3.9147,-3.8686,-3.8686,-3.8274,-3.781,-3.781,-3.7331,-3.6794,-3.6519,-3.5662,-3.4835,-3.4486,-3.4414,-3.4414,-3.4414,-3.4414,-3.4414,-3.4414,-3.4414,-3.4414,-3.4414,-3.4414,-3.4414,-3.4414,-3.4414,-3.4414,-3.4414,-3.4414,-3.4414,-3.4414,-3.4414,-3.4414,-3.4414,-3.4414,-3.4312,-3.4128,-3.377,-3.3597,-3.3597,-3.3234,-3.3058,-3.3058,-3.3058,-3.2753,-3.2218,-3.2218,-3.2218,-3.2218,-3.2218,-3.2218,-3.2218,-3.2218,-3.2218,-3.2218,-3.2218,-3.2218,-3.2218,-3.2218,-3.2218,-3.2218]},{"header":{"parameterUnit":"m.s-1","parameterCategory":1,"la1":30.6,"la2":28.766,"lo1":-90.7593,"lo2":-88.6598,"dy":0.0162,"dx":0.0183,"nx":116,"ny":114,"refTime":"2024-06-23T00:00:00:Z","depth":0,"parameterNumber":3,"parameterNumberName":"V-component_of_WINDS"},"data":[0.0,0.0,0.0,0.0,0.0,0.0,0.0,0.0,0.0,0.0,0.0,0.0,0.0,0.0,0.0,0.0,0.0,0.0,0.0,0.0,0.0,0.0,0.0,0.0,0.0,0.0,0.0,0.0,0.0,0.0,0.0,0.0,0.0,0.0,0.0,0.0,0.0,0.0,0.0,0.0,0.0,0.0,0.0,0.0,0.0,0.0,0.0,0.0,0.0,0.0,0.0,0.0,0.0,0.0,0.0,0.0,0.0,0.0,0.0,0.0,0.0,0.0,0.0,0.0,0.0,0.0,0.0,0.0,0.0,0.0,0.0,0.0,0.0,0.0,0.0,0.0,0.0,0.0,0.0,0.0,0.0,0.0,0.0,0.0,0.0,0.0,0.0,0.0,0.0,0.0,0.0,0.0,0.0,0.0,0.0,0.0,0.0,0.0,0.0,0.0,0.0,0.0,0.0,0.0,0.0,0.0,0.0,0.0,0.0,0.0,0.0,0.0,0.0,0.0,0.0,0.0,0.0,0.0,0.0,0.0,0.0,0.0,0.0,0.0,0.0,0.0,0.0,0.0,0.0,0.0,0.0,0.0,0.0,0.0,0.0,0.0,0.0,0.0,0.0,0.0,0.0,0.0,0.0,0.0,0.0,0.0,0.0,0.0,0.0,0.0,0.0,0.0,0.0,0.0,0.0,0.0,0.0,0.0,0.0,0.0,0.0,0.0,0.0,0.0,0.0,0.0,0.0,0.0,0.0,0.0,0.0,0.0,0.0,0.0,0.0,0.0,0.0,0.0,0.0,0.0,0.0,0.0,0.0,0.0,0.0,0.0,0.0,0.0,0.0,0.0,0.0,0.0,0.0,0.0,0.0,0.0,0.0,0.0,0.0,0.0,0.0,0.0,0.0,0.0,0.0,0.0,0.0,0.0,0.0,0.0,0.0,0.0,0.0,0.0,0.0,0.0,0.0,0.0,0.0,0.0,0.0,0.0,0.0,0.0,0.0,0.0,0.0,0.0,0.0,0.0,0.0,0.0,0.0,0.0,0.0,0.0,0.0,0.0,0.0,0.0,0.0,0.0,0.0,0.0,0.0,0.0,0.0,0.0,0.0,0.0,0.0,0.0,0.0,0.0,0.0,0.0,0.0,0.0,0.0,0.0,0.0,0.0,0.0,0.0,0.0,0.0,0.0,0.0,0.0,0.0,0.0,0.0,0.0,0.0,0.0,0.0,0.0,0.0,0.0,0.0,0.0,0.0,0.0,0.0,0.0,0.0,0.0,0.0,0.0,0.0,0.0,0.0,0.0,0.0,0.0,0.0,0.0,0.0,0.0,0.0,0.0,0.0,0.0,0.0,0.0,0.0,0.0,0.0,0.0,0.0,0.0,0.0,0.0,0.0,0.0,0.0,0.0,0.0,0.0,0.0,0.0,0.0,0.0,0.0,0.0,0.0,0.0,0.0,0.0,0.0,0.0,0.0,0.0,0.0,0.0,0.0,0.0,0.0,0.0,0.0,0.0,0.0,0.0,0.0,0.0,0.0,0.0,0.0,0.0,0.0,0.0,0.0,0.0,0.0,0.0,0.0,0.0,0.0,0.0,0.0,0.0,0.0,0.0,0.0,0.0,0.0,0.0,0.0,0.0,0.0,0.0,0.0,0.0,0.0,0.0,0.0,0.0,0.0,0.0,0.0,0.0,0.0,0.0,0.0,0.0,0.0,0.0,0.0,0.0,0.0,0.0,0.0,0.0,0.0,0.0,0.0,0.0,0.0,0.0,0.0,0.0,0.0,0.0,0.0,0.0,0.0,0.0,0.0,0.0,0.0,0.0,0.0,0.0,0.0,0.0,0.0,0.0,0.0,0.0,0.0,0.0,0.0,0.0,0.0,0.0,0.0,0.0,0.0,0.0,0.0,0.0,0.0,0.0,0.0,0.0,0.0,0.0,0.0,0.0,0.0,0.0,0.0,0.0,0.0,0.0,0.0,0.0,0.0,0.0,0.0,0.0,0.0,0.0,0.0,0.0,0.0,0.0,0.0,0.0,0.0,0.0,0.0,0.0,0.0,0.0,0.0,0.0,0.0,0.0,0.0,0.0,0.0,0.0,0.0,0.0,0.0,0.0,0.0,0.0,0.0,0.0,0.0,0.0,0.0,0.0,0.0,0.0,0.0,0.0,0.0,0.0,0.0,0.0,0.0,0.0,0.0,0.0,0.0,0.0,0.0,0.0,0.0,0.0,0.0,0.0,0.0,0.0,0.0,0.0,0.0,0.0,0.0,0.0,0.0,0.0,0.0,0.0,0.0,0.0,0.0,0.0,0.0,0.0,0.0,0.0,0.0,0.0,0.0,0.0,0.0,0.0,0.0,0.0,0.0,0.0,0.0,0.0,0.0,0.0,0.0,0.0,0.0,0.0,0.0,0.0,0.0,0.0,0.0,0.0,0.0,0.0,0.0,0.0,0.0,0.0,0.0,0.0,0.0,0.0,0.0,0.0,0.0,0.0,0.0,0.0,0.0,0.0,0.0,0.0,0.0,0.0,0.0,0.0,0.0,0.0,0.0,0.0,0.0,0.0,0.0,0.0,0.0,0.0,0.0,0.0,0.0,0.0,0.0,0.0,0.0,0.0,0.0,0.0,0.0,0.0,0.0,0.0,0.0,0.0,0.0,0.0,0.0,0.0,0.0,0.0,0.0,0.0,0.0,0.0,0.0,0.0,0.0,0.0,0.0,0.0,0.0,0.0,0.0,0.0,0.0,0.0,0.0,0.0,0.0,0.0,0.0,0.0,0.0,0.0,0.0,0.0,0.0,0.0,0.0,0.0,0.0,0.0,0.0,0.0,0.0,0.0,0.0,0.0,0.0,0.0,0.0,0.0,0.0,0.0,0.0,0.0,0.0,0.0,0.0,0.0,0.0,0.0,0.0,0.0,0.0,0.0,0.0,0.0,0.0,0.0,0.0,0.0,0.0,0.0,0.0,0.0,0.0,0.0,0.0,0.0,0.0,0.0,0.0,0.0,0.0,0.0,0.0,0.0,0.0,0.0,0.0,0.0,0.0,0.0,0.0,0.0,0.0,0.0,0.0,0.0,0.0,0.0,0.0,0.0,0.0,0.0,0.0,0.0,0.0,0.0,0.0,0.0,0.0,0.0,0.0,0.0,0.0,0.0,0.0,0.0,0.0,0.0,0.0,0.0,0.0,0.0,0.0,0.0,0.0,0.0,0.0,0.0,0.0,0.0,0.0,0.0,0.0,0.0,0.0,0.0,0.0,0.0,0.0,0.0,0.0,0.0,0.0,0.0,0.0,0.0,0.0,0.0,0.0,0.0,0.0,0.0,0.0,0.0,0.0,0.0,0.0,0.0,0.0,0.0,0.0,0.0,0.0,0.0,0.0,0.0,0.0,0.0,0.0,0.0,0.0,0.0,0.0,0.0,0.0,0.0,0.0,0.0,0.0,0.0,0.0,0.0,0.0,0.0,0.0,0.0,0.0,0.0,0.0,0.0,0.0,0.0,0.0,0.0,0.0,0.0,0.0,0.0,0.0,0.0,0.0,0.0,0.0,0.0,0.0,0.0,0.0,0.0,0.0,0.0,0.0,0.0,0.0,0.0,0.0,0.0,0.0,0.0,0.0,0.0,0.0,0.0,0.0,0.0,0.0,0.0,0.0,0.0,0.0,0.0,0.0,0.0,0.0,0.0,0.0,0.0,0.0,0.0,0.0,0.0,0.0,0.0,0.0,0.0,0.0,0.0,0.0,0.0,0.0,0.0,0.0,0.0,0.0,0.0,0.0,0.0,0.0,0.0,0.0,0.0,0.0,0.0,0.0,0.0,0.0,0.0,0.0,0.0,0.0,0.0,0.0,0.0,0.0,0.0,0.0,0.0,0.0,0.0,0.0,0.0,0.0,0.0,0.0,0.0,0.0,0.0,0.0,0.0,0.0,0.0,0.0,0.0,0.0,0.0,0.0,0.0,0.0,0.0,0.0,0.0,0.0,0.0,0.0,0.0,0.0,0.0,0.0,0.0,0.0,0.0,0.0,0.0,0.0,0.0,0.0,0.0,0.0,0.0,0.0,0.0,0.0,0.0,0.0,0.0,0.0,0.0,0.0,0.0,0.0,0.0,0.0,0.0,0.0,0.0,0.0,0.0,0.0,0.0,0.0,0.0,0.0,0.0,0.0,0.0,0.0,0.0,0.0,0.0,0.0,0.0,0.0,0.0,0.0,0.0,0.0,0.0,0.0,0.0,0.0,0.0,0.0,0.0,0.0,0.0,0.0,0.0,0.0,0.0,0.0,0.0,0.0,0.0,0.0,0.0,0.0,0.0,0.0,0.0,0.0,0.0,0.0,0.0,0.0,0.0,0.0,0.0,0.0,0.0,0.0,0.0,0.0,0.0,0.0,0.0,0.0,0.0,0.0,0.0,0.0,0.0,0.0,0.0,0.0,0.0,0.0,0.0,0.0,0.0,0.0,0.0,0.0,0.0,0.0,0.0,0.0,0.0,0.0,0.0,0.0,0.0,0.0,0.0,0.0,0.0,0.0,0.0,0.0,0.0,0.0,0.0,0.0,0.0,0.0,0.0,0.0,0.0,0.0,0.0,0.0,0.0,0.0,0.0,0.0,0.0,0.0,0.0,0.0,0.0,0.0,0.0,0.0,0.0,0.0,0.0,0.0,0.0,0.0,0.0,0.0,0.0,0.0,0.0,0.0,0.0,0.0,0.0,0.0,0.0,0.0,0.0,0.0,0.0,0.0,0.0,0.0,0.0,0.0,0.0,0.0,0.0,0.0,0.0,0.0,0.0,0.0,0.0,0.0,0.0,0.0,0.0,0.0,0.0,0.0,0.0,0.0,0.0,0.0,0.0,0.0,0.0,0.0,0.0,0.0,0.0,0.0,0.0,0.0,0.0,0.0,0.0,0.0,0.0,0.0,0.0,0.0,0.0,0.0,0.0,0.0,0.0,0.0,0.0,0.0,0.0,0.0,0.0,0.0,0.0,0.0,0.0,0.0,0.0,0.0,0.0,0.0,0.0,0.0,0.0,0.0,0.0,0.0,0.0,0.0,0.0,0.0,0.0,0.0,0.0,0.0,0.0,0.0,0.0,0.0,0.0,0.0,0.0,0.0,0.0,0.0,0.0,0.0,0.0,0.0,0.0,0.0,0.0,0.0,0.0,0.0,0.0,0.0,0.0,0.0,0.0,0.0,0.0,0.0,0.0,0.0,0.0,0.0,0.0,0.0,0.0,0.0,0.0,0.0,0.0,0.0,0.0,0.0,0.0,0.0,0.0,0.0,0.0,0.0,0.0,0.0,0.0,0.0,0.0,0.0,0.0,0.0,0.0,0.0,0.0,0.0,0.0,0.0,0.0,0.0,0.0,0.0,0.0,0.0,0.0,0.0,0.0,0.0,0.0,0.0,0.0,0.0,0.0,0.0,0.0,0.0,0.0,0.0,0.0,0.0,0.0,0.0,0.0,0.0,0.0,0.0,0.0,0.0,0.0,0.0,0.0,0.0,0.0,0.0,0.0,0.0,0.0,0.0,0.0,0.0,0.0,0.0,0.0,0.0,0.0,0.0,0.0,0.0,0.0,0.0,0.0,0.0,0.0,0.0,0.0,0.0,0.0,0.0,0.0,0.0,0.0,0.0,0.0,0.0,0.0,0.0,0.0,0.0,0.0,0.0,0.0,0.0,0.0,0.0,0.0,0.0,0.0,0.0,0.0,0.0,0.0,0.0,0.0,0.0,0.0,0.0,0.0,0.0,0.0,0.0,0.0,0.0,0.0,0.0,0.0,0.0,0.0,0.0,0.0,0.0,0.0,0.0,0.0,0.0,0.0,0.0,0.0,0.0,0.0,0.0,0.0,0.0,0.0,0.0,0.0,0.0,0.0,0.0,0.0,0.0,0.0,0.0,0.0,0.0,0.0,0.0,0.0,0.0,0.0,0.0,0.0,0.0,0.0,0.0,0.0,0.0,0.0,0.0,0.0,0.0,0.0,0.0,0.0,0.0,0.0,0.0,0.0,0.0,0.0,0.0,0.0,0.0,0.0,0.0,0.0,0.0,0.0,0.0,0.0,0.0,0.0,0.0,0.0,0.0,0.0,0.0,0.0,0.0,-1.9309,0.0,0.0,0.0,0.0,0.0,0.0,0.0,0.0,0.0,0.0,0.0,0.0,0.0,0.0,0.0,0.0,0.0,0.0,0.0,0.0,0.0,0.0,0.0,0.0,-0.8318,-0.8507,-0.8836,-0.9188,-0.9383,-0.9383,0.0,0.0,0.0,0.0,0.0,-1.0047,-0.9711,-1.0051,-1.1122,-1.1118,-1.1785,-1.3056,-1.2687,-1.202,-1.1122,0.0,0.0,0.0,0.0,0.0,0.0,0.0,0.0,0.0,0.0,0.0,0.0,0.0,0.0,0.0,0.0,0.0,0.0,0.0,0.0,0.0,0.0,0.0,0.0,0.0,0.0,0.0,0.0,0.0,0.0,0.0,0.0,0.0,0.0,0.0,0.0,0.0,0.0,0.0,0.0,0.0,0.0,0.0,0.0,0.0,0.0,0.0,0.0,0.0,0.0,0.0,0.0,0.0,0.0,0.0,0.0,0.0,0.0,0.0,0.0,0.0,0.0,0.0,0.0,0.0,0.0,0.0,0.0,0.0,0.0,0.0,-2.1503,0.0,0.0,0.0,0.0,0.0,0.0,0.0,0.0,0.0,0.0,0.0,0.0,0.0,0.0,0.0,0.0,0.0,0.0,0.0,0.0,0.0,-0.8025,-0.8977,-0.9167,-0.9503,-1.0174,-1.0348,-1.0363,-1.0234,-1.0348,0.0,0.0,0.0,-1.0315,-1.0425,-1.0434,-1.1145,-1.2554,-1.3016,-1.416,-1.5929,-1.6593,-1.5729,-1.3598,-1.3109,0.0,0.0,0.0,0.0,0.0,0.0,0.0,0.0,0.0,0.0,0.0,0.0,0.0,0.0,0.0,0.0,0.0,0.0,0.0,0.0,0.0,0.0,0.0,0.0,0.0,0.0,0.0,0.0,0.0,0.0,0.0,0.0,0.0,0.0,0.0,0.0,0.0,0.0,0.0,0.0,0.0,0.0,0.0,0.0,0.0,0.0,0.0,0.0,0.0,0.0,0.0,0.0,0.0,0.0,0.0,0.0,0.0,0.0,0.0,0.0,0.0,0.0,0.0,-2.9437,-3.0172,-3.0626,-3.0626,-3.0992,-3.1487,-2.8542,-2.6587,-2.5327,-2.39,0.0,0.0,0.0,0.0,0.0,0.0,0.0,0.0,0.0,0.0,0.0,0.0,0.0,0.0,0.0,0.0,0.0,0.0,0.0,-0.8976,-0.9689,-1.0249,-1.0822,-1.1491,-1.2085,-1.2175,-1.158,-1.21,0.0,0.0,-1.1614,-1.1666,-1.1754,-1.1805,-1.2531,-1.3944,-1.627,-1.7869,-1.8778,-1.9456,-1.9563,-1.9132,-1.6745,-1.5301,-1.459,0.0,0.0,0.0,0.0,0.0,0.0,0.0,0.0,0.0,0.0,0.0,0.0,0.0,0.0,0.0,0.0,0.0,0.0,0.0,0.0,0.0,0.0,0.0,0.0,0.0,0.0,0.0,0.0,0.0,0.0,0.0,0.0,0.0,0.0,0.0,0.0,0.0,0.0,0.0,0.0,0.0,-1.6734,-1.7307,0.0,0.0,0.0,0.0,0.0,0.0,0.0,0.0,0.0,0.0,0.0,0.0,0.0,-2.7705,-2.9167,-3.1241,-3.1979,-3.1461,-3.3404,-3.4077,-3.355,-3.355,-3.3939,-3.4612,-3.4142,0.0,-2.907,-2.7608,0.0,0.0,0.0,0.0,0.0,0.0,0.0,0.0,0.0,0.0,0.0,0.0,0.0,0.0,0.0,0.0,0.0,0.0,0.0,0.0,0.0,-1.1536,-1.2355,-1.3391,-1.4092,-1.4032,-1.3002,0.0,0.0,-1.1904,-1.1912,-1.2158,-1.2608,-1.3057,-1.4532,-1.7082,-1.8992,-2.03,-2.098,-2.1288,-2.1427,-2.1365,-2.0162,-1.8607,-1.6868,-1.658,0.0,0.0,0.0,0.0,0.0,0.0,0.0,0.0,0.0,0.0,0.0,0.0,0.0,0.0,0.0,0.0,0.0,0.0,0.0,0.0,0.0,0.0,0.0,0.0,0.0,0.0,0.0,0.0,0.0,0.0,0.0,0.0,0.0,0.0,0.0,0.0,0.0,0.0,0.0,-1.6459,-1.9042,-1.9246,-2.0245,-2.0226,0.0,0.0,0.0,0.0,0.0,0.0,0.0,0.0,0.0,-2.9599,-3.036,-3.1413,-3.2862,-3.4214,-3.4926,-3.4982,-3.593,-3.6432,-3.6513,-3.6513,-3.6691,-3.6999,-3.6999,-3.5882,-3.389,-3.1639,-2.9475,-2.7433,0.0,0.0,0.0,0.0,-2.6348,-2.6264,0.0,0.0,0.0,0.0,0.0,0.0,0.0,0.0,0.0,0.0,0.0,0.0,-1.2078,-1.3059,-1.4092,-1.5426,-1.6009,0.0,0.0,0.0,-1.3565,-1.243,-1.2307,-1.2586,-1.3317,-1.4765,-1.6836,-1.9549,-2.1073,-2.2074,-2.2548,-2.2732,-2.2809,-2.2829,-2.291,-2.1634,-1.9386,-1.9258,-1.8092,0.0,0.0,0.0,0.0,0.0,0.0,0.0,0.0,0.0,0.0,0.0,0.0,0.0,0.0,0.0,0.0,0.0,0.0,0.0,0.0,0.0,0.0,0.0,0.0,0.0,0.0,0.0,0.0,0.0,0.0,0.0,0.0,0.0,0.0,0.0,0.0,0.0,0.0,-1.8961,-2.1229,-2.1386,-2.3031,-2.3342,0.0,0.0,0.0,0.0,0.0,0.0,-2.8725,-2.9664,-3.1056,-3.3048,-3.3793,-3.4764,-3.6022,-3.6562,-3.7096,-3.757,-3.757,-3.7873,-3.8391,-3.8391,-3.8391,-3.8391,-3.8391,-3.81,-3.7376,-3.4926,-3.2765,-3.0901,-3.0188,-2.9453,-2.8968,-3.0253,-3.0366,-3.0214,0.0,0.0,0.0,0.0,0.0,0.0,0.0,0.0,0.0,0.0,0.0,-1.147,-1.3483,0.0,-1.6159,-1.7444,0.0,0.0,0.0,0.0,-1.4438,-1.3735,-1.3211,-1.3263,-1.3943,-1.73,-1.9441,-2.0258,-2.2228,-2.3209,-2.3255,-2.3902,-2.421,-2.423,-2.459,-2.4002,-2.2536,-2.059,-2.0006,-2.01,0.0,0.0,0.0,0.0,0.0,0.0,0.0,0.0,0.0,0.0,0.0,0.0,0.0,0.0,0.0,0.0,0.0,0.0,0.0,0.0,0.0,0.0,0.0,0.0,0.0,0.0,0.0,0.0,0.0,0.0,0.0,0.0,0.0,0.0,0.0,0.0,0.0,0.0,0.0,-2.4109,-2.6972,0.0,0.0,0.0,0.0,-2.7949,-2.9037,-3.0301,-3.172,-3.3097,-3.4522,-3.6044,-3.6756,-3.7469,-3.823,-3.8278,-3.8311,-3.8343,-3.8343,-3.8359,-3.8391,-3.8391,-3.8391,-3.8391,-3.8391,-3.8375,-3.823,-3.6756,-3.525,-3.3825,-3.3145,-3.2433,-3.1882,-3.2643,-3.2927,-3.3008,0.0,0.0,0.0,-0.6908,-0.6908,-0.6985,-0.7251,-0.7719,-0.8373,-0.9313,-1.0982,-1.2688,0.0,-1.5994,-1.737,0.0,0.0,0.0,0.0,0.0,-1.5856,-1.518,-1.4647,-1.5314,-1.7362,-1.9069,-2.0921,-2.2871,-2.3594,-2.441,-2.5287,-2.5533,-2.5641,-2.5663,-2.611,-2.6197,-2.5847,-2.3955,-2.2751,-2.1941,-1.9915,-1.839,0.0,0.0,0.0,0.0,0.0,0.0,0.0,0.0,0.0,0.0,0.0,0.0,0.0,0.0,0.0,0.0,0.0,0.0,0.0,0.0,0.0,0.0,0.0,0.0,0.0,0.0,0.0,0.0,0.0,0.0,0.0,0.0,0.0,0.0,0.0,0.0,0.0,-2.7356,-3.0012,0.0,-2.9087,-3.0439,-3.1658,-3.2144,-3.3356,-3.4563,-3.5734,-3.6266,-3.71,-3.8339,-3.8586,-3.9039,-3.9735,-3.9752,-3.9752,-3.9752,-3.9752,-3.9752,-3.9752,-3.9752,-3.9752,-3.9752,-3.9752,-3.9752,-3.9671,-3.8732,-3.7485,-3.6157,-3.5914,-3.538,-3.4862,-3.5558,-3.5817,-3.5914,-0.6908,-0.6908,0.0,-0.6908,-0.6927,-0.7042,-0.7266,-0.7974,-0.8859,-0.9987,-1.1888,-1.372,0.0,0.0,0.0,0.0,0.0,0.0,0.0,0.0,-1.6984,-1.6593,-1.6527,-1.7577,-1.9919,-2.1073,-2.2644,-2.4656,-2.485,-2.5456,-2.6402,-2.6402,-2.6402,-2.6425,-2.7036,-2.7442,-2.7628,-2.673,-2.5514,-2.4075,-2.2827,-2.141,-1.9824,0.0,0.0,0.0,0.0,0.0,0.0,0.0,0.0,0.0,0.0,0.0,0.0,0.0,0.0,0.0,0.0,0.0,0.0,0.0,0.0,0.0,0.0,0.0,0.0,0.0,0.0,0.0,0.0,0.0,0.0,0.0,0.0,0.0,0.0,0.0,-3.0418,-3.0751,-3.3191,-3.4269,-3.2805,-3.3852,-3.4987,-3.5858,-3.6417,-3.7343,-3.8811,-3.8735,-3.9161,-4.027,-4.0148,-4.029,-4.0717,-4.0586,-4.0496,-4.0496,-4.0496,-4.0496,-4.0496,-4.0496,-4.0496,-4.0496,-4.0496,-4.0496,-4.0464,-4.004,-3.925,-3.8343,-3.7873,-3.7404,-3.7064,-3.7517,-3.7651,-3.7744,-0.6908,-0.6908,-0.6908,-0.6916,-0.7009,-0.7107,-0.7115,-0.7976,-0.9107,-1.0434,-1.2508,-1.4589,0.0,0.0,0.0,0.0,0.0,0.0,0.0,-1.8478,-1.7807,-1.7966,-1.883,-1.9943,-2.1365,-2.3317,-2.4666,-2.5358,-2.6019,-2.6395,-2.6441,-2.6441,-2.6441,-2.6502,-2.7354,-2.7749,-2.781,-2.8691,-2.818,-2.6674,-2.5168,-2.3697,-2.2229,0.0,0.0,0.0,0.0,0.0,0.0,0.0,0.0,0.0,0.0,0.0,0.0,0.0,0.0,0.0,0.0,0.0,0.0,0.0,0.0,0.0,0.0,0.0,0.0,0.0,0.0,0.0,0.0,0.0,0.0,0.0,0.0,0.0,-2.8558,-3.131,-3.355,-3.4169,-3.6583,-3.7712,-3.6551,-3.7113,-3.8016,-3.9101,-3.8133,-3.8455,-4.0699,-4.0387,-4.0691,-4.1864,-4.1453,-4.1214,-4.1247,-4.0782,-4.0561,-4.0561,-4.0561,-4.0561,-4.0561,-4.0561,-4.0561,-4.0561,-4.0561,-4.0561,-4.0561,-4.0529,-4.0529,-4.0383,-3.9007,-3.844,-3.844,-3.8468,-3.8452,-3.8448,-0.6908,-0.6908,-0.6927,-0.7026,-0.7075,-0.7179,-0.7422,-0.853,-0.9668,-1.0614,-1.3366,0.0,0.0,0.0,0.0,0.0,0.0,-1.9708,-1.9708,-1.8964,-1.8776,-1.9394,-2.0676,-2.2003,-2.3371,0.0,0.0,0.0,-2.7011,-2.7365,-2.7857,-2.7857,-2.7857,-2.7881,-2.8469,-2.8884,-2.927,-2.984,-2.9738,-2.8991,-2.6911,-2.5524,-2.4543,0.0,0.0,0.0,0.0,0.0,0.0,0.0,0.0,0.0,0.0,0.0,0.0,0.0,0.0,0.0,0.0,0.0,0.0,0.0,0.0,0.0,0.0,0.0,0.0,0.0,0.0,0.0,0.0,0.0,0.0,0.0,0.0,-3.2431,-3.2147,-3.4514,-3.659,-3.7273,-3.901,-3.9883,-3.9266,-4.0141,-4.0888,-4.1167,-4.1426,-4.1551,-4.154,-4.1393,-4.1437,-4.1675,-4.1559,-4.1729,-4.2219,-4.2082,-4.2004,-4.2004,-4.2004,-4.2004,-4.2004,-4.2004,-4.2004,-4.2004,-4.2004,-4.2004,-4.1971,-4.1484,-4.1304,-4.1223,-4.027,-3.9622,-3.9242,-3.9539,-3.9468,-3.9286,-0.6908,-0.6908,-0.6919,-0.7001,-0.7058,-0.7195,-0.7469,-0.87,-0.999,-1.1071,-1.3897,0.0,0.0,0.0,0.0,0.0,0.0,-1.9588,-1.9286,-1.9234,-1.97,-2.0795,0.0,-2.3672,0.0,0.0,0.0,0.0,0.0,0.0,-2.8411,-2.8411,-2.855,-2.8852,-2.932,-2.9838,-3.0387,-3.0847,-3.091,-3.054,-2.8913,-2.7765,-2.686,-2.5355,-2.3968,-2.2685,-2.1755,-2.116,-2.0568,-1.9186,0.0,0.0,0.0,0.0,0.0,0.0,0.0,0.0,0.0,0.0,0.0,0.0,0.0,0.0,0.0,0.0,0.0,0.0,0.0,0.0,0.0,0.0,0.0,0.0,-3.3457,-3.5652,-3.6045,-3.745,-3.8717,-3.9472,-4.0357,-4.092,-4.0986,-4.1464,-4.1957,-4.2457,-4.2595,-4.2712,-4.2826,-4.2492,-4.2484,-4.2886,-4.2534,-4.2488,-4.2881,-4.2711,-4.2602,-4.2602,-4.2602,-4.2602,-4.2602,-4.2602,-4.2602,0.0,-4.2602,-4.2602,-4.257,-4.218,-4.2019,0.0,0.0,0.0,0.0,0.0,-4.0727,-4.0524,-0.6908,-0.6908,-0.6908,-0.6911,-0.7018,-0.7171,-0.7392,-0.8666,-1.0122,-1.1604,0.0,0.0,0.0,0.0,0.0,0.0,0.0,-1.9408,0.0,0.0,0.0,-2.2141,-2.3539,0.0,0.0,0.0,0.0,0.0,0.0,0.0,-2.8411,-2.8488,-2.8842,-2.9412,-2.9913,-3.0502,-3.1119,-3.1534,-3.1658,-3.1473,-3.0802,-2.9966,-2.8976,-2.752,-2.6843,-2.6437,-2.4475,-2.3714,-2.3325,-2.1214,0.0,0.0,0.0,0.0,0.0,0.0,0.0,0.0,0.0,0.0,0.0,0.0,0.0,0.0,0.0,0.0,0.0,0.0,0.0,0.0,0.0,0.0,0.0,0.0,-3.6322,-3.8254,-3.9629,-3.9836,-4.0095,-4.0825,-4.0981,-4.1291,-4.1947,-4.1833,-4.2168,-4.3233,-4.2685,-4.2891,-4.4277,0.0,0.0,0.0,0.0,-4.3553,-4.3553,-4.3064,-4.2845,-4.2845,-4.2845,-4.2845,-4.2845,-4.2845,-4.2845,-4.2845,-4.2845,-4.2797,-4.2716,-4.2716,-4.2683,-4.2473,-4.1144,-4.0906,-4.1337,-4.1688,-4.1848,-4.1791,-0.6908,-0.6908,-0.6927,-0.7042,-0.7083,-0.7203,-0.7507,-0.8726,-1.0122,-1.1604,-1.366,0.0,0.0,0.0,0.0,0.0,0.0,0.0,0.0,0.0,-2.1394,-2.3371,0.0,0.0,0.0,0.0,0.0,0.0,0.0,0.0,0.0,-2.8965,-2.9289,-2.9443,-3.0068,-3.0616,-3.1094,-3.1193,-3.143,-3.1725,-3.1419,-3.0736,-2.9786,-2.8908,-2.7791,-2.664,-2.6218,-2.5676,-2.5017,-2.3968,-2.3415,-2.2934,-2.179,0.0,0.0,0.0,0.0,0.0,0.0,0.0,0.0,0.0,0.0,0.0,0.0,0.0,0.0,0.0,0.0,0.0,0.0,0.0,0.0,-3.6425,-3.8198,-3.9595,-4.0549,-4.067,-4.0739,-4.0877,-4.1429,-4.1843,-4.1999,-4.3045,-4.3855,-4.4069,-4.4483,-4.4692,-4.4623,-4.5099,0.0,-4.5127,-4.5095,-4.5067,-4.5067,-4.4593,-4.4366,-4.4366,0.0,0.0,-4.4366,-4.4366,-4.4366,-4.4366,-4.4366,-4.4043,-4.3508,-4.3508,-4.312,-4.2522,-4.1695,-4.1656,-4.1943,-4.1436,-4.1476,-4.1799,-0.6908,-0.6908,-0.6911,-0.6985,-0.6993,-0.7115,-0.7446,-0.8518,-0.9787,-1.1125,-1.3233,0.0,0.0,0.0,0.0,0.0,0.0,0.0,0.0,0.0,0.0,0.0,0.0,0.0,0.0,0.0,0.0,0.0,0.0,0.0,0.0,0.0,-3.0063,-3.0412,-3.0751,-3.1374,-3.212,-3.1852,-3.1981,-3.2272,-3.1586,-3.0973,-3.0394,-2.9784,-2.9076,-2.8298,-2.7537,-2.7012,-2.6522,-2.5423,-2.4922,-2.4593,-2.3688,-2.2233,-2.0668,0.0,0.0,0.0,0.0,0.0,0.0,0.0,0.0,0.0,0.0,0.0,0.0,0.0,0.0,-3.1007,-3.2145,0.0,-3.6425,-3.8284,-3.9543,-4.0446,-4.0843,-4.0912,-4.105,-4.1412,-4.1792,-4.2309,-4.3086,-4.3845,-4.4466,-4.482,-4.5579,-4.5903,-4.5651,-4.6158,-4.635,-4.6089,-4.5979,-4.5777,-4.5496,-4.5274,-4.5017,-4.4787,-4.4787,-4.4787,-4.4787,-4.4787,-4.4787,-4.4787,-4.4787,-4.4593,-4.4253,-4.4253,-4.3832,-4.3136,-4.3028,-4.2897,-4.273,-4.2601,-4.2715,-4.2864,-0.6908,-0.6908,-0.6908,-0.6908,-0.6908,-0.6993,-0.7298,-0.8221,-0.9329,-1.0609,-1.2591,-1.4269,-1.5306,-1.5845,-1.6458,0.0,0.0,0.0,0.0,0.0,0.0,0.0,0.0,0.0,0.0,0.0,0.0,0.0,0.0,0.0,0.0,0.0,-3.0766,-3.1424,-3.1547,-3.2129,-3.3029,-3.2586,-3.2556,-3.2711,-3.155,-3.1006,-3.0819,-3.0359,-2.9991,-2.9606,-2.8448,-2.7756,-2.7215,-2.6167,-2.5678,-2.5393,-2.4882,-2.3838,-2.2632,-2.1688,-2.0517,0.0,0.0,0.0,0.0,0.0,0.0,0.0,0.0,0.0,-2.9972,-3.0869,-3.2628,-3.4387,-3.5628,-3.6995,-3.8375,-3.9698,-4.0498,-4.0912,-4.0912,-4.0912,-4.117,-4.1912,-4.2154,-4.2792,-4.4173,-4.4432,-4.482,-4.5569,-4.6224,-4.6665,-4.682,-4.7141,-4.7306,-4.7219,-4.6894,-4.6474,-4.5924,-4.5828,-4.5571,-4.5192,-4.5192,-4.5192,-4.5192,-4.5192,-4.5192,-4.5192,-4.5046,-4.4982,-4.4982,-4.4852,-4.4447,-4.3929,-4.4164,-4.3894,-4.3429,-4.3848,-4.4001,-4.3975,-0.6908,-0.6908,-0.6908,-0.6908,-0.6908,-0.6944,-0.7107,-0.7887,-0.8986,-1.0434,-1.1478,-1.2578,-1.3872,-1.4081,-1.4619,-1.5889,0.0,0.0,0.0,0.0,0.0,0.0,0.0,0.0,0.0,0.0,0.0,0.0,0.0,0.0,0.0,0.0,-3.0766,-3.1439,-3.2013,-3.2376,-3.2492,-3.2425,-3.2419,-3.2369,-3.1479,-3.1088,-3.1021,-3.0592,-2.9643,-2.8533,-2.8779,-2.7554,-2.5914,-2.6404,-2.59,-2.5112,-2.5394,-2.5128,-2.4381,-2.2666,0.0,-2.189,-2.1837,-2.2883,-2.4692,-2.7555,-2.7998,-2.9144,0.0,0.0,-3.4835,-3.6322,-3.734,-3.8008,-3.818,-3.8888,-3.9733,-4.0636,-4.0843,-4.0912,-4.0912,-4.0912,-4.117,-4.1912,-4.2637,-4.3396,-4.4225,-4.4889,-4.5604,-4.6424,-4.6562,-4.6906,-4.7562,-4.823,-4.8426,-4.8001,-4.8096,-4.7928,-4.7457,-4.6974,-4.6718,-4.6684,-4.6684,-4.6684,-4.6684,-4.6684,-4.6684,-4.6617,-4.5969,-4.5694,-4.5646,-4.5046,-4.4739,-4.4609,-4.401,-4.3718,-4.3683,-4.3913,-4.4001,-4.3985,-0.6908,-0.6908,-0.6908,-0.6908,-0.6908,-0.6936,-0.7083,-0.7707,-0.8563,-0.9636,-1.0835,-1.192,-1.2886,-1.3468,-1.4034,-1.4588,-1.6159,0.0,-2.0113,0.0,0.0,0.0,0.0,0.0,0.0,0.0,0.0,0.0,0.0,0.0,0.0,0.0,0.0,-3.1439,-3.209,-3.2559,-3.2841,-3.2547,-3.2342,-3.2185,-3.113,-3.0617,-3.0434,-2.9718,-2.8677,-2.7661,-2.8119,-2.7418,0.0,0.0,-2.509,-2.4741,-2.4917,-2.4535,-2.392,-2.3163,-2.3562,0.0,-2.6353,-2.7604,0.0,0.0,-3.2072,-3.3792,-3.5954,-3.6774,-3.7386,-3.8543,-3.941,-3.9945,-3.9945,-4.0204,-4.0653,0.0,-4.155,-4.155,-4.155,-4.155,-4.1654,-4.1964,-4.2309,-4.2982,-4.419,-4.4975,-4.5725,-4.6544,-4.701,-4.7579,-4.8293,-4.9097,-4.9424,-4.9203,-4.8965,-4.8606,-4.8113,-4.7605,-4.7201,-4.6876,-4.6876,-4.6876,-4.6876,-4.6876,-4.6876,-4.686,-4.6552,-4.6439,-4.6407,-4.6131,-4.5759,-4.5387,-4.5326,-4.4835,-4.4033,-4.342,-4.3188,-4.3262,-0.6899,-0.6908,-0.6908,-0.6908,-0.6908,-0.6927,-0.7026,-0.7582,-0.8305,-0.9146,-1.0355,-1.142,-1.2165,-1.2835,-1.3393,-1.3767,-1.5426,-1.7342,0.0,-2.1284,0.0,0.0,0.0,0.0,0.0,0.0,0.0,0.0,0.0,0.0,0.0,0.0,0.0,-3.1136,-3.1628,-3.2071,-3.2384,-3.2017,-3.1792,-3.1616,-3.0552,-2.9946,-2.9525,-2.8616,-2.7527,-2.6569,-2.7258,-2.6759,0.0,0.0,-2.4203,-2.4203,-2.4203,-2.3966,-2.378,-2.4188,-2.5372,-2.7012,-2.9194,0.0,0.0,-3.2916,-3.5237,-3.7166,-3.6933,-3.7991,-3.9227,-3.9853,-4.0468,-4.0912,-4.0912,-4.0912,-4.1153,-4.1895,-4.2016,-4.2016,-4.2016,-4.2016,-4.1905,-4.1723,-4.1895,-4.2534,-4.388,-4.4665,-4.5613,-4.682,-4.7396,-4.8103,-4.9068,-4.955,-4.9696,-4.956,-4.9043,-4.8528,-4.7999,-4.7638,-4.7286,-4.6876,-4.6876,-4.6876,-4.6876,-4.6876,-4.6876,-4.6876,-4.6876,-4.6876,-4.6876,-4.6876,-4.6585,-4.6117,-4.624,-4.5685,-4.4621,-4.3376,-4.2953,-4.3066,-0.6891,-0.6908,-0.6908,-0.6908,-0.6908,-0.6908,-0.6908,-0.7521,-0.8337,-0.927,-1.0066,-1.0858,-1.1728,-1.1839,-1.2377,-1.369,-1.505,-1.6653,-1.8612,-2.0186,0.0,0.0,0.0,0.0,0.0,0.0,0.0,0.0,0.0,0.0,0.0,0.0,0.0,-3.0432,-3.0448,-3.0489,-3.0474,-3.0463,-3.0474,-3.0381,-2.972,-2.9042,-2.8345,-2.7479,-2.6249,-2.5114,-2.6314,0.0,0.0,0.0,-2.3427,-2.3427,-2.3427,-2.3915,0.0,-2.6183,-2.769,0.0,0.0,0.0,-3.2801,-3.4957,-3.678,-3.8255,-3.8945,-3.9887,-4.0645,-4.0662,-4.0799,-4.0912,-4.0912,-4.0912,-4.1153,-4.1895,-4.2016,-4.2016,-4.2016,-4.2016,-4.1716,-4.1015,-4.1567,-4.2327,0.0,-4.3897,-4.5251,-4.7482,-4.77,-4.8344,-4.989,-4.9483,-4.8995,-4.8463,-4.8,-4.7504,-4.6945,-4.6911,-4.6927,-4.6876,-4.6876,-4.6876,-4.6876,-4.6876,-4.6876,-4.6876,-4.6876,-4.6876,-4.6876,-4.6876,-4.6911,-4.6779,-4.61,-4.5809,-4.5598,-4.4188,-4.3795,-4.3972,-0.6891,-0.6908,-0.6908,-0.6908,-0.6908,-0.6908,-0.6908,-0.7521,-0.8208,-0.8789,-1.0047,0.0,0.0,0.0,0.0,0.0,-1.4618,-1.6188,-1.8671,-1.9718,0.0,0.0,0.0,0.0,0.0,0.0,0.0,0.0,0.0,0.0,0.0,0.0,0.0,0.0,-3.0202,-3.0402,-3.0402,-3.0308,-3.0048,-2.9664,-2.8897,-2.8448,-2.8049,-2.6803,-2.5604,-2.4586,0.0,0.0,0.0,0.0,-2.249,-2.2682,-2.2682,0.0,0.0,-2.6556,-2.818,-2.9534,0.0,0.0,-3.5594,-3.6823,-3.8309,-3.951,-3.9838,-4.0192,-4.0324,-3.998,-3.9901,-3.9787,-3.9434,-3.9738,-4.03,-4.1129,-4.2137,-4.2792,-4.2792,-4.3224,-4.3051,-4.1792,-4.2327,0.0,0.0,0.0,0.0,-4.7545,-4.7689,-4.839,-4.9924,-4.983,-4.9637,-4.9471,-4.8623,-4.8081,-4.7901,-4.7236,-4.6876,-4.6876,-4.6876,-4.6876,-4.6876,-4.6876,-4.6876,-4.6876,-4.6876,-4.6876,-4.6876,-4.6876,-4.6876,-4.6894,-4.6617,-4.6228,-4.5743,-4.5273,-4.4529,-4.3783,-0.6891,-0.6908,-0.6908,-0.6908,-0.6908,0.0,0.0,0.0,0.0,0.0,0.0,0.0,0.0,0.0,0.0,0.0,0.0,-1.5648,-1.7662,-1.8659,0.0,0.0,0.0,0.0,0.0,0.0,0.0,0.0,0.0,0.0,0.0,0.0,0.0,0.0,-2.8575,-2.8866,-2.8817,-2.8727,-2.8507,-2.8112,-2.7352,-2.6895,-2.6483,-2.5051,-2.4013,0.0,0.0,0.0,0.0,0.0,0.0,0.0,0.0,0.0,0.0,-2.7238,-2.9181,-3.1219,-3.418,-3.5874,-3.71,-3.8362,-3.9394,-4.0138,-4.0213,-4.0059,-3.9742,-3.9172,-3.8836,-3.8471,-3.79,-3.8136,-3.8871,-4.025,-4.155,-4.2568,-4.312,-4.3828,-4.3828,-4.2585,-4.312,-4.3707,0.0,0.0,0.0,-4.7551,-4.7931,-4.8665,-4.9942,-4.983,-4.9696,-4.9696,-4.8702,-4.8145,-4.8145,-4.7303,-4.6876,-4.6876,-4.6876,-4.6876,-4.6876,-4.6876,-4.6876,-4.6876,-4.6876,-4.6876,-4.6876,-4.6876,-4.6876,-4.6876,-4.6876,-4.6601,-4.6164,-4.5905,-4.5241,-4.435,-0.6874,-0.6908,-0.6908,0.0,0.0,0.0,0.0,0.0,0.0,0.0,0.0,0.0,0.0,0.0,0.0,0.0,0.0,0.0,-1.5754,0.0,0.0,0.0,0.0,-2.1121,-2.3102,-2.3209,-2.3563,0.0,0.0,0.0,0.0,0.0,0.0,0.0,0.0,-2.6016,-2.591,-2.5887,-2.5887,-2.5864,-2.5158,-2.452,-2.3806,-2.2495,0.0,0.0,0.0,0.0,0.0,0.0,0.0,0.0,0.0,0.0,0.0,-2.8273,-3.0729,-3.3869,-3.5518,-3.6456,-3.7472,-3.9588,-4.0096,-4.0096,-4.0045,-3.9561,-3.8935,-3.8167,-3.7535,-3.6895,0.0,0.0,-3.6969,-3.9129,-4.0319,-4.1533,-4.2982,-4.3897,-4.4138,0.0,0.0,0.0,0.0,0.0,0.0,-4.7689,0.0,-4.9137,-4.9959,-4.9483,-4.9209,-4.9209,-4.8226,-4.7704,-4.7704,-4.7167,-4.6876,-4.6876,-4.6876,-4.6876,-4.6876,-4.6876,-4.6876,-4.6876,-4.6876,-4.6876,-4.6876,-4.6876,-4.6876,-4.6876,-4.6876,-4.6876,-4.6811,-4.6115,-4.584,-4.5613,0.0,0.0,0.0,0.0,0.0,0.0,0.0,0.0,0.0,0.0,0.0,0.0,0.0,0.0,0.0,0.0,0.0,0.0,0.0,0.0,0.0,0.0,0.0,0.0,-2.0983,-2.2021,0.0,0.0,0.0,0.0,0.0,0.0,0.0,0.0,0.0,-2.4762,-2.4719,-2.4569,-2.4563,-2.4582,0.0,-2.3328,-2.3168,0.0,0.0,0.0,0.0,0.0,0.0,0.0,0.0,0.0,0.0,0.0,-2.9185,0.0,0.0,-3.5284,-3.6406,-3.7945,-3.9385,-3.996,-4.0096,-3.996,-3.9419,-3.8742,-3.7723,-3.5958,-3.4998,-3.3949,-3.2211,0.0,0.0,-3.6251,-3.9778,0.0,-4.3138,-4.4803,0.0,0.0,0.0,-4.67,-4.6337,-4.7465,0.0,0.0,-4.8689,-4.9137,-4.9959,-4.9483,-4.9209,-4.9209,-4.8226,-4.7704,-4.7704,-4.7167,-4.6876,-4.6876,-4.6876,-4.6876,-4.6876,-4.6876,-4.6876,-4.6876,-4.6876,-4.6876,-4.6876,-4.6876,-4.6876,-4.6876,-4.6876,-4.6876,-4.686,-4.6682,-4.6261,-4.5759,0.0,0.0,0.0,0.0,0.0,0.0,0.0,0.0,0.0,0.0,0.0,0.0,0.0,0.0,0.0,0.0,0.0,0.0,0.0,0.0,0.0,0.0,0.0,0.0,0.0,0.0,0.0,0.0,0.0,0.0,0.0,0.0,0.0,0.0,0.0,0.0,-2.2732,0.0,0.0,0.0,0.0,0.0,0.0,0.0,0.0,0.0,0.0,0.0,0.0,0.0,0.0,-2.6197,-2.7347,-2.9005,-3.0741,-3.178,0.0,-3.6009,-3.6938,-3.8401,-3.9722,-3.9722,-3.947,-3.8933,-3.7588,-3.6279,-3.472,-3.2474,-3.1404,0.0,-2.9143,0.0,0.0,0.0,0.0,0.0,-4.3051,-4.5147,-4.6414,0.0,-4.7241,0.0,-4.7603,-4.8415,-4.8968,0.0,-4.8968,-4.9157,-4.9632,-4.9135,-4.8855,-4.8855,-4.8097,-4.7605,-4.7354,-4.7048,-4.6876,-4.6876,-4.6876,-4.6876,-4.6876,-4.6876,-4.6876,-4.6876,0.0,-4.6876,-4.6876,-4.6876,-4.6876,-4.6876,-4.6876,-4.6876,-4.6876,-4.6876,-4.6633,-4.6228,0.0,0.0,0.0,0.0,0.0,0.0,0.0,0.0,0.0,0.0,0.0,0.0,0.0,0.0,0.0,0.0,0.0,0.0,0.0,0.0,0.0,0.0,0.0,0.0,0.0,0.0,0.0,0.0,0.0,0.0,0.0,0.0,0.0,0.0,0.0,0.0,0.0,0.0,0.0,0.0,0.0,0.0,0.0,0.0,0.0,0.0,0.0,0.0,0.0,0.0,-2.6209,-2.7671,-2.9346,-3.1108,-3.2746,-3.3873,-3.5172,-3.6421,-3.7271,-3.8282,-3.9109,-3.9286,-3.8655,-3.7502,-3.5489,-3.3435,-3.1303,-2.8837,0.0,-2.7112,-2.6601,-2.8648,-3.112,-3.3321,0.0,-4.0382,-4.2819,-4.5121,-4.6576,-4.6652,-4.795,-4.8833,-4.8833,-4.9001,-4.9087,-4.9087,-4.9026,-4.9026,-4.9087,-4.8606,-4.8289,-4.8176,-4.782,-4.7354,-4.6911,-4.6876,-4.6876,-4.6876,-4.6876,-4.6876,-4.6876,-4.6876,-4.6876,-4.6876,-4.6876,0.0,-4.6876,-4.6876,-4.6876,-4.6876,-4.6876,-4.6876,-4.6876,-4.6876,-4.6876,-4.6761,0.0,0.0,0.0,0.0,0.0,0.0,0.0,-0.9906,-1.1203,-1.2061,-1.1354,-1.0885,0.0,0.0,0.0,0.0,0.0,0.0,0.0,0.0,0.0,0.0,0.0,0.0,0.0,0.0,0.0,0.0,0.0,0.0,0.0,0.0,0.0,0.0,0.0,0.0,0.0,0.0,0.0,0.0,0.0,0.0,0.0,0.0,0.0,0.0,0.0,0.0,0.0,0.0,-2.7265,-3.0052,-3.1444,-3.3212,-3.4797,-3.5126,-3.609,-3.7187,-3.7927,-3.8294,-3.8712,-3.9679,-3.8572,-3.6738,-3.5004,-3.2904,0.0,0.0,0.0,-2.559,-2.4267,-2.6944,0.0,-3.1732,0.0,0.0,0.0,0.0,-4.6539,0.0,0.0,0.0,0.0,0.0,0.0,0.0,0.0,-4.8129,-4.8511,-4.8081,-4.7621,-4.7168,-4.7082,-4.6979,-4.6876,-4.6876,-4.6876,-4.6876,-4.6876,-4.6876,-4.6876,-4.6876,-4.6876,-4.6876,-4.6876,0.0,-4.6876,-4.6876,-4.6876,-4.6876,-4.6876,-4.6876,-4.6876,-4.6876,-4.6876,-4.6842,0.0,0.0,0.0,0.0,0.0,0.0,0.0,-1.0704,-1.1988,-1.2991,-1.265,-1.2221,-1.2008,-1.1917,-1.1789,0.0,0.0,0.0,0.0,0.0,0.0,0.0,0.0,0.0,0.0,0.0,0.0,0.0,0.0,0.0,0.0,0.0,0.0,0.0,0.0,0.0,0.0,0.0,0.0,0.0,0.0,0.0,0.0,0.0,0.0,0.0,0.0,0.0,0.0,0.0,-2.6273,-2.9258,-3.1643,-3.3534,-3.4947,-3.5366,-3.5909,-3.6458,-3.7182,-3.7592,-3.7953,-3.8546,-3.731,-3.5275,-3.2646,0.0,0.0,0.0,0.0,-2.3434,-2.27,0.0,0.0,0.0,0.0,0.0,0.0,0.0,0.0,0.0,0.0,0.0,0.0,0.0,0.0,0.0,0.0,-4.7287,-4.8,-4.7555,-4.7167,-4.6927,-4.6876,-4.6876,-4.6876,-4.6876,-4.6876,-4.6876,-4.6876,-4.6876,-4.6876,-4.6876,-4.6876,-4.6876,-4.6876,0.0,-4.6876,-4.6876,-4.6772,-4.6582,-4.6582,-4.6493,-4.6317,-4.6317,-4.6317,-4.6282,0.0,0.0,0.0,0.0,0.0,0.0,0.0,-1.1303,-1.2622,-1.3831,-1.4147,-1.3992,-1.3173,-1.2632,-1.2117,0.0,0.0,0.0,0.0,0.0,0.0,0.0,0.0,0.0,0.0,0.0,0.0,0.0,0.0,0.0,0.0,0.0,0.0,0.0,0.0,0.0,0.0,0.0,0.0,0.0,0.0,0.0,0.0,0.0,0.0,0.0,0.0,0.0,0.0,0.0,-2.4589,-2.7026,-2.995,-3.2321,-3.4181,-3.4829,-3.5245,-3.566,-3.6492,-3.6952,-3.7268,-3.7519,-3.6153,-3.3889,-3.066,-2.816,0.0,0.0,-2.1676,-2.1886,-2.1796,0.0,0.0,0.0,0.0,0.0,0.0,0.0,0.0,0.0,0.0,0.0,0.0,0.0,0.0,0.0,0.0,0.0,-4.7354,-4.7082,-4.6876,-4.6876,-4.6876,-4.6876,-4.6876,-4.6876,-4.6876,-4.6876,-4.6876,-4.6876,-4.6876,-4.6876,-4.6842,-4.6772,-4.6772,0.0,0.0,-4.6668,-4.6493,-4.6195,-4.6195,-4.6032,-4.5796,-4.5796,-4.5796,-4.5724,0.0,0.0,0.0,0.0,0.0,0.0,0.0,-1.1423,-1.3229,-1.4393,-1.5318,-1.5405,-1.4122,-1.3035,-1.2347,0.0,0.0,0.0,0.0,0.0,0.0,0.0,0.0,0.0,0.0,0.0,0.0,0.0,0.0,0.0,0.0,0.0,0.0,0.0,0.0,0.0,0.0,0.0,0.0,0.0,0.0,0.0,0.0,0.0,0.0,0.0,0.0,0.0,0.0,0.0,0.0,-2.3948,-2.5487,-2.9012,-3.2721,-3.3398,0.0,0.0,-3.7006,-3.6952,-3.6831,-3.7953,-3.6056,-3.3257,-3.0817,0.0,0.0,-2.2441,-2.202,-2.2166,-2.1857,-2.2538,0.0,0.0,0.0,0.0,0.0,0.0,0.0,0.0,0.0,0.0,0.0,0.0,0.0,0.0,0.0,0.0,-4.6407,-4.6738,-4.6876,-4.6876,-4.6876,-4.6876,-4.6876,-4.6876,-4.6876,-4.6876,-4.6876,-4.6876,-4.6876,-4.6876,-4.6703,-4.6372,-4.6372,0.0,0.0,-4.5905,-4.5868,-4.5832,-4.5832,-4.5832,-4.5796,-4.5796,-4.5796,-4.5724,0.0,0.0,0.0,0.0,0.0,0.0,-1.0336,-1.1566,-1.3027,-1.4886,-1.5478,-1.5543,-1.4994,-1.4029,-1.2934,-1.1678,0.0,0.0,0.0,0.0,0.0,0.0,0.0,0.0,0.0,0.0,0.0,0.0,0.0,0.0,0.0,0.0,0.0,0.0,0.0,0.0,0.0,0.0,0.0,0.0,0.0,0.0,0.0,0.0,0.0,0.0,0.0,0.0,0.0,0.0,0.0,0.0,-2.2717,-2.5025,0.0,0.0,-3.2567,-3.401,-3.5775,-3.6383,-3.6508,-3.6601,-3.4984,-3.258,-2.9534,0.0,-2.531,-2.1892,-2.1632,-2.1827,-2.1293,-2.1598,-2.2832,-2.556,-2.6217,-2.7935,0.0,0.0,0.0,0.0,0.0,0.0,0.0,0.0,0.0,0.0,0.0,0.0,-4.5619,-4.6195,-4.6652,-4.6876,-4.6876,-4.6876,-4.6876,-4.6668,-4.6547,-4.6547,-4.6317,-4.6262,-4.6262,-4.6262,-4.614,-4.5997,-4.5997,0.0,0.0,-4.5796,-4.5651,-4.5431,-4.5431,-4.5284,-4.5098,-4.5098,-4.5098,-4.5061,0.0,0.0,0.0,0.0,0.0,-0.8876,-1.0455,-1.1305,-1.2531,-1.4703,-1.5104,-1.521,-1.5341,-1.4409,-1.3185,-1.1738,-1.1689,0.0,0.0,0.0,0.0,0.0,0.0,0.0,0.0,0.0,0.0,0.0,0.0,0.0,0.0,0.0,0.0,0.0,0.0,0.0,0.0,0.0,0.0,0.0,0.0,0.0,0.0,0.0,0.0,0.0,0.0,0.0,0.0,0.0,0.0,0.0,0.0,0.0,0.0,0.0,-3.0443,-3.2213,-3.406,-3.5214,-3.5784,-3.5337,-3.3855,-3.1706,0.0,0.0,-2.4663,-2.145,-2.1261,-2.1479,-2.0909,-2.099,-2.1779,0.0,-2.3948,-2.5288,-2.9284,0.0,0.0,0.0,0.0,0.0,0.0,0.0,0.0,0.0,0.0,0.0,0.0,-4.5692,-4.6159,-4.6563,-4.6789,-4.6823,-4.6563,-4.6407,-4.6266,-4.6159,-4.5889,-4.5796,-4.5796,-4.5796,-4.5724,-4.5614,-4.5614,0.0,0.0,-4.5431,-4.5284,-4.5024,-4.5024,-4.4836,-4.461,-4.461,-4.461,-4.461,0.0,0.0,0.0,0.0,0.0,0.0,-0.9328,-1.048,-1.1829,-1.3595,-1.4157,-1.4569,-1.4956,-1.3812,-1.2952,-1.2802,-1.1946,0.0,0.0,0.0,0.0,0.0,0.0,0.0,0.0,0.0,0.0,0.0,0.0,0.0,0.0,0.0,0.0,0.0,0.0,0.0,0.0,0.0,0.0,0.0,0.0,0.0,-1.9797,0.0,0.0,0.0,0.0,0.0,0.0,0.0,0.0,0.0,0.0,0.0,0.0,0.0,-2.828,-3.0709,-3.2074,-3.3457,-3.452,-3.452,-3.2807,-3.055,0.0,-2.613,-2.3816,-2.1321,-2.1071,-2.1198,-2.0844,-2.0794,-2.1164,-2.2248,-2.3929,-2.6009,-2.8642,0.0,0.0,0.0,0.0,0.0,0.0,0.0,0.0,0.0,0.0,0.0,0.0,-4.521,-4.5395,-4.5796,-4.6528,-4.6528,-4.5832,-4.6124,-4.6124,-4.5796,-4.5796,-4.5796,-4.5796,-4.5796,-4.5578,0.0,0.0,0.0,0.0,-4.461,-4.461,-4.461,-4.461,-4.461,-4.461,-4.461,-4.461,-4.461,0.0,0.0,0.0,0.0,0.0,0.0,0.0,-0.9799,-1.0651,-1.2348,-1.2679,-1.3027,-1.3769,-1.3257,-1.2857,-1.2802,-1.2141,0.0,0.0,0.0,0.0,0.0,0.0,0.0,0.0,0.0,-1.6908,-1.7875,-1.8035,0.0,0.0,0.0,0.0,0.0,0.0,0.0,0.0,0.0,0.0,0.0,0.0,-1.7898,-1.8642,0.0,0.0,0.0,0.0,0.0,0.0,0.0,0.0,0.0,0.0,0.0,0.0,-2.1889,-2.4779,0.0,-2.8735,-2.9981,-3.0797,-2.9874,-2.8748,-2.7355,-2.5232,-2.4025,-2.2865,-2.1159,-2.0877,-2.0926,-2.0827,-2.0611,-2.1317,-2.3947,-2.4859,0.0,0.0,0.0,0.0,0.0,0.0,0.0,0.0,0.0,0.0,0.0,0.0,0.0,0.0,-4.5061,-4.5395,-4.5796,-4.6048,-4.6048,-4.5796,-4.5635,-4.5489,-4.5395,-4.5098,-4.4986,-4.4986,-4.4986,0.0,0.0,0.0,0.0,0.0,-4.461,-4.461,-4.461,-4.461,-4.461,-4.461,-4.461,-4.461,-4.461,0.0,0.0,0.0,0.0,0.0,0.0,0.0,-0.8819,-0.9436,-1.1147,-1.1173,-1.1624,-1.3138,-1.2609,-1.2328,-1.2761,-1.2338,0.0,0.0,0.0,0.0,0.0,0.0,0.0,0.0,-1.6174,-1.6878,-1.7906,-1.8183,-1.8648,-1.9232,-1.9008,0.0,0.0,0.0,0.0,0.0,0.0,0.0,0.0,-1.7104,-1.7517,-1.8098,0.0,0.0,0.0,0.0,0.0,0.0,0.0,0.0,0.0,0.0,0.0,0.0,0.0,-2.1689,-2.4415,0.0,-2.7226,-2.8018,-2.7172,-2.6287,-2.5195,-2.364,-2.2735,-2.1958,-2.1032,-2.0712,-2.0662,-2.0811,-2.0544,-2.1057,-2.3409,-2.4225,0.0,0.0,0.0,0.0,0.0,0.0,0.0,0.0,0.0,0.0,0.0,0.0,0.0,0.0,-4.4836,-4.5098,-4.5358,-4.5651,-4.5651,-4.5358,-4.5247,-4.5136,-4.4986,-4.4723,-4.461,-4.461,-4.461,0.0,0.0,0.0,0.0,0.0,-4.461,-4.461,-4.461,-4.461,-4.461,-4.461,-4.461,-4.461,-4.461,0.0,0.0,0.0,0.0,0.0,0.0,0.0,-0.7696,-0.8318,-1.0026,-0.9802,-1.0435,-1.2871,-1.1918,-1.1537,-1.2606,0.0,0.0,0.0,0.0,0.0,0.0,0.0,0.0,0.0,-1.5858,-1.6578,-1.789,-1.7852,-1.8527,-1.9797,-1.9232,-1.857,0.0,0.0,0.0,0.0,0.0,0.0,0.0,-1.7102,-1.7455,0.0,0.0,0.0,0.0,0.0,0.0,0.0,0.0,0.0,0.0,0.0,0.0,0.0,0.0,0.0,0.0,0.0,-2.4912,-2.5927,-2.5896,-2.4927,-2.3856,-2.3225,-2.2135,0.0,-2.0971,-2.0579,-2.0472,-2.1051,-2.072,-2.0687,-2.1704,0.0,0.0,0.0,0.0,0.0,0.0,0.0,0.0,0.0,0.0,0.0,0.0,0.0,0.0,0.0,-4.461,-4.461,-4.461,-4.5321,-4.5358,-4.461,-4.4986,-4.4986,-4.461,-4.461,-4.461,-4.461,-4.461,-4.461,0.0,0.0,0.0,0.0,-4.461,-4.461,-4.461,-4.461,-4.461,-4.461,-4.461,-4.461,-4.461,0.0,0.0,0.0,0.0,0.0,0.0,0.0,0.0,0.0,0.0,-0.9577,-1.0042,-1.1459,-1.1316,-1.1268,0.0,0.0,0.0,0.0,0.0,0.0,0.0,0.0,0.0,0.0,-1.6488,-1.7416,-1.7746,-1.8783,-1.9479,-1.9797,-1.9768,-1.9091,-1.7939,-1.7819,0.0,0.0,0.0,0.0,0.0,-1.6425,-1.6517,0.0,0.0,0.0,0.0,-1.6671,-1.7115,0.0,0.0,0.0,0.0,0.0,0.0,0.0,0.0,-1.8023,-1.8945,-2.0148,0.0,-2.2351,-2.1843,-2.1473,-2.1196,0.0,-2.0749,-2.0663,0.0,0.0,-2.0959,-2.3117,-2.2155,-2.249,0.0,0.0,0.0,0.0,0.0,0.0,0.0,0.0,0.0,0.0,0.0,0.0,0.0,0.0,0.0,0.0,-4.461,-4.461,-4.461,-4.4761,-4.4799,-4.461,-4.4685,-4.4685,-4.461,-4.461,-4.461,-4.461,-4.461,-4.461,0.0,0.0,0.0,-4.461,-4.461,-4.461,-4.461,-4.461,-4.461,-4.461,-4.461,-4.461,-4.461,0.0,0.0,0.0,0.0,0.0,0.0,0.0,0.0,0.0,0.0,0.0,-0.96,-1.094,-1.0991,0.0,0.0,0.0,0.0,0.0,0.0,0.0,0.0,0.0,0.0,-1.4796,-1.6398,-1.7431,-1.7844,-1.8884,-1.9582,-1.994,-2.001,-1.948,-1.8476,-1.7898,-1.7089,0.0,0.0,0.0,-1.6194,-1.6194,0.0,0.0,0.0,0.0,0.0,-1.6194,-1.6624,0.0,-1.7562,-1.8392,-1.9117,0.0,0.0,0.0,0.0,-1.7224,-1.79,-1.8607,-2.0025,-2.1288,-2.1227,-2.1211,-2.1211,-2.1211,0.0,0.0,0.0,0.0,-2.0895,-2.2839,0.0,0.0,0.0,0.0,0.0,0.0,0.0,0.0,0.0,0.0,0.0,0.0,0.0,0.0,0.0,0.0,0.0,0.0,-4.461,-4.461,-4.461,-4.461,-4.461,-4.461,-4.461,-4.461,-4.461,-4.461,-4.461,-4.461,-4.461,-4.461,0.0,0.0,0.0,-4.461,-4.461,-4.461,-4.461,-4.461,-4.461,-4.461,-4.461,-4.461,-4.461,0.0,0.0,0.0,0.0,0.0,0.0,0.0,0.0,0.0,0.0,0.0,0.0,0.0,0.0,0.0,0.0,0.0,0.0,0.0,0.0,0.0,0.0,0.0,-1.4109,-1.4796,-1.6174,-1.73,-1.8139,-1.8879,-1.9565,-2.0253,-2.0253,-1.9794,-1.8893,-1.7716,-1.6824,0.0,0.0,0.0,-1.6194,-1.6194,0.0,0.0,0.0,0.0,0.0,0.0,0.0,0.0,-1.77,-1.8454,-1.8993,-1.8161,0.0,0.0,0.0,0.0,0.0,-1.8253,-1.9962,-2.1535,-2.1904,-2.2151,-2.2255,-2.2182,0.0,0.0,0.0,0.0,0.0,0.0,0.0,0.0,0.0,0.0,0.0,0.0,0.0,0.0,0.0,0.0,0.0,0.0,0.0,0.0,0.0,0.0,0.0,0.0,-4.461,-4.461,-4.461,-4.461,-4.461,-4.461,-4.461,-4.461,-4.461,-4.461,-4.461,-4.461,-4.461,-4.461,-4.461,0.0,0.0,-4.461,-4.461,-4.461,-4.461,-4.461,-4.461,-4.461,-4.461,-4.461,-4.461,0.0,0.0,0.0,0.0,0.0,0.0,0.0,0.0,0.0,0.0,0.0,0.0,0.0,0.0,0.0,0.0,0.0,0.0,0.0,0.0,0.0,0.0,-1.3436,-1.4109,-1.4796,-1.6729,-1.8056,-1.8753,-2.0119,-2.0828,-2.0956,-2.0956,-1.9993,-1.822,-1.7516,-1.6824,-1.6194,0.0,0.0,-1.6194,0.0,0.0,0.0,0.0,0.0,0.0,0.0,0.0,0.0,-1.6471,-1.7331,-1.8146,-1.6901,0.0,0.0,0.0,0.0,0.0,-1.9332,-2.1042,-2.1904,-2.0857,-2.1458,-2.2151,-2.1581,0.0,0.0,0.0,0.0,0.0,0.0,0.0,0.0,0.0,0.0,0.0,0.0,0.0,0.0,0.0,0.0,0.0,0.0,0.0,0.0,0.0,0.0,0.0,0.0,-4.461,-4.461,-4.461,-4.461,-4.461,-4.461,-4.461,-4.461,-4.461,-4.461,-4.461,-4.461,-4.461,-4.461,-4.461,0.0,-4.461,-4.461,-4.461,-4.461,-4.461,-4.461,-4.461,-4.461,-4.461,-4.461,-4.461,0.0,0.0,0.0,0.0,0.0,0.0,0.0,0.0,0.0,0.0,0.0,0.0,0.0,0.0,0.0,0.0,0.0,0.0,0.0,0.0,0.0,-1.3301,-1.4332,-1.502,-1.5335,-1.7015,-1.8254,-1.8953,-2.0015,-2.061,-2.0663,-2.0295,-1.9418,-1.8129,-1.7485,-1.6824,-1.6194,-1.6194,-1.6194,-1.6194,0.0,0.0,0.0,0.0,0.0,0.0,0.0,0.0,0.0,0.0,-1.7393,-1.8038,-1.7055,0.0,0.0,0.0,0.0,0.0,-1.8638,-2.0162,-2.1242,-2.135,-2.2967,-2.4538,-2.4585,0.0,0.0,0.0,0.0,0.0,0.0,0.0,0.0,0.0,0.0,0.0,0.0,0.0,0.0,0.0,0.0,0.0,0.0,0.0,0.0,0.0,0.0,0.0,0.0,0.0,-4.3679,-4.4055,-4.4071,-4.424,-4.461,-4.461,-4.461,-4.461,-4.461,-4.461,-4.461,-4.461,-4.461,-4.461,0.0,-4.461,-4.461,-4.461,-4.461,-4.461,-4.461,-4.461,-4.461,-4.461,-4.461,-4.461,0.0,0.0,0.0,0.0,0.0,0.0,0.0,0.0,0.0,0.0,0.0,0.0,0.0,0.0,0.0,0.0,0.0,0.0,0.0,0.0,-1.2927,-1.3676,-1.4903,-1.5769,-1.6233,-1.7497,-1.8514,-1.9214,-2.0006,-2.0415,-2.0518,-1.9857,-1.907,-1.8161,-1.75,-1.6824,-1.6194,-1.6194,-1.6194,-1.6194,0.0,0.0,0.0,0.0,0.0,0.0,0.0,0.0,0.0,0.0,0.0,0.0,0.0,0.0,0.0,-1.6978,-1.6563,-1.6793,-1.8468,-1.9592,-2.0687,-2.2351,-2.4102,-2.5764,-2.7088,0.0,0.0,0.0,0.0,0.0,0.0,0.0,0.0,0.0,0.0,0.0,0.0,0.0,0.0,0.0,0.0,0.0,0.0,0.0,0.0,0.0,0.0,0.0,0.0,0.0,-4.2833,-4.3362,-4.3393,-4.3624,-4.411,-4.411,-4.4279,-4.461,-4.461,-4.461,-4.461,-4.461,-4.461,-4.461,-4.461,-4.461,-4.461,-4.461,-4.461,-4.461,-4.461,-4.461,-4.461,-4.461,-4.461,-4.461,0.0,0.0,0.0,0.0,0.0,0.0,0.0,0.0,0.0,0.0,0.0,0.0,0.0,0.0,0.0,0.0,0.0,0.0,0.0,0.0,-1.2402,-1.3403,-1.4348,-1.5725,-1.7519,-1.8465,-1.9245,-1.9929,-2.0781,-2.1227,-2.1211,-2.0551,-1.95,-1.8161,-1.75,-1.6824,-1.6194,-1.6194,-1.6194,-1.6194,-1.6194,0.0,0.0,0.0,0.0,0.0,0.0,0.0,0.0,0.0,0.0,0.0,0.0,0.0,-1.8192,-1.8069,-1.7623,-1.7715,-2.0347,-2.0687,-2.0919,-2.3517,-2.3363,0.0,-2.6657,-2.6318,0.0,0.0,0.0,0.0,0.0,0.0,0.0,0.0,0.0,0.0,0.0,0.0,0.0,0.0,0.0,0.0,0.0,0.0,0.0,0.0,0.0,0.0,0.0,0.0,0.0,-4.2679,-4.2679,-4.2709,-4.2756,-4.2756,-4.3371,-4.461,-4.461,-4.461,-4.461,-4.461,-4.461,-4.461,-4.461,-4.461,-4.461,-4.461,-4.461,-4.461,-4.461,-4.461,-4.461,-4.461,-4.461,-4.461,0.0,0.0,0.0,0.0,0.0,0.0,0.0,0.0,0.0,0.0,0.0,0.0,0.0,0.0,0.0,0.0,0.0,0.0,0.0,0.0,-1.3002,-1.4216,-1.501,-1.6158,-1.7734,-1.8588,-1.9339,-2.0063,-2.0481,-2.069,-2.0641,-1.9516,-1.8715,-1.8161,-1.7055,-1.644,-1.6194,-1.6194,-1.6194,-1.6194,-1.6194,-1.6194,0.0,0.0,0.0,0.0,0.0,0.0,0.0,0.0,-1.6286,-1.7131,-1.6701,-1.7039,-1.7577,-1.7577,-1.7101,-1.7085,-1.9409,-2.0489,-2.1473,-2.3733,0.0,0.0,0.0,0.0,0.0,0.0,0.0,0.0,0.0,0.0,0.0,0.0,0.0,0.0,0.0,0.0,0.0,0.0,0.0,0.0,0.0,0.0,0.0,0.0,0.0,0.0,0.0,0.0,0.0,-4.1971,-4.1986,-4.2186,-4.2602,-4.2602,-4.2848,-4.3356,-4.3356,-4.3356,-4.3356,-4.3356,-4.3356,-4.3356,-4.3356,-4.3356,-4.3356,-4.3356,-4.3356,-4.3402,-4.384,-4.424,-4.461,-4.461,-4.461,-4.461,0.0,0.0,0.0,0.0,0.0,0.0,0.0,0.0,0.0,0.0,0.0,0.0,0.0,0.0,0.0,0.0,0.0,0.0,0.0,-1.2175,-1.2948,-1.4003,-1.4797,-1.5841,-1.7196,-1.8214,-1.9071,-1.9794,-2.0145,-2.0196,-1.9965,-1.8992,-1.8407,-1.8161,-1.7024,-1.6531,-1.6502,-1.63,-1.6194,-1.6194,-1.6194,-1.6194,0.0,0.0,0.0,0.0,0.0,0.0,0.0,0.0,-1.5808,-1.6563,-1.6517,-1.6824,-1.7239,-1.7454,-1.7361,-1.753,-1.9179,-2.0443,-2.1781,0.0,0.0,0.0,0.0,0.0,0.0,0.0,0.0,0.0,0.0,0.0,0.0,0.0,0.0,0.0,0.0,0.0,0.0,0.0,0.0,0.0,0.0,0.0,0.0,0.0,0.0,0.0,0.0,0.0,0.0,0.0,-4.1263,-4.1478,-4.194,-4.1955,-4.1955,-4.1955,-4.1955,-4.2186,-4.2602,-4.2602,-4.2602,-4.2602,-4.2602,-4.2602,-4.2602,-4.2602,-4.2602,-4.2648,-4.3094,-4.3701,-4.4302,-4.4302,-4.4425,-4.461,0.0,0.0,0.0,0.0,0.0,0.0,0.0,0.0,0.0,0.0,0.0,0.0,0.0,0.0,0.0,0.0,0.0,0.0,-1.14,-1.1648,-1.1989,-1.2386,-1.3374,-1.4554,-1.5966,-1.7364,-1.8419,-1.9107,-1.9914,-1.995,-1.9287,-1.9287,-1.8901,-1.8161,-1.75,-1.7208,-1.7147,-1.6471,-1.6194,-1.6194,-1.6194,-1.6194,-1.6194,0.0,0.0,0.0,0.0,0.0,0.0,0.0,-1.5193,-1.5439,-1.6763,-1.7193,-1.7331,-1.8007,-1.8715,-1.9441,-2.0119,-2.0795,0.0,0.0,0.0,0.0,0.0,0.0,0.0,0.0,0.0,0.0,0.0,0.0,0.0,0.0,0.0,0.0,0.0,0.0,0.0,0.0,0.0,0.0,0.0,0.0,0.0,0.0,0.0,0.0,0.0,0.0,0.0,0.0,-4.0489,-4.0489,-4.0489,-4.0489,-4.0489,-4.0489,-4.0489,-4.1212,-4.2586,-4.2586,-4.2586,-4.2586,-4.2586,-4.2586,-4.2586,-4.2586,-4.2586,-4.2602,-4.2602,-4.2987,-4.3593,-4.3593,-4.4024,-4.4594,0.0,0.0,0.0,0.0,0.0,0.0,0.0,0.0,0.0,0.0,0.0,0.0,0.0,0.0,0.0,0.0,0.0,0.0,-1.167,-1.1772,-1.2078,-1.2724,-1.3482,-1.4364,-1.5364,-1.6736,-1.8053,-1.9237,-1.9471,-1.9224,-1.853,-1.853,-1.8161,-1.7485,-1.7285,-1.6932,-1.6471,-1.6271,-1.6194,-1.6194,-1.6194,-1.6194,-1.6194,0.0,0.0,0.0,0.0,0.0,0.0,0.0,0.0,0.0,-1.6363,-1.6824,-1.7239,-1.7439,-1.7992,-1.8684,-1.941,-2.1458,0.0,0.0,0.0,0.0,0.0,0.0,0.0,0.0,0.0,0.0,0.0,0.0,0.0,0.0,0.0,0.0,0.0,0.0,0.0,0.0,0.0,0.0,0.0,0.0,0.0,0.0,0.0,0.0,0.0,0.0,0.0,0.0,-4.0489,-4.0489,-4.0489,-4.0489,-4.0489,-4.0489,-4.0489,-4.0705,-4.1105,-4.1105,-4.1105,-4.1105,-4.1105,-4.1105,-4.1105,-4.1105,-4.1447,-4.1909,-4.1909,-4.2309,-4.2894,-4.2894,-4.3017,-4.3248,0.0,0.0,0.0,0.0,0.0,0.0,0.0,0.0,0.0,0.0,0.0,-0.8837,0.0,0.0,0.0,0.0,0.0,0.0,0.0,0.0,-1.2159,-1.2832,-1.3322,-1.4196,-1.5509,-1.6365,-1.7223,-1.8069,-1.8608,-1.8361,-1.7423,-1.8253,-1.8269,-1.7608,-1.79,-1.7638,-1.6978,-1.6701,-1.644,-1.6194,-1.6194,-1.6194,-1.6163,0.0,0.0,0.0,0.0,0.0,0.0,0.0,0.0,0.0,-1.5808,-1.6256,-1.6793,-1.6793,-1.7869,-1.9254,-2.0225,0.0,0.0,0.0,0.0,0.0,0.0,0.0,0.0,0.0,0.0,0.0,0.0,0.0,0.0,0.0,0.0,0.0,0.0,0.0,0.0,0.0,0.0,0.0,0.0,0.0,0.0,0.0,0.0,0.0,0.0,0.0,0.0,0.0,-4.0489,-4.0489,-4.0489,-4.0489,-4.0489,-4.0489,-4.0489,-4.0489,-4.0489,-4.0489,-4.0489,-4.0489,-4.0489,-4.0489,-4.0489,-4.0489,-4.0751,-4.117,-4.117,-4.1601,-4.2202,-4.2202,-4.2371,-4.2663,0.0,0.0,-0.6908,-0.6908,0.0,0.0,0.0,0.0,0.0,0.0,-0.8279,-0.8889,0.0,0.0,0.0,-1.0693,0.0,0.0,0.0,0.0,-1.2166,-1.2782,-1.3111,-1.4206,-1.6148,-1.6147,-1.6102,-1.6102,-1.7393,-1.7362,-1.6162,-1.8223,-1.8808,-1.8146,-1.887,-1.8761,0.0,-1.73,-1.6624,-1.601,-1.6071,-1.6071,-1.5962,-1.5408,0.0,0.0,0.0,0.0,0.0,0.0,0.0,0.0,-1.5285,-1.5747,-1.63,-1.63,-1.8146,-2.0505,-2.1843,0.0,0.0,0.0,0.0,0.0,0.0,0.0,0.0,0.0,0.0,0.0,0.0,0.0,0.0,0.0,0.0,0.0,0.0,0.0,0.0,0.0,0.0,0.0,0.0,0.0,0.0,0.0,0.0,0.0,0.0,0.0,0.0,-4.0397,-4.0397,-4.0428,-4.0489,-4.0489,-4.0489,-4.0489,-4.0489,-4.0489,-4.0489,-4.0489,-4.0489,-4.0489,-4.0489,-4.0489,-4.0489,-4.0489,-4.0489,-4.0489,-4.0489,-4.0889,-4.1509,-4.1509,-4.1894,-4.2432,0.0,0.0,-0.6908,-0.6908,0.0,0.0,0.0,0.0,-0.7562,-0.7692,-0.8639,-0.9356,-0.9485,-1.0224,0.0,-1.0693,-1.1127,0.0,0.0,0.0,-1.2214,-1.2924,-1.4056,-1.5156,-1.6177,-1.5685,-1.5424,-1.5424,-1.6239,-1.621,-1.5455,-1.75,-1.8069,-1.7439,-1.813,-1.7761,-1.6578,-1.5916,-1.5239,-1.4683,-1.5193,-1.5101,-1.467,-1.5055,-1.487,0.0,0.0,0.0,0.0,0.0,0.0,0.0,-1.5979,-1.644,-1.6978,-1.6978,-1.8192,-1.9811,0.0,0.0,0.0,0.0,0.0,0.0,0.0,0.0,0.0,0.0,0.0,0.0,0.0,0.0,0.0,0.0,0.0,0.0,0.0,0.0,0.0,0.0,0.0,0.0,0.0,0.0,0.0,0.0,0.0,0.0,0.0,0.0,0.0,-3.969,-3.9705,-3.9951,-4.0489,-4.0489,-4.0489,0.0,-4.0489,-4.0489,-4.0489,-4.0489,-4.0489,-4.0489,-4.0489,-4.0489,-4.0489,-4.0489,-4.0489,-4.0489,-4.0489,-4.0597,-4.072,-4.072,-4.0812,-4.1012,0.0,0.0,0.0,0.0,0.0,0.0,0.0,0.0,-0.7696,-0.7696,-0.8743,-0.9498,-0.9498,-1.0092,0.0,0.0,-1.0977,-1.1242,0.0,0.0,0.0,-1.3008,-1.405,-1.4819,-1.5239,-1.459,-1.4406,-1.4716,-1.507,-1.5393,0.0,-1.7761,-1.8546,-1.8223,-1.8577,-1.7961,-1.6624,-1.5962,-1.5116,-1.4236,-1.459,-1.4501,-1.4206,-1.4236,-1.4221,-1.416,-1.3836,0.0,0.0,0.0,0.0,0.0,0.0,0.0,-1.6717,-1.6717,-1.7946,-1.9657,0.0,0.0,0.0,0.0,0.0,0.0,0.0,0.0,0.0,0.0,0.0,0.0,0.0,0.0,0.0,0.0,0.0,0.0,0.0,0.0,0.0,0.0,0.0,0.0,0.0,0.0,0.0,0.0,0.0,0.0,0.0,-3.8508,-3.8677,-3.9031,-3.9031,-3.92,-3.9521,-3.9844,-4.0013,-4.0013,-4.0336,-4.0489,-4.0489,-4.0489,-4.0489,-4.0489,-4.0489,-4.0489,-4.0489,-4.0489,-4.0489,-4.0489,-4.0489,-4.0489,-4.0489,-4.0489,-4.0489,-4.0551,0.0,0.0,0.0,0.0,0.0,0.0,0.0,0.0,0.0,-0.7852,-0.89,-0.963,-0.963,-1.0086,-1.0437,0.0,0.0,0.0,-1.1341,0.0,0.0,0.0,-1.3753,-1.413,-1.4206,-1.3529,-1.359,-1.4363,-1.4267,0.0,0.0,0.0,0.0,-1.9287,-1.9179,-1.833,-1.6978,-1.6193,-1.507,-1.3867,-1.3975,-1.3959,-1.3806,-1.3371,-1.3467,-1.3806,-1.3359,-1.3559,-1.416,-1.4932,0.0,0.0,0.0,0.0,-1.6054,-1.6177,-1.7422,-1.921,0.0,0.0,0.0,0.0,0.0,0.0,0.0,0.0,0.0,0.0,0.0,0.0,0.0,0.0,0.0,0.0,0.0,0.0,0.0,0.0,0.0,0.0,0.0,0.0,0.0,0.0,0.0,0.0,0.0,0.0,-3.8138,-3.8154,-3.8215,-3.8323,-3.8338,-3.8385,-3.8508,-3.9062,-3.9339,-3.9321,-3.9874,-4.0213,-4.032,-4.032,-4.0382,-4.0489,-4.0489,-4.0489,-4.0489,-4.0489,-4.0489,-4.0489,-4.0489,-4.0489,-4.0489,-4.0489,-4.0489,-4.0489,0.0,0.0,0.0,0.0,0.0,0.0,0.0,0.0,0.0,0.0,-0.9478,-1.0195,-1.0195,-1.0457,-1.0572,-1.0362,-1.0952,-1.131,0.0,0.0,0.0,0.0,-1.3777,-1.413,-1.4206,-1.3529,-1.3806,-1.507,0.0,0.0,0.0,0.0,0.0,-1.9271,0.0,0.0,-1.624,-1.4993,-1.3682,-1.2523,-1.3109,-1.2985,-1.2523,-1.3016,-1.2882,-1.2523,-1.3032,-1.3251,-1.3513,-1.4791,-1.5193,0.0,0.0,0.0,0.0,-1.6039,-1.6408,-1.7084,0.0,0.0,0.0,0.0,0.0,0.0,0.0,0.0,0.0,0.0,0.0,0.0,0.0,0.0,0.0,0.0,0.0,0.0,0.0,0.0,0.0,0.0,0.0,0.0,0.0,0.0,0.0,0.0,0.0,0.0,-3.6753,-3.6769,-3.703,-3.7615,-3.7631,-3.7923,-3.8508,-3.86,-3.8646,-3.8646,-3.8739,-3.9059,-3.9613,-3.9613,-3.9936,-4.0489,-4.0489,-4.0489,-4.0489,-4.0489,-4.0489,-4.0489,-4.0489,-4.0489,-4.0489,-4.0489,-4.0489,-4.0489,0.0,0.0,0.0,0.0,0.0,0.0,0.0,0.0,0.0,0.0,0.0,-1.0299,-1.0299,-1.0412,-1.0498,-1.0523,-1.0883,0.0,0.0,0.0,0.0,0.0,-1.288,-1.3056,-1.3078,-1.2785,-1.3109,-1.4083,0.0,0.0,0.0,-1.8777,-1.9594,0.0,0.0,0.0,0.0,0.0,-1.399,-1.2754,-1.2677,-1.314,-1.379,-1.297,-1.317,-1.3775,-1.2939,-1.2647,-1.2847,-1.419,-1.4652,-1.4763,-1.5424,0.0,0.0,0.0,0.0,0.0,0.0,0.0,0.0,0.0,0.0,0.0,0.0,0.0,0.0,0.0,0.0,0.0,0.0,0.0,0.0,0.0,0.0,0.0,0.0,0.0,0.0,0.0,0.0,0.0,0.0,0.0,0.0,0.0,0.0,-3.6492,-3.6492,-3.6492,-3.663,-3.6923,-3.6938,-3.7076,-3.7384,-3.7754,-3.8138,-3.8508,-3.8508,-3.8662,-3.897,-3.9339,-3.9859,-4.0489,-4.0489,-4.0489,-4.0489,-4.0489,-4.0489,-4.0489,-4.0489,-4.0489,-4.0489,-4.0489,-4.0489,-4.0489,0.0,0.0,0.0,0.0,0.0,0.0,0.0,0.0,0.0,0.0,0.0,-1.0299,-1.0299,0.0,0.0,0.0,-1.0991,0.0,0.0,0.0,0.0,0.0,0.0,-1.22,-1.22,-1.22,-1.2523,0.0,0.0,0.0,-1.8499,-1.9039,-2.0566,0.0,-2.1411,-1.9839,0.0,0.0,0.0,-1.3929,-1.3417,-1.4113,-1.5347,-1.4372,-1.4942,-1.6006,-1.4129,-1.3467,0.0,0.0,0.0,0.0,0.0,0.0,0.0,0.0,0.0,0.0,0.0,0.0,0.0,0.0,0.0,0.0,0.0,0.0,0.0,0.0,0.0,0.0,0.0,0.0,0.0,0.0,0.0,0.0,0.0,0.0,0.0,0.0,0.0,0.0,0.0,0.0,0.0,0.0,0.0,-3.6492,-3.6492,-3.6492,-3.6492,-3.6492,-3.6492,-3.6492,-3.6492,-3.6999,-3.7507,-3.8,-3.8,-3.8077,-3.8262,-3.8769,-3.9351,-3.9997,-4.0336,-4.0489,-4.0489,-4.0489,-4.0489,-4.0489,-4.0489,-4.0489,-4.0489,-4.0489,-4.0489,-4.0489,0.0,0.0,0.0,0.0,0.0,0.0,0.0,0.0,0.0,0.0,0.0,-1.0299,-1.0299,-1.0741,-1.0991,-1.0801,-1.1437,0.0,0.0,0.0,0.0,0.0,0.0,0.0,-1.22,-1.22,0.0,0.0,0.0,0.0,-1.924,-1.9271,-2.1042,-2.4148,-2.2794,-2.0716,-1.8161,0.0,0.0,-1.6039,-1.6008,-1.6054,-1.6346,-1.8207,-1.8994,-1.8901,-1.7454,0.0,0.0,0.0,0.0,0.0,0.0,0.0,-1.4129,0.0,0.0,0.0,0.0,0.0,0.0,0.0,0.0,0.0,0.0,0.0,0.0,0.0,0.0,0.0,0.0,0.0,0.0,0.0,0.0,0.0,0.0,0.0,0.0,0.0,0.0,0.0,0.0,0.0,0.0,0.0,0.0,-3.6492,-3.6492,-3.6492,-3.6492,-3.6492,-3.6492,-3.6492,-3.6492,-3.6522,-3.6569,-3.6599,-3.6599,-3.6938,-3.7554,-3.7584,-3.7984,-3.8677,-3.9936,-4.0489,-4.0489,-4.0489,-4.0489,-4.0489,-4.0489,-4.0489,-4.0489,-4.0489,-4.0489,-4.0489,0.0,0.0,0.0,0.0,0.0,0.0,0.0,0.0,0.0,0.0,0.0,0.0,0.0,-1.0656,-1.0873,-1.0801,-1.1404,0.0,0.0,0.0,0.0,0.0,0.0,0.0,0.0,0.0,0.0,0.0,0.0,-1.4187,-1.733,-1.8176,-1.9485,-2.1119,-2.1951,-2.1501,-2.0085,-1.8514,0.0,-1.684,-1.684,-1.79,-1.9408,-1.8823,-1.9962,-2.1581,0.0,0.0,0.0,0.0,0.0,0.0,-1.5332,-1.4732,-1.399,-1.2878,0.0,0.0,0.0,0.0,0.0,0.0,0.0,0.0,0.0,0.0,0.0,0.0,0.0,0.0,0.0,0.0,0.0,0.0,0.0,0.0,0.0,0.0,0.0,0.0,0.0,0.0,0.0,0.0,0.0,0.0,0.0,0.0,-3.6492,-3.6492,-3.6492,-3.6492,-3.6492,-3.6492,-3.6492,-3.6492,-3.6492,-3.6492,-3.6492,-3.6615,-3.6861,-3.7292,-3.7631,-3.7923,-3.8831,-3.9444,-3.9844,-3.9844,-4.0105,-4.0489,-4.0489,-4.0489,-4.0489,-4.0489,-4.0489,-4.0489,0.0,0.0,0.0,-0.8902,0.0,-0.8005,-0.8005,-0.8524,-0.8902,-0.8902,0.0,0.0,0.0,0.0,-1.0979,-1.1187,-1.1549,-1.1816,-1.1938,0.0,0.0,0.0,0.0,0.0,0.0,0.0,0.0,0.0,0.0,0.0,0.0,-1.7009,-1.8161,-1.9333,-2.021,-2.0716,0.0,0.0,0.0,-1.8269,0.0,-1.987,-2.1319,0.0,-2.2744,0.0,0.0,0.0,0.0,0.0,0.0,0.0,-1.6223,-1.4947,-1.3652,-1.2523,-1.3478,0.0,0.0,0.0,0.0,0.0,0.0,0.0,0.0,0.0,0.0,0.0,0.0,0.0,0.0,0.0,0.0,0.0,0.0,0.0,0.0,0.0,0.0,0.0,0.0,0.0,0.0,0.0,0.0,0.0,0.0,0.0,-3.6492,-3.6492,-3.6492,-3.6492,-3.6492,-3.6492,-3.6492,-3.6492,-3.6492,-3.6492,-3.6492,-3.6492,-3.6507,-3.6953,-3.7153,-3.7184,-3.7646,-3.8354,-3.9167,-3.9398,-3.9751,-4.0182,-4.0397,-4.0489,-4.0489,-4.0489,-4.0489,-4.0489,-1.0195,-0.988,-0.9524,-0.9524,-0.9031,-0.8631,-0.8631,-0.9133,-0.9511,-0.9524,0.0,0.0,0.0,0.0,0.0,-1.1968,-1.1979,-1.1996,-1.2179,-1.22,0.0,0.0,0.0,0.0,0.0,0.0,0.0,0.0,0.0,0.0,0.0,0.0,-1.7222,-1.9117,-1.7761,-1.8299,-2.0212,0.0,-2.0273,-2.0456,0.0,-2.192,-2.1951,0.0,0.0,0.0,-2.6479,-2.5995,0.0,-2.2347,0.0,0.0,0.0,-1.5393,-1.314,-1.2477,-1.3247,0.0,0.0,0.0,0.0,0.0,0.0,0.0,0.0,0.0,0.0,0.0,0.0,0.0,0.0,0.0,0.0,0.0,0.0,0.0,0.0,0.0,0.0,0.0,0.0,0.0,0.0,0.0,0.0,0.0,0.0,-3.6492,-3.6492,-3.6492,-3.6492,-3.6492,-3.6492,-3.6492,-3.6492,-3.6492,-3.6492,-3.6492,-3.6492,-3.6492,-3.6492,-3.6492,-3.6492,-3.6492,-3.6492,-3.723,-3.8492,-3.9136,-3.9444,-3.9551,-4.0213,-4.0474,-4.0489,-4.0489,-4.0489,-4.0489,-1.0195,-1.0182,-1.0077,-1.0077,-0.9619,-0.9251,-0.9251,-0.9393,-0.9642,0.0,0.0,0.0,-1.0978,-1.1558,-1.2062,-1.2332,-1.2614,-1.2448,-1.1733,-1.1912,-1.207,-1.207,-1.2101,-1.2133,-1.2133,0.0,0.0,0.0,0.0,0.0,0.0,0.0,0.0,0.0,-1.6439,-1.7069,-1.8053,-1.8053,0.0,0.0,-2.1088,-2.2505,0.0,0.0,0.0,0.0,0.0,-2.7719,-2.7365,0.0,-2.4277,-2.1932,0.0,0.0,-1.4609,-1.4409,-1.5316,-1.6148,-1.5193,0.0,0.0,0.0,0.0,0.0,0.0,0.0,0.0,0.0,0.0,0.0,0.0,0.0,0.0,0.0,0.0,0.0,0.0,0.0,0.0,0.0,0.0,0.0,0.0,0.0,0.0,0.0,-3.6492,-3.6492,-3.6492,-3.6492,-3.6492,-3.6492,-3.6492,-3.6492,-3.6492,-3.6492,-3.6492,-3.6492,-3.6492,-3.6492,-3.6492,-3.6492,-3.6492,-3.6492,-3.6492,-3.6707,-3.7107,-3.7784,-3.8631,-3.9539,-3.969,-4.0059,-4.0489,-4.0489,-4.0489,-4.0489,-1.0195,-1.0299,-1.0378,-1.0625,-1.0599,-1.0547,-1.0547,-1.0756,-1.0939,0.0,0.0,0.0,-1.1899,-1.2469,-1.2844,-1.2879,-1.2906,-1.2651,-1.1966,-1.198,-1.2002,-1.2002,-1.2033,-1.208,-1.2101,-1.2133,0.0,0.0,0.0,0.0,0.0,0.0,0.0,-1.4363,-1.447,-1.5378,-1.6747,-1.6193,0.0,0.0,-2.172,0.0,0.0,-2.648,-2.7919,0.0,0.0,0.0,-2.9125,-2.8473,-2.6226,0.0,0.0,-1.8084,-1.673,-1.587,-1.6777,-1.7792,-1.6408,0.0,0.0,0.0,0.0,0.0,0.0,0.0,0.0,0.0,0.0,0.0,0.0,0.0,0.0,0.0,0.0,0.0,0.0,0.0,0.0,0.0,0.0,0.0,0.0,0.0,0.0,-3.6492,-3.6492,-3.6492,-3.6492,-3.6492,-3.6492,-3.6492,-3.6492,-3.6492,-3.6492,-3.6492,-3.6492,-3.6492,-3.6492,-3.6492,-3.6492,-3.6492,-3.6492,-3.6492,-3.6492,-3.6492,-3.6522,-3.6923,-3.7707,-3.8739,-3.9259,-3.9721,-4.0105,-4.0397,-4.0489,-4.0489,0.0,-1.0404,-1.0612,-1.1266,-1.1774,-1.2125,-1.219,-1.2664,-1.2821,0.0,-1.2294,-1.256,-1.3291,-1.3568,-1.3711,-1.3744,-1.3222,-1.2816,-1.2624,-1.2299,-1.2056,-1.198,-1.198,-1.2012,-1.208,-1.2091,-1.2122,0.0,0.0,0.0,0.0,0.0,0.0,-1.3063,-1.2462,-1.3605,-1.5916,-1.4855,0.0,-1.9672,-2.2732,-2.4241,0.0,0.0,-2.994,-2.9781,-3.0966,-3.1059,-3.0509,-2.9756,-2.7388,0.0,0.0,-2.0412,-1.9456,-1.7361,-1.813,0.0,-1.7915,-1.8577,0.0,0.0,0.0,0.0,-2.2209,-2.2058,0.0,0.0,0.0,0.0,0.0,0.0,0.0,0.0,0.0,0.0,0.0,0.0,0.0,0.0,0.0,0.0,0.0,-3.623,-3.6292,-3.6368,-3.6445,-3.6492,-3.6492,-3.6492,-3.6492,-3.6492,-3.6492,-3.6492,-3.6492,-3.6492,-3.6492,-3.6492,-3.6492,-3.6492,-3.6492,-3.6492,-3.6492,-3.6492,-3.6492,-3.6492,-3.6492,-3.6492,-3.6892,-3.7615,-3.8831,-3.9305,-3.9459,-4.0136,-4.0382,-4.0397,-1.0913,-1.1017,-1.1358,-1.2391,-1.2651,-1.2886,-1.337,-1.3556,-1.3752,-1.4049,-1.4088,-1.4638,-1.6117,-1.5057,-1.4707,-1.586,-1.4816,-1.3878,-1.343,-1.2924,-1.2404,-1.1852,-1.1891,-1.1938,-1.1949,-1.1991,-1.2044,-1.2122,0.0,0.0,0.0,0.0,0.0,-1.2385,-1.2262,-1.3093,-1.464,-1.5455,0.0,-2.0212,-2.1396,0.0,-2.6934,-2.8288,-2.972,-3.1028,-3.1316,-3.1659,-3.1828,-3.0602,-2.9033,-2.7226,0.0,0.0,-2.2932,-2.0903,-2.098,-2.1427,-2.0056,-2.0672,-2.1381,-2.0027,0.0,0.0,-2.0304,-2.0703,0.0,0.0,0.0,0.0,0.0,0.0,0.0,0.0,0.0,0.0,0.0,0.0,0.0,0.0,0.0,0.0,0.0,-3.4651,-3.4956,-3.5645,-3.6184,-3.6492,-3.6492,-3.6492,-3.6492,-3.6492,-3.6492,-3.6492,-3.6492,-3.6492,-3.6492,-3.6492,-3.6492,-3.6492,-3.6492,-3.6492,-3.6492,-3.6492,-3.6492,-3.6492,-3.6492,-3.6492,-3.6892,-3.7523,-3.78,-3.8231,-3.8785,-3.9428,-3.969,-3.9767,-1.1135,-1.1409,-1.1971,-1.3134,-1.3582,-1.3961,-1.4563,-1.4886,-1.5204,-1.5461,-1.5722,-1.6139,-1.6777,-1.6104,-1.5872,-1.6543,-1.5469,-1.4559,-1.4127,-1.3271,-1.2639,-1.231,-1.2002,-1.1869,-1.1891,-1.1923,-1.1927,-1.1848,0.0,0.0,0.0,0.0,0.0,-1.3088,-1.2814,-1.3809,-1.5676,0.0,-1.7592,-2.0011,-2.2351,0.0,-2.8042,-2.9381,-3.072,-3.189,-3.189,-3.2105,-3.2136,-3.0489,-2.9433,0.0,0.0,-2.5804,-2.5441,0.0,-2.3271,-2.3425,-2.175,-2.1797,-2.2151,-2.1458,0.0,0.0,0.0,0.0,0.0,0.0,0.0,0.0,0.0,0.0,0.0,0.0,0.0,0.0,0.0,0.0,0.0,0.0,0.0,0.0,0.0,-3.3587,-3.3935,-3.4682,-3.5231,-3.5599,-3.583,-3.5953,-3.6138,-3.6476,-3.6492,-3.6492,-3.6492,-3.6492,-3.6492,-3.6492,-3.6492,-3.6492,-3.6492,-3.6492,-3.6492,-3.6492,-3.6492,-3.6492,-3.6492,-3.6492,-3.6692,-3.703,-3.7369,-3.7707,-3.8092,-3.8769,-3.9198,-3.9536,-1.1201,-1.163,-1.2372,-1.3579,-1.4337,-1.4977,-1.5578,-1.6166,-1.6598,-1.6702,-1.7186,-1.7488,-1.7352,-1.7262,-1.7366,-1.7749,-1.6338,-1.5423,-1.5389,-1.4037,-1.3188,-1.3082,-1.2335,-1.1989,-1.2145,-1.187,-1.1692,-1.1626,0.0,0.0,0.0,-1.2048,-1.2879,-1.3985,0.0,0.0,0.0,0.0,0.0,-2.0714,0.0,-2.6227,-2.7688,-3.0089,-3.1351,-3.1874,-3.2232,-3.237,-3.2093,-3.033,-2.9771,-2.9427,-2.7357,-2.728,0.0,0.0,0.0,0.0,0.0,0.0,0.0,0.0,0.0,-2.1704,0.0,0.0,0.0,-2.1627,0.0,0.0,0.0,0.0,0.0,0.0,0.0,0.0,0.0,0.0,0.0,0.0,0.0,0.0,0.0,-3.2224,-3.2587,-3.3406,-3.373,-3.4171,-3.4834,-3.5262,-3.5737,-3.6276,-3.643,-3.6492,-3.6492,-3.6492,-3.6492,-3.6492,-3.6492,-3.6492,-3.6492,-3.6492,-3.6492,-3.6492,-3.6492,-3.6492,-3.6492,-3.6492,-3.6492,-3.6538,-3.7092,-3.7307,-3.7384,-3.8061,-3.8662,-3.9121,-1.1201,-1.163,-1.2372,-1.3579,-1.4694,-1.5591,-1.6212,-1.6754,-1.7303,-1.7839,-1.8375,-1.9027,0.0,0.0,0.0,0.0,0.0,0.0,-1.8163,0.0,-1.4602,-1.4053,-1.2943,-1.2565,-1.3031,-1.183,-1.1362,-1.1692,-1.1541,0.0,0.0,-1.2411,-1.3187,-1.4018,-1.4487,0.0,0.0,0.0,-2.0421,0.0,-2.5589,-2.5157,0.0,-2.8165,-2.9664,-2.9956,-3.1646,-3.2219,-3.2096,0.0,-3.106,-3.0812,0.0,-2.9018,-2.9525,0.0,0.0,0.0,0.0,0.0,0.0,0.0,-2.4948,0.0,0.0,0.0,-2.1689,-2.0736,0.0,0.0,0.0,0.0,0.0,0.0,0.0,0.0,0.0,0.0,0.0,0.0,0.0,0.0,0.0,0.0,-3.0083,-3.1415,-3.1603,-3.2223,-3.3539,-3.4814,-3.5522,-3.5629,-3.6184,-3.6492,-3.6492,-3.6492,-3.6492,-3.6492,-3.6492,-3.6492,-3.6492,-3.6492,-3.6492,-3.6492,-3.6492,-3.6492,-3.6492,-3.6492,-3.6492,-3.6507,-3.6569,-3.6599,-3.6692,-3.7369,-3.7661,-3.7815,-1.1201,-1.1906,-1.2794,-1.366,-1.4459,-1.5291,-1.6245,-1.7708,-1.8558,-1.8153,-1.9182,0.0,0.0,0.0,0.0,0.0,0.0,-1.8789,0.0,0.0,-1.5583,-1.4968,-1.4094,-1.3417,-1.298,-1.2394,-1.1777,-1.1118,-1.119,0.0,0.0,0.0,-1.3277,-1.45,-1.5591,0.0,-1.9871,0.0,0.0,0.0,0.0,0.0,0.0,-2.8915,-3.0953,-3.1125,-3.1928,-3.2247,-3.2133,0.0,-3.0722,0.0,0.0,0.0,0.0,0.0,0.0,0.0,0.0,0.0,0.0,0.0,0.0,0.0,-2.2086,0.0,-2.1105,0.0,0.0,0.0,0.0,0.0,0.0,0.0,0.0,0.0,0.0,0.0,0.0,0.0,0.0,0.0,0.0,0.0,0.0,0.0,0.0,-3.0215,-3.182,-3.3054,-3.42,-3.5293,-3.5722,-3.6107,-3.6492,-3.6492,-3.6492,-3.6492,-3.6492,-3.6492,-3.6492,-3.6492,-3.6492,-3.6492,-3.6492,-3.6492,-3.6492,-3.6492,-3.6492,-3.6492,-3.6492,-3.6492,-3.6522,-3.6815,-3.7169,-3.7538,-1.1409,-1.2221,-1.3045,-1.3477,-1.4275,-1.5291,-1.665,-1.827,-1.9146,-1.8636,0.0,0.0,-2.1749,-2.1561,0.0,0.0,-2.1965,-2.0791,0.0,0.0,-1.7032,-1.6597,-1.5342,-1.4355,-1.3654,-1.3102,-1.2293,-1.1218,-1.1344,-1.1344,0.0,0.0,-1.3568,-1.5007,0.0,-1.8673,-2.134,0.0,0.0,-2.3873,-2.4314,-2.4799,-2.5681,-2.9652,-3.1523,-3.2094,-3.2094,-3.2135,-3.2035,-3.078,-3.0452,0.0,-3.0223,0.0,0.0,0.0,0.0,0.0,-2.7533,0.0,0.0,0.0,0.0,0.0,0.0,0.0,0.0,0.0,0.0,0.0,0.0,0.0,0.0,0.0,0.0,0.0,0.0,0.0,0.0,0.0,0.0,0.0,0.0,0.0,0.0,0.0,0.0,0.0,-3.0243,-3.1496,-3.3003,-3.4956,-3.5323,-3.5814,-3.6476,-3.6492,-3.6492,-3.6492,-3.6492,-3.6492,-3.6492,-3.6492,-3.6492,-3.6492,-3.6492,-3.6492,-3.6492,-3.6492,-3.6492,-3.6492,-3.6492,-3.6492,-3.6492,-3.6492,-3.6799,-3.723,-1.1967,-1.2466,0.0,0.0,-1.4341,-1.6049,-1.7787,-1.8114,-1.8545,0.0,0.0,0.0,0.0,0.0,0.0,0.0,0.0,-2.3232,-2.3511,0.0,-1.9306,-1.9293,-1.6585,-1.5302,0.0,-1.3888,-1.2771,-1.254,-1.2287,-1.2301,0.0,0.0,0.0,0.0,-1.6817,-1.9069,-2.1839,-2.2582,-2.5073,-2.8493,-2.8523,-2.9615,-3.1061,0.0,-3.0174,-3.1813,-3.1813,0.0,0.0,-3.0927,-3.0812,0.0,0.0,0.0,0.0,0.0,0.0,0.0,0.0,0.0,0.0,-2.529,0.0,0.0,0.0,0.0,-2.284,0.0,0.0,0.0,0.0,0.0,0.0,0.0,0.0,0.0,0.0,0.0,0.0,0.0,0.0,0.0,0.0,0.0,0.0,0.0,0.0,0.0,-2.9073,-3.0652,-3.2367,-3.4474,-3.5167,-3.5814,-3.6476,-3.6492,-3.6492,-3.6492,-3.6492,-3.6492,-3.6492,-3.6492,-3.6492,-3.6492,-3.6492,-3.6492,-3.6492,-3.6492,-3.6492,-3.6492,-3.6492,-3.6492,-3.6492,-3.6492,-3.6507,-3.6522,0.0,0.0,0.0,0.0,0.0,-1.5487,-1.7238,-1.8829,0.0,0.0,0.0,0.0,0.0,-2.6041,-2.6543,0.0,0.0,-2.5245,-2.459,-2.2194,0.0,0.0,0.0,-1.7352,0.0,0.0,-1.4616,-1.3393,-1.2889,-1.2903,0.0,0.0,0.0,0.0,0.0,-1.9282,0.0,0.0,0.0,0.0,0.0,-2.9387,-3.1436,0.0,0.0,-3.1799,-3.1799,-3.187,0.0,-3.1541,-3.1235,-3.1013,-3.1157,-3.0791,-3.0372,-3.06,-3.0509,0.0,0.0,0.0,-2.9792,-2.6777,0.0,0.0,0.0,0.0,0.0,0.0,0.0,0.0,0.0,0.0,0.0,0.0,0.0,0.0,0.0,0.0,0.0,0.0,0.0,0.0,0.0,0.0,0.0,0.0,0.0,0.0,0.0,-2.9521,-3.1324,-3.2918,-3.42,-3.5167,-3.5814,-3.6261,-3.6492,-3.6492,-3.6492,-3.6492,-3.6492,-3.6492,-3.6492,-3.6492,-3.6492,-3.6492,-3.6492,-3.6492,-3.6492,-3.6492,-3.6492,-3.6492,-3.6492,-3.6492,-3.6492,-3.6492,-1.4389,0.0,0.0,0.0,0.0,0.0,-1.7891,0.0,0.0,0.0,-2.4008,0.0,-2.7294,0.0,-2.785,0.0,-2.8067,-2.6968,-2.538,-2.3877,0.0,-2.2125,-2.0858,0.0,0.0,0.0,0.0,-1.5021,-1.4432,-1.4219,0.0,0.0,0.0,0.0,0.0,0.0,-2.205,0.0,-2.4902,0.0,0.0,-2.978,0.0,0.0,-3.138,-3.1698,0.0,-3.1741,-3.1826,-3.1712,-3.1454,-3.124,-3.1592,-3.1153,-3.0633,-3.1056,-3.0875,-3.0498,-3.0295,-3.0455,0.0,-2.7815,-2.6907,0.0,-2.3273,0.0,0.0,0.0,0.0,0.0,0.0,0.0,0.0,0.0,0.0,0.0,0.0,0.0,0.0,0.0,0.0,0.0,0.0,0.0,-2.0378,-2.1276,0.0,0.0,0.0,0.0,-3.0337,-3.2213,-3.3723,-3.4828,-3.5506,-3.6153,-3.6492,-3.6492,-3.6492,-3.6492,-3.6492,-3.6492,-3.6492,-3.6492,-3.6492,-3.6492,-3.6492,-3.6492,-3.6492,-3.6492,-3.6492,-3.6492,-3.6492,-3.6492,-3.6492,-3.6492,0.0,0.0,0.0,0.0,-1.7003,0.0,0.0,0.0,-2.3404,0.0,-2.5206,-2.6367,-2.7542,-2.7659,-2.815,-2.9261,-2.9375,-2.8386,-2.6145,-2.5923,0.0,0.0,-2.283,-2.2243,-2.1616,0.0,0.0,0.0,-1.6689,-1.612,-1.5526,0.0,0.0,0.0,-1.6824,0.0,-2.1382,-2.3899,-2.64,-2.8811,-2.9927,-3.0807,-3.138,-3.0747,-3.091,-3.1497,-3.1482,-3.1511,-3.1511,-3.1511,-3.1511,-3.1511,-3.1511,-3.1525,-3.154,-3.1511,-3.1555,-3.1465,-3.0902,-3.0794,-3.0385,-2.8495,0.0,0.0,0.0,0.0,-2.6682,0.0,0.0,0.0,0.0,0.0,0.0,0.0,0.0,0.0,0.0,0.0,0.0,0.0,0.0,0.0,0.0,0.0,-1.9241,-2.0494,-2.0817,0.0,0.0,0.0,-2.9439,-3.2167,-3.3688,-3.4782,-3.543,-3.6107,-3.6461,-3.6492,-3.6492,-3.6492,-3.6492,-3.6492,-3.6492,-3.6492,-3.6492,-3.6492,-3.6492,-3.6492,-3.6492,-3.6492,-3.6492,-3.6492,-3.6492,-3.6492,-3.6492,-3.6492,-1.6166,-1.7173,-1.8166,0.0,-1.7996,-1.8244,0.0,0.0,0.0,0.0,-2.7013,-2.8333,-2.9928,-3.0098,-3.0228,-3.0553,-3.0163,0.0,0.0,0.0,0.0,-2.6406,-2.5066,-2.3838,-2.2778,-2.1276,0.0,-1.8466,0.0,0.0,-1.6153,0.0,0.0,0.0,0.0,0.0,-2.1495,-2.267,-2.5299,-2.8703,-2.8914,-2.9718,0.0,0.0,-3.0819,-3.1421,-3.1485,-3.1511,-3.1511,-3.1511,-3.1511,-3.1511,-3.1511,-3.1839,-3.2138,-3.1645,-3.2198,-3.2736,-3.1584,-3.2018,-3.2317,-3.0336,-2.9507,-2.8726,0.0,0.0,0.0,0.0,0.0,0.0,0.0,0.0,0.0,0.0,0.0,0.0,0.0,0.0,0.0,0.0,0.0,0.0,0.0,-1.8506,-1.8852,-1.9196,-2.0681,0.0,0.0,0.0,0.0,-2.9991,-3.2388,-3.4014,-3.4751,-3.5429,-3.5999,-3.6492,-3.6492,-3.6492,-3.6492,-3.6492,-3.6492,-3.6492,-3.6492,-3.6492,-3.6492,-3.6492,-3.6492,-3.6492,-3.6492,-3.6492,-3.6492,-3.6492,-3.6492,-3.6492,-1.7447,0.0,0.0,-2.0819,0.0,0.0,-2.2334,0.0,0.0,-2.6765,-2.8059,0.0,-3.0137,-3.0686,-3.0986,-3.0986,-3.0699,0.0,-2.9418,0.0,0.0,-2.7529,-2.6844,-2.6033,-2.5088,-2.3171,0.0,-2.0048,0.0,0.0,-1.6388,0.0,0.0,0.0,0.0,-1.8099,0.0,-2.2994,-2.5672,-2.829,-2.8716,0.0,0.0,-3.0383,-3.0769,-3.1357,-3.1404,-3.1626,-3.1883,-3.1883,-3.2109,-3.2363,-3.2363,-3.2647,-3.2871,-3.2497,-3.2916,-3.3335,-3.2587,-3.2931,-3.323,-3.2093,-3.1554,-3.0894,-2.922,-2.916,-2.9146,0.0,0.0,0.0,0.0,0.0,0.0,0.0,0.0,0.0,0.0,0.0,0.0,0.0,0.0,0.0,-1.8207,-1.8493,-1.8583,-1.8281,-1.9894,0.0,0.0,0.0,0.0,-2.8715,-3.1497,-3.3444,-3.4489,-3.5167,-3.583,-3.6492,-3.6492,-3.6492,-3.6492,-3.6492,-3.6492,-3.6492,-3.6492,-3.6492,-3.6492,-3.6492,-3.6492,-3.6492,-3.6492,-3.6492,-3.6492,-3.6492,-3.6492,-3.6492,0.0,0.0,0.0,0.0,0.0,0.0,0.0,-2.5375,0.0,-2.7581,0.0,-2.9497,-2.9497,-3.0398,-3.0986,-3.0986,0.0,-3.0383,-2.8852,-2.968,-2.95,-2.7907,-2.8347,-2.8268,-2.7516,-2.5323,-2.3341,0.0,0.0,-1.7473,-1.6271,0.0,0.0,0.0,0.0,0.0,0.0,-2.3985,-2.6559,-2.7787,-2.8849,-2.9701,-3.0378,-3.031,-3.0685,-3.128,-3.1263,-3.1693,-3.2263,-3.2263,-3.2754,-3.3376,-3.3376,-3.3483,-3.3604,-3.3529,-3.3619,-3.3724,-3.3544,-3.3619,-3.3724,-3.3544,-3.3559,-3.3125,-3.121,-3.0761,-3.0597,-2.9968,-2.8933,-2.8742,0.0,0.0,0.0,0.0,0.0,0.0,0.0,0.0,0.0,0.0,0.0,0.0,0.0,-1.8747,-1.8446,-1.7878,-1.8929,0.0,0.0,0.0,0.0,-2.8119,-3.076,-3.289,-3.4489,0.0,-3.5737,-3.6492,-3.6492,-3.6492,-3.6492,-3.6492,-3.6492,-3.6492,-3.6492,-3.6492,-3.6492,-3.6492,-3.6492,-3.6492,-3.6492,-3.6492,-3.6492,-3.6492,-3.6492,-3.6492,0.0,0.0,0.0,0.0,0.0,-2.5688,-2.6733,-2.7059,-2.7607,-2.8817,-2.998,-3.0686,-3.0686,-3.0869,-3.0986,-3.0986,-3.0986,0.0,0.0,0.0,0.0,-2.9683,-2.9735,-2.9069,-2.7529,-2.5746,-2.3733,0.0,-1.9224,-1.7264,-1.5662,0.0,0.0,0.0,0.0,0.0,-2.1224,-2.3995,0.0,-2.7597,-2.8302,-2.9266,-3.029,-3.0175,-3.0552,-3.1145,-3.1063,-3.1235,-3.1486,-3.1486,-3.199,-3.2596,-3.2596,-3.3374,-3.4234,-3.3649,-3.4277,-3.4921,-3.3799,-3.4307,-3.4891,-3.3769,-3.3934,-3.3918,-3.2482,-3.2168,-3.1944,-3.1301,-3.0972,-3.0629,-3.0043,0.0,0.0,0.0,0.0,0.0,0.0,0.0,0.0,0.0,0.0,0.0,0.0,0.0,-1.8657,0.0,0.0,0.0,0.0,0.0,0.0,0.0,-2.9792,0.0,0.0,0.0,-3.5306,-3.6492,-3.6492,-3.6492,-3.6492,-3.6492,-3.6492,-3.6492,-3.6492,-3.6492,-3.6492,-3.6492,-3.6492,-3.6492,-3.6492,-3.6492,-3.6492,-3.6492,-3.6492,-3.6492,0.0,0.0,0.0,0.0,0.0,0.0,0.0,-2.8948,0.0,-2.9287,-2.9794,-3.0134,-3.0134,-3.0671,-3.0986,-3.0986,-3.0986,-3.0986,-3.0986,-3.0986,-3.0869,-3.0594,-3.0257,0.0,-2.886,-2.6896,-2.49,-2.2858,-2.0257,-1.8087,-1.6375,-1.6101,0.0,-1.5552,0.0,-1.9277,0.0,0.0,0.0,-2.7594,-2.8817,-2.9635,-3.0224,-3.0456,-3.0777,-3.1047,-3.1031,-3.105,-3.1211,-3.1583,-3.2464,-3.3394,-3.3394,-3.4133,-3.4951,-3.4637,-3.4996,-3.537,-3.4711,-3.5011,-3.5355,-3.4696,-3.4771,-3.4666,-3.332,-3.3021,-3.2736,-3.1705,-3.1511,-3.1107,-2.9819,-2.8244,0.0,0.0,0.0,0.0,0.0,0.0,0.0,0.0,0.0,0.0,0.0,0.0,0.0,0.0,0.0,0.0,0.0,0.0,0.0,0.0,0.0,0.0,0.0,0.0,0.0,-3.6492,-3.6492,-3.6492,-3.6492,-3.6492,-3.6492,-3.6492,-3.6492,-3.6492,-3.6492,-3.6492,-3.6492,-3.6492,-3.6492,-3.6492,-3.6492,-3.6492,-3.6492,-3.6492,0.0,-2.5968,0.0,0.0,-2.7811,0.0,-2.9244,-3.0291,-3.066,-2.9758,-2.9676,-2.9676,-2.9676,-3.0451,-3.0986,-3.0986,-3.0986,-3.0986,-3.0986,-3.0986,-3.0986,-3.0986,-3.0555,-3.0218,-3.01,-2.8229,-2.6269,0.0,-2.1642,0.0,0.0,-1.682,-1.6441,-1.631,0.0,0.0,0.0,0.0,-2.6772,-2.8169,-2.9539,-3.0179,-3.0322,-3.0817,-3.0986,-3.0986,-3.0986,-3.0986,-3.1086,-3.1676,-3.2741,-3.3822,-3.3822,-3.4375,-3.5001,-3.5001,-3.5001,-3.5034,-3.5213,-3.5246,-3.5279,-3.5472,-3.5504,-3.519,-3.3978,-3.3589,-3.3155,-3.1959,-3.16,-3.1107,-2.9819,-2.8963,0.0,0.0,0.0,0.0,0.0,0.0,0.0,0.0,0.0,0.0,0.0,0.0,0.0,0.0,0.0,0.0,0.0,0.0,0.0,0.0,0.0,-3.0751,-3.4027,0.0,-3.5183,-3.6492,-3.6492,-3.6492,-3.6492,-3.6492,-3.6492,-3.6492,-3.6492,-3.6492,-3.6492,-3.6492,-3.6492,-3.6492,-3.6492,-3.6492,-3.6492,-3.6492,-3.6492,-3.6492,0.0,0.0,0.0,0.0,0.0,0.0,-2.931,-3.0291,-3.0947,-3.0843,-3.083,-3.083,-3.083,-3.0921,-3.0986,-3.0986,-3.0986,-3.0986,-3.0986,-3.0986,-3.0986,-3.0986,-3.0934,-3.066,-3.0113,-2.9405,-2.77,0.0,0.0,-2.0739,0.0,-1.7408,-1.7643,-1.8662,0.0,0.0,0.0,-2.6091,-2.7863,-2.9865,-3.0035,-3.0451,-3.0908,-3.096,-3.0986,-3.0986,-3.0986,-3.0986,-3.1024,-3.1086,-3.164,-3.2326,-3.2326,-3.2826,-3.3437,-3.3437,-3.3437,-3.3575,-3.4211,-3.4413,-3.4576,-3.5326,-3.5504,-3.531,-3.4578,-3.3918,-3.329,-3.2572,-3.1914,-3.1107,-2.9819,-3.0447,-3.033,0.0,0.0,0.0,0.0,0.0,0.0,0.0,0.0,0.0,0.0,0.0,0.0,0.0,0.0,0.0,0.0,0.0,0.0,-2.5994,0.0,-2.9812,-3.2567,-3.3873,-3.5183,-3.6492,-3.6492,-3.6492,-3.6492,-3.6492,-3.6492,-3.6492,-3.6492,-3.6492,-3.6492,-3.6492,-3.6492,-3.6492,-3.6492,-3.6492,-3.6492,-3.6492,-3.6492,-3.6492,0.0,0.0,0.0,0.0,0.0,0.0,0.0,-3.0686,-3.0986,-3.0986,-3.0986,-3.0986,-3.0986,-3.0986,-3.0986,-3.0986,-3.0986,-3.0986,-3.0986,-3.0986,-3.0986,-3.0986,-3.0986,-3.0882,-3.066,-3.0085,-2.8712,0.0,0.0,0.0,0.0,-2.0061,-2.0597,0.0,0.0,-2.4674,-2.6582,-2.7745,-2.8974,-3.0127,-3.0503,-3.0777,-3.0986,-3.0986,-3.0986,-3.0986,-3.0986,-3.0986,-3.0986,-3.0986,-3.1505,-3.211,-3.211,-3.2613,-3.3178,-3.3178,-3.3178,-3.3248,-3.3561,-3.363,-3.3699,-3.4036,-3.4119,-3.3946,-3.3264,-3.2663,-3.206,-3.1363,-3.0746,-3.0275,-3.0162,-2.9927,-2.9558,0.0,0.0,0.0,0.0,0.0,0.0,0.0,0.0,0.0,0.0,0.0,0.0,0.0,0.0,-1.8401,-2.0059,0.0,0.0,-2.5452,0.0,-3.0012,-3.2367,-3.3812,-3.5183,-3.6492,-3.6492,-3.6492,-3.6492,-3.6492,-3.6492,-3.6492,-3.6492,-3.6492,-3.6492,-3.6492,-3.6492,-3.6492,-3.6492,-3.6492,-3.6492,-3.6492,-3.6492,-3.6492,-2.8461,0.0,-2.8782,0.0,-2.9813,-3.0045,-3.0856,-3.0986,-3.0986,-3.0986,-3.0986,-3.0986,-3.0986,-3.0986,-3.0986,-3.0986,-3.0986,-3.0986,-3.0986,-3.0986,-3.0986,-3.0986,-3.0986,0.0,-3.0986,-3.0594,-2.9614,-2.8046,-2.6661,0.0,0.0,-2.2805,-2.3367,0.0,-2.5458,-2.6582,-2.8111,-2.9104,-2.9862,-3.0388,-3.083,-3.0986,-3.0986,-3.0986,-3.0986,-3.0986,-3.0986,-3.0986,-3.0986,-3.0986,-3.1371,-3.1773,-3.1773,-3.2137,-3.2555,-3.2555,-3.2555,-3.2591,-3.284,-3.2861,-3.2932,-3.3143,-3.3178,-3.3066,-3.2596,-3.1929,-3.1162,-3.0329,-2.9796,-2.9628,-3.0103,-2.9475,-2.8843,-2.8814,0.0,0.0,0.0,0.0,0.0,0.0,-2.1808,-2.0498,-2.0676,0.0,0.0,0.0,0.0,-1.9047,-2.0382,0.0,0.0,0.0,0.0,0.0,0.0,-3.3812,-3.5183,-3.6492,-3.6492,-3.6492,-3.6492,-3.6492,-3.6492,-3.6492,-3.6492,-3.6492,-3.6492,-3.6492,-3.6492,-3.6492,-3.6492,-3.6492,-3.6492,-3.6492,-3.6492,-3.6492,-2.8215,-2.8942,-2.9512,-2.9947,-3.0533,-3.096,-3.0986,-3.0986,-3.0986,-3.0986,-3.0986,-3.0986,-3.0986,-3.0986,-3.0986,-3.0986,-3.0986,-3.0986,-3.0986,-3.0986,-3.0986,0.0,0.0,-3.0986,-3.0986,-3.0973,-3.0411,-2.9297,0.0,0.0,-2.5741,-2.5197,-2.5568,-2.6706,-2.7249,-2.815,-2.9287,-2.9839,-3.0451,-3.0973,-3.0986,-3.0986,-3.0986,-3.0986,-3.0986,-3.0986,-3.0986,-3.0986,-3.0986,-3.0986,-3.1024,-3.1024,-3.1024,-3.1024,-3.1024,-3.1024,-3.1024,-3.1198,-3.1905,-3.211,-3.229,-3.3003,-3.3178,-3.3178,-3.3178,-3.2258,-3.1036,-2.9771,-2.9518,-2.9504,-2.9504,-2.949,-2.8886,-2.7045,0.0,0.0,0.0,0.0,0.0,0.0,-2.1146,-1.9672,-2.0612,0.0,0.0,0.0,0.0,-2.1948,-2.1963,0.0,0.0,-2.613,-2.8277,0.0,-3.2367,-3.3812,-3.5183,-3.6492,-3.6492,-3.6492,-3.6492,-3.6492,-3.6492,-3.6492,-3.6492,-3.6492,-3.6492,-3.6492,-3.6492,-3.6492,-3.6492,-3.6492,-3.6492,-3.6492,-3.6492,-3.6492,-2.7429,-2.7827,-2.8148,-2.8267,-2.8573,-2.8927,-2.9186,-2.9614,-3.0012,-3.0266,-3.071,-3.0986,-3.0986,-3.0986,-3.0986,0.0,-3.0986,-3.0986,0.0,-3.0986,-3.0986,-3.0986,-3.0986,-3.0986,-3.0986,-3.0986,-3.062,-2.9862,0.0,0.0,0.0,-2.7413,-2.7915,-2.9039,-2.9187,-2.9732,-3.0451,-3.0634,-3.0817,-3.0986,-3.0986,-3.0986,-3.0986,-3.0986,-3.0986,-3.0986,-3.0986,-3.0986,-3.0986,-3.0986,-3.0986,-3.0986,-3.0986,-3.0986,-3.0986,-3.0986,-3.0986,-3.1048,-3.1296,-3.1371,-3.1394,-3.1653,-3.169,-3.169,-3.169,-3.0815,-2.9743,-2.8906,-2.8424,-2.8274,-2.8744,-2.8807,-2.8387,-2.7003,-2.6951,0.0,0.0,0.0,0.0,0.0,-2.1537,-2.0757,0.0,-2.0787,0.0,0.0,0.0,0.0,0.0,0.0,0.0,0.0,-2.9301,0.0,-3.2382,-3.4229,-3.5645,-3.6492,-3.6492,-3.6492,-3.6492,-3.6492,-3.6492,-3.6492,-3.6492,-3.6492,-3.6492,-3.6492,-3.6492,-3.6492,-3.6492,-3.6492,-3.6492,-3.6492,-3.6492,-3.6492,-2.6574,-2.6971,-2.7348,-2.772,-2.8239,-2.876,-2.9258,-2.9883,-3.045,-3.0944,-3.1202,-3.1313,-3.1313,-3.1117,0.0,-3.0986,-3.0986,-3.0986,-3.0986,-3.0986,-3.0986,-3.0986,-3.0986,-3.0986,-3.0986,-3.0986,0.0,-3.0451,-3.0098,-2.9768,-2.9401,-2.9401,-2.9758,-3.0451,-3.0451,-3.066,-3.0986,-3.0986,-3.0986,-3.0986,-3.0986,-3.0986,-3.0986,-3.0986,-3.0986,-3.0986,-3.0986,-3.0986,-3.0986,-3.0986,-3.0986,-3.0986,-3.0986,-3.0986,-3.0986,-3.0986,-3.0986,-3.0986,-3.0986,-3.0986,-3.0986,-3.0986,-3.0986,-3.0934,-3.0712,-3.0111,-2.9366,-2.859,-2.8098,-2.7906,-2.8079,-2.8137,-2.7736,-2.6608,-2.6407,-2.5655,-2.3516,0.0,0.0,0.0,0.0,0.0,0.0,-2.1955,-2.2262,0.0,0.0,0.0,0.0,0.0,0.0,-2.6834,-3.0354,0.0,-3.3167,-3.4736,-3.583,-3.6492,-3.6492,-3.6492,-3.6492,-3.6492,-3.6492,-3.6492,-3.6492,-3.6492,-3.6492,-3.6492,-3.6492,-3.6492,-3.6492,-3.6492,-3.6492,-3.6492,-3.6492,-3.6492,-2.574,-2.6336,-2.7016,0.0,-2.8912,0.0,-3.0501,-3.1128,-3.1764,-3.2447,-3.215,-3.1863,-3.1863,-3.1431,-3.1104,-3.1104,0.0,0.0,0.0,-3.0986,-3.0986,-3.0986,-3.0986,-3.0986,-3.0986,-3.0986,-3.0986,-3.0986,-3.0986,-3.0986,-3.0986,-3.0986,-3.0986,-3.0986,-3.0986,-3.0986,-3.0986,-3.0986,-3.0986,-3.0986,-3.0986,-3.0986,-3.0986,-3.0986,-3.0986,-3.0986,-3.0986,-3.0986,-3.0986,-3.0986,-3.0986,-3.0986,-3.0986,-3.0986,-3.0986,-3.0986,-3.0986,-3.0986,-3.0986,-3.0986,-3.0986,-3.0986,-3.0986,-3.0843,-3.0283,-3.0127,-2.9787,-2.8726,-2.8472,-2.8216,-2.7659,-2.7529,-2.7124,-2.5976,-2.5754,-2.5158,-2.3406,0.0,0.0,0.0,0.0,0.0,0.0,-2.2813,-2.3468,0.0,0.0,0.0,0.0,0.0,-2.7439,-2.9464,-3.149,-3.3183,-3.4566,-3.5244,-3.5876,-3.6492,-3.6492,-3.6492,-3.6492,-3.6492,-3.6492,-3.6492,-3.6492,-3.6492,-3.6492,-3.6492,-3.6492,-3.6492,-3.6492,-3.6492,-3.6492,-3.6492,-3.6492,-3.6492,0.0,0.0,-2.6178,-2.6428,-2.6662,-2.7006,-2.7547,-2.89,-3.0043,-3.0584,-3.1733,-3.2489,-3.2489,-3.2372,-3.2293,-3.2293,-3.1483,-3.0986,-3.0986,-3.0986,-3.0986,-3.0986,-3.0986,-3.0986,-3.0986,-3.0986,-3.0986,-3.0986,-3.0986,-3.0986,-3.0986,-3.0986,-3.0986,-3.0986,-3.0986,-3.0986,-3.0986,-3.0986,-3.0986,-3.0986,-3.0986,-3.0986,-3.0986,-3.0986,-3.0986,-3.0986,-3.0986,-3.0986,-3.0986,-3.0986,-3.0986,-3.0986,-3.0986,-3.0986,-3.0986,-3.0986,-3.0986,-3.0986,-3.0986,-3.0986,-3.0986,-3.0986,-3.0986,-3.0947,-3.0817,-3.0451,-3.0022,-2.9735,-2.9,-2.8381,-2.8203,-2.7824,-2.7124,-2.5976,-2.5458,-2.4586,-2.2833,-2.2818,0.0,0.0,-2.3323,-2.3887,-2.3596,-2.4548,-2.4842,0.0,0.0,0.0,0.0,-2.8429,-2.994,-3.0905,-3.2934,-3.4412,-3.526,-3.5953,-3.6322,-3.6492,-3.6492,-3.6492,-3.6492,-3.6492,-3.6492,-3.6492,-3.6492,-3.6492,-3.6492,-3.6492,-3.6492,-3.6492,-3.6492,-3.6492,-3.6492,-3.6492,-3.6492,-3.6492,-2.62,-2.6241,-2.6304,-2.6521,-2.6737,-2.7049,-2.7642,-2.8779,-2.9814,-3.0637,-3.1614,-3.2352,-3.2581,-3.2683,-3.2685,-3.2685,-3.2123,-3.1653,-3.1392,-3.1378,-3.1261,-3.0999,-3.0986,-3.0986,-3.0986,-3.0986,-3.0986,-3.0986,-3.0986,-3.0986,-3.0986,-3.0986,-3.0986,-3.0986,-3.0986,-3.0986,-3.0986,-3.0986,-3.0986,-3.0986,-3.0986,-3.0986,-3.0986,-3.0986,-3.0986,-3.0986,-3.0986,-3.0986,-3.0986,-3.0986,-3.0986,-3.0986,-3.0986,-3.0986,-3.0986,-3.0986,-3.0986,-3.0986,-3.0986,-3.0986,-3.0986,-3.0986,-3.0986,-3.0986,-3.0986,-3.0751,-3.0451,-3.0153,-2.9627,-2.9026,-2.8512,-2.7915,-2.7033,-2.5654,-2.5201,-2.439,-2.2664,-2.3093,0.0,-2.3197,-2.4259,-2.4979,-2.4909,-2.5699,-2.5828,-2.4893,-2.6572,0.0,-2.7726,-2.9915,-3.1255,-3.153,-3.3773,-3.5136,-3.5506,-3.6153,-3.6492,-3.6492,-3.6492,-3.6492,-3.6492,-3.6492,-3.6492,-3.6492,-3.6492,-3.6492,-3.6492,-3.6492,-3.6492,-3.6492,-3.6492,-3.6492,-3.646,-3.6226,-3.6289,-3.646,-2.6646,-2.6718,-2.6843,-2.7237,-2.762,-2.8128,-2.8724,-2.9303,-3.0068,-3.1089,-3.1484,-3.1801,-3.2206,-3.2424,-3.2573,-3.2694,-3.2747,-3.2553,-3.1967,-3.1941,-3.1706,-3.1261,-3.1156,-3.1117,-3.1117,-3.1026,-3.0986,-3.0986,-3.0986,-3.0986,-3.0986,-3.0986,-3.0986,-3.0986,-3.0986,-3.0986,-3.0986,-3.0986,-3.0986,-3.0986,-3.0986,-3.0986,-3.0986,-3.0986,-3.0986,-3.0986,-3.0986,-3.0986,-3.0986,-3.0986,-3.0986,-3.0986,-3.0986,-3.0986,-3.0986,-3.0986,-3.0986,-3.0986,-3.0986,-3.0986,-3.0986,-3.0986,-3.0986,-3.0986,-3.0986,-3.0986,-3.0843,-3.0322,-3.0153,-2.9761,-2.8712,-2.8046,-2.7092,-2.538,-2.5123,-2.4508,-2.2767,0.0,-2.4347,-2.4256,-2.4896,-2.555,-2.6002,-2.6517,-2.6648,-2.6229,-2.8144,-2.9382,-2.9438,-3.113,-3.2031,-3.1929,-3.4166,-3.5461,-3.566,-3.6199,-3.6492,-3.6492,-3.6492,-3.6492,-3.6492,-3.6492,-3.6492,-3.6492,-3.6492,-3.646,-3.6398,-3.6398,-3.632,-3.6258,-3.6258,-3.6258,-3.6179,-3.5752,-3.5847,-3.6179,-2.7185,-2.7195,-2.7226,-2.7299,-2.7357,-2.7441,-2.7584,-2.8491,-2.9268,-2.9475,-3.0325,-3.0968,-3.1056,-3.1491,-3.1988,-3.2559,-3.3022,-3.3075,-3.2594,-3.2555,-3.2515,-3.2437,-3.1967,-3.1667,-3.1667,-3.1235,-3.0986,-3.0986,-3.0986,-3.0986,-3.0986,-3.0986,-3.0986,-3.0986,-3.0986,-3.0986,-3.0986,-3.0986,-3.0986,-3.0986,-3.0986,-3.0986,-3.0986,-3.0986,-3.0986,-3.0986,-3.0986,-3.0986,-3.0986,-3.0986,-3.0986,-3.0986,-3.0986,-3.0986,-3.0986,-3.0986,-3.0986,-3.0986,-3.0986,-3.0986,-3.0986,-3.0986,-3.0986,-3.0986,-3.0986,-3.0986,-3.096,-3.0869,-3.0464,-2.9892,-2.9261,-2.866,-2.768,-2.5968,-2.5694,-2.5079,-2.3328,0.0,-2.538,-2.4926,-2.619,-2.7137,-2.7229,-2.7307,-2.7562,-2.7954,-2.8926,-2.967,-3.0208,-3.199,-3.301,-3.2974,-3.4166,-3.5323,-3.6322,-3.6445,-3.6492,-3.6492,-3.6492,-3.6492,-3.6492,-3.6492,-3.6492,-3.6492,-3.6492,-3.6258,-3.5816,-3.5816,-3.5559,-3.5154,-3.5154,-3.5154,-3.5154,-3.5041,-3.5088,-3.5154,-2.7309,-2.7309,-2.7309,-2.7309,-2.7309,-2.7309,-2.7309,-2.7762,-2.8222,-2.8491,-2.9326,-3.0,-3.0226,-3.0798,-3.142,-3.2016,-3.2302,-3.245,-3.2499,-3.2907,-3.3038,-3.2712,-3.2437,-3.2293,-3.2293,-3.1731,-3.1444,-3.1444,-3.1143,-3.0986,-3.0986,-3.0986,-3.0986,-3.0986,-3.0986,-3.0986,-3.0986,-3.0986,-3.0986,-3.0986,-3.0986,-3.0986,-3.0986,-3.0986,-3.0986,-3.0986,-3.0986,-3.0986,-3.0986,-3.0986,-3.0986,-3.0986,-3.0986,-3.0986,-3.0986,-3.0986,-3.0986,-3.0986,-3.0986,-3.0986,-3.0986,-3.0986,-3.0986,-3.0986,-3.0986,-3.0986,-3.0986,-3.0986,-3.0777,-3.0424,-2.9849,-2.9,-2.802,-2.6889,-2.6198,0.0,0.0,-2.5576,-2.6295,-2.6347,-2.7314,-2.8111,-2.8438,-2.8464,-2.8582,-2.8843,-2.9377,-3.0009,-3.0833,-3.1895,-3.2851,-3.3653,-3.4416,-3.5212,-3.6053,-3.5784,-3.5655,-3.5655,-3.5926,-3.6085,-3.6085,-3.6367,-3.6492,-3.6492,-3.6179,-3.5926,-3.5688,-3.5382,-3.5121,-3.4909,-3.4909,-3.4909,-3.4843,-3.4576,-3.4643,-3.4843,-2.7309,-2.7309,-2.7309,-2.7309,-2.7309,-2.7309,-2.7309,-2.7309,-2.7441,-2.7809,-2.8305,-2.8806,-2.9176,-2.9772,-3.0383,-3.0956,-3.1134,-3.14,-3.194,-3.2798,-3.3152,-3.2875,-3.288,-3.2829,-3.2685,-3.2267,-3.2006,-3.2006,-3.1601,-3.1378,-3.1378,-3.1378,-3.1378,-3.1378,-3.1378,-3.1378,-3.1378,-3.1378,-3.1378,-3.1378,-3.1378,-3.1378,-3.1378,-3.1378,-3.1378,-3.1378,-3.1378,-3.13,-3.1182,-3.1182,-3.1091,-3.0986,-3.0986,-3.0986,-3.0986,-3.0986,-3.0986,-3.0986,-3.0986,-3.0986,-3.0986,-3.0986,-3.0986,-3.0986,-3.0986,-3.0986,-3.0986,-3.0986,-3.0986,-3.0817,-3.0205,-2.9405,-2.8556,-2.785,0.0,0.0,0.0,-2.6831,-2.7392,-2.7693,-2.8242,-2.88,-2.9271,-2.9392,-2.9506,-2.9613,-2.9967,-3.0623,-3.1564,-3.1873,-3.266,-3.407,-3.461,-3.5088,-3.5512,-3.5121,-3.4909,-3.4909,-3.5317,-3.5512,-3.5512,-3.5958,-3.6116,-3.6116,-3.5688,-3.5447,-3.5317,-3.4876,-3.4643,-3.4524,-3.4524,-3.4524,-3.4491,-3.4051,-3.4187,-3.4457,-2.7309,-2.7309,-2.7309,-2.7309,-2.7309,-2.7309,-2.7309,-2.7309,-2.7309,-2.7357,-2.7404,-2.7441,-2.7489,-2.7893,-2.8491,-2.9211,-2.9669,-3.0192,-3.0864,-3.1836,-3.2673,-3.3314,-3.3467,-3.326,-3.2698,-3.2659,-3.262,-3.262,-3.2581,-3.2568,-3.2568,-3.2568,-3.2568,-3.2568,-3.2568,-3.2568,-3.2568,-3.2568,-3.2568,-3.2568,-3.2568,-3.2568,-3.2568,-3.2568,-3.2568,-3.2568,-3.2568,-3.2228,-3.1745,-3.1745,-3.1418,-3.0986,-3.0986,-3.0986,-3.0986,-3.0986,-3.0986,-3.0986,-3.0986,-3.0986,-3.0986,-3.0986,-3.0986,-3.0986,-3.0986,-3.0986,-3.0986,-3.0986,-3.0986,-3.0817,-3.0205,-3.0022,-2.9591,-2.8503,0.0,0.0,-2.7529,-2.8373,-2.893,-2.842,-2.8878,-2.9235,-2.931,-2.9758,-3.0217,-3.0552,-3.1129,-3.1802,-3.2563,-3.2635,-3.3059,-3.407,-3.461,-3.4909,-3.4942,-3.4909,-3.4909,-3.4909,-3.4942,-3.4942,-3.4942,-3.5023,-3.5023,-3.5023,-3.4975,-3.4677,-3.4206,-3.4187,-3.3859,-3.3417,-3.3417,-3.3417,-3.3417,-3.3382,-3.3382,-3.3417,-2.7309,-2.7309,-2.7309,-2.7309,-2.7309,-2.7309,-2.7309,-2.7309,-2.7309,-2.7309,-2.7309,-2.7309,-2.7309,-2.7441,-2.7809,-2.8351,-2.8585,-2.8945,-2.9464,-3.0283,-3.1468,-3.3086,-3.3617,-3.3662,-3.3139,-3.3214,-3.3247,-3.3247,-3.2868,-3.2685,-3.2685,-3.2685,-3.2685,-3.2685,-3.2685,-3.2685,-3.2685,-3.2685,-3.2685,-3.2685,-3.2685,-3.2685,-3.2685,-3.2685,-3.2685,-3.2685,-3.2685,-3.2555,-3.2372,-3.2372,-3.2228,-3.198,-3.1627,-3.1522,-3.1444,-3.1091,-3.0986,-3.0986,-3.0986,-3.0986,-3.0986,-3.0986,-3.0986,-3.0986,-3.0986,-3.0986,-3.0986,-3.0986,-3.0986,-3.0921,-3.0699,-3.0335,-3.0074,-3.0006,0.0,-2.9248,-2.9121,-2.9222,-2.9327,-2.9457,-2.968,-2.9954,-3.0307,-3.0542,-3.0832,-3.1236,-3.1251,-3.1556,-3.2309,-3.2561,-3.2988,-3.3563,-3.3805,-3.4065,-3.4409,-3.4065,-3.3908,-3.3908,-3.4254,-3.4409,-3.4423,-3.4743,-3.4909,-3.4876,-3.4543,-3.4274,-3.407,-3.3736,-3.3472,-3.329,-3.329,-3.329,-3.329,-3.329,-3.329,-3.329,-2.7309,-2.7309,-2.7309,-2.7309,-2.7309,-2.7309,-2.7309,-2.7309,-2.7309,-2.7309,-2.7309,-2.7309,-2.7309,-2.7309,-2.7441,-2.7762,-2.7762,-2.7904,-2.8222,-2.8991,-3.0294,-3.2246,-3.2766,-3.2907,-3.2605,-3.2671,-3.2886,-3.3203,-3.2834,-3.2844,-3.3154,-3.3194,-3.3221,-3.3221,-3.3221,-3.3221,-3.3221,-3.3221,-3.3221,-3.3221,-3.3221,-3.3221,-3.3221,-3.3221,-3.3221,-3.3221,-3.3221,-3.3117,-3.2973,-3.2973,-3.2842,-3.262,-3.2228,-3.1941,-3.1732,-3.1365,-3.1117,-3.0986,-3.0986,-3.0986,-3.0986,-3.0986,-3.0986,-3.0986,-3.0986,-3.0986,-3.0986,-3.0986,-3.0986,-3.0986,-3.0986,-3.066,-3.0529,-3.0921,-3.0333,-2.9954,-3.0346,-3.0072,-2.9967,-3.0359,-3.0361,-3.0555,-3.0947,-3.0986,-3.1161,-3.1556,-3.1347,-3.1519,-3.2237,-3.2668,-3.3016,-3.329,-3.329,-3.3486,-3.3859,-3.3472,-3.329,-3.3312,-3.3667,-3.3859,-3.3859,-3.4235,-3.4404,-3.439,-3.4031,-3.3859,-3.3825,-3.3437,-3.329,-3.329,-3.329,-3.329,-3.329,-3.329,-3.329,-3.329,-2.7309,-2.7309,-2.7309,-2.7309,-2.7309,-2.7309,-2.7309,-2.7309,-2.7309,-2.7309,-2.7309,-2.7309,-2.7309,-2.7309,-2.7309,-2.7309,-2.7309,-2.7309,-2.7309,-2.8175,-2.9326,-3.073,-3.0775,-3.0808,-3.0775,-3.0808,-3.1276,-3.2302,-3.2506,-3.3079,-3.4076,-3.4272,-3.4397,-3.4397,-3.4397,-3.4397,-3.4397,-3.4397,-3.4397,-3.4397,-3.4397,-3.4397,-3.4397,-3.4397,-3.4397,-3.4397,-3.4397,-3.4058,-3.36,-3.36,-3.3208,-3.2698,-3.2698,-3.2306,-3.181,-3.1797,-3.1431,-3.0999,-3.0986,-3.0986,-3.0986,-3.0986,-3.0986,-3.0986,-3.0986,-3.0986,-3.0986,-3.0986,-3.0986,-3.0986,-3.0986,-3.0986,-3.0986,-3.0986,-3.0986,-3.0986,-3.0986,-3.0986,-3.0986,-3.0986,-3.0986,-3.0986,-3.0986,-3.0986,-3.1161,-3.1556,-3.1593,-3.1909,-3.2668,-3.3086,-3.329,-3.329,-3.329,-3.329,-3.329,-3.329,-3.329,-3.329,-3.329,-3.329,-3.329,-3.329,-3.329,-3.329,-3.329,-3.329,-3.329,-3.329,-3.329,-3.329,-3.329,-3.329,-3.329,-3.329,-3.329,-3.329,-2.7309,-2.7309,-2.7309,-2.7309,-2.7309,-2.7309,-2.7309,-2.7309,-2.7309,-2.7309,-2.7309,-2.7309,-2.7309,-2.7309,-2.7309,-2.7309,-2.7309,-2.7309,-2.7309,-2.7584,-2.7893,-2.833,-2.9806,-3.044,-3.0102,-3.0563,-3.1143,-3.1809,-3.1884,-3.2202,-3.2834,-3.292,-3.3189,-3.3683,-3.3683,-3.3937,-3.4397,-3.4397,-3.4397,-3.4397,-3.4397,-3.4397,-3.4397,-3.4397,-3.4397,-3.4397,-3.4397,-3.4293,-3.4162,-3.4162,-3.4031,-3.3822,-3.3443,-3.2921,-3.2359,-3.1915,-3.168,-3.1496,-3.1091,-3.0986,-3.0986,-3.0986,-3.0986,-3.0986,-3.0986,-3.0986,-3.0986,-3.0986,-3.0986,-3.0986,-3.0986,-3.0986,-3.0986,-3.0986,-3.0986,-3.0986,-3.0986,-3.0986,-3.0986,-3.0986,-3.0986,-3.0986,-3.0986,-3.0986,-3.1161,-3.1556,-3.1813,-3.2055,-3.2273,-3.2668,-3.2895,-3.2895,-3.3157,-3.329,-3.329,-3.329,-3.329,-3.329,-3.329,-3.329,-3.329,-3.329,-3.329,-3.329,-3.329,-3.329,-3.329,-3.329,-3.329,-3.329,-3.329,-3.329,-3.329,-3.329,-3.329,-3.329,-2.7309,-2.7309,-2.7309,-2.7309,-2.7309,-2.7309,-2.7309,-2.7309,-2.7309,-2.7309,-2.7309,-2.7309,-2.7309,-2.7309,-2.7309,-2.7309,-2.7309,-2.7309,-2.7309,-2.7309,-2.7309,-2.7309,-2.8516,-2.9108,-2.8817,-2.9235,-2.9772,-3.0463,-3.0553,-3.1045,-3.1853,-3.1984,-3.2345,-3.2945,-3.2945,-3.333,-3.3979,-3.3979,-3.3979,-3.4021,-3.4272,-3.423,-3.4021,-3.4314,-3.4397,-3.4397,-3.4397,-3.4397,-3.4397,-3.4397,-3.4397,-3.4345,-3.4018,-3.3509,-3.2973,-3.2633,-3.2319,-3.2019,-3.1483,-3.1326,-3.1274,-3.1039,-3.0986,-3.0986,-3.0986,-3.0986,-3.0986,-3.0986,-3.0986,-3.0986,-3.0986,-3.0986,-3.0986,-3.0986,-3.0986,-3.0986,-3.0986,-3.0986,-3.0986,-3.0986,-3.0986,-3.0986,-3.0986,-3.0986,-3.1161,-3.1556,-3.1776,-3.1946,-3.2092,-3.2345,-3.2561,-3.2704,-3.2931,-3.3122,-3.329,-3.329,-3.329,-3.329,-3.329,-3.329,-3.329,-3.329,-3.329,-3.329,-3.329,-3.329,-3.329,-3.329,-3.329,-3.329,-3.329,-3.329,-3.329,-3.329,-3.329,-3.329,-2.7309,-2.7309,-2.7309,-2.7309,-2.7309,-2.7309,-2.7309,-2.7309,-2.7309,-2.7309,-2.7309,-2.7309,-2.7309,-2.7309,-2.7309,-2.7309,-2.7309,-2.7309,-2.7309,-2.7309,-2.7309,-2.7309,-2.7309,-2.7309,-2.7309,-2.7309,-2.7715,-2.8631,-2.8899,-2.9704,-3.1045,-3.1311,-3.1677,-3.2227,-3.2227,-3.263,-3.33,-3.33,-3.33,-3.3343,-3.3979,-3.3852,-3.3386,-3.3966,-3.4259,-3.4314,-3.4314,-3.4356,-3.4397,-3.4397,-3.4397,-3.4397,-3.4397,-3.4058,-3.3652,-3.36,-3.3208,-3.2646,-3.2032,-3.1836,-3.168,-3.1196,-3.1026,-3.0986,-3.0986,-3.0986,-3.0986,-3.0986,-3.0986,-3.0986,-3.0986,-3.0986,-3.0986,-3.0986,-3.0986,-3.0986,-3.0986,-3.0986,-3.0986,-3.0986,-3.0986,-3.0986,-3.0986,-3.0986,-3.1161,-3.1556,-3.1593,-3.174,-3.2019,-3.2092,-3.2273,-3.2632,-3.2668,-3.2895,-3.329,-3.329,-3.329,-3.329,-3.329,-3.329,-3.329,-3.329,-3.329,-3.329,-3.329,-3.329,-3.329,-3.329,-3.329,-3.329,-3.329,-3.329,-3.329,-3.329,-3.329,-3.329,-2.7309,-2.7309,-2.7309,-2.7309,-2.7309,-2.7309,-2.7309,-2.7309,-2.7309,-2.7309,-2.7309,-2.7309,-2.7309,-2.7309,-2.7309,-2.7309,-2.7309,-2.7309,-2.7309,-2.7309,-2.7309,-2.7309,-2.7309,-2.7309,-2.7309,-2.7309,-2.7584,-2.8128,-2.8222,-2.8817,-2.9875,-2.992,-3.0509,-3.1516,-3.1516,-3.1901,-3.2531,-3.2531,-3.2531,-3.2531,-3.2704,-3.2661,-3.2531,-3.2704,-3.3104,-3.3598,-3.3598,-3.3937,-3.4397,-3.4397,-3.4397,-3.4397,-3.4397,-3.4319,-3.4136,-3.3718,-3.3496,-3.326,-3.2672,-3.2137,-3.1771,-3.1654,-3.1313,-3.0986,-3.0986,-3.0986,-3.0986,-3.0986,-3.0986,-3.0986,-3.0986,-3.0986,-3.0986,-3.0986,-3.0986,-3.0986,-3.0986,-3.0986,-3.0986,-3.0986,-3.0986,-3.0986,-3.0986,-3.0986,-3.1161,-3.1556,-3.1593,-3.1629,-3.1703,-3.1946,-3.2128,-3.2237,-3.2561,-3.2895,-3.329,-3.329,-3.329,-3.329,-3.329,-3.329,-3.329,-3.329,-3.329,-3.329,-3.329,-3.329,-3.329,-3.329,-3.329,-3.329,-3.329,-3.329,-3.329,-3.329,-3.329,-3.329,-2.7309,-2.7309,-2.7309,-2.7309,-2.7309,-2.7309,-2.7309,-2.7309,-2.7309,-2.7309,-2.7309,-2.7309,-2.7309,-2.7309,-2.7309,-2.7309,-2.7309,-2.7309,-2.7309,-2.7309,-2.7309,-2.7309,-2.7309,-2.7309,-2.7309,-2.7309,-2.7441,-2.7678,-2.7678,-2.8045,-2.8781,-2.8781,-2.9244,-3.0057,-3.0057,-3.0453,-3.1101,-3.1335,-3.1424,-3.1512,-3.2084,-3.2096,-3.1845,-3.2183,-3.2531,-3.2902,-3.2902,-3.333,-3.3979,-3.4272,-3.4397,-3.4397,-3.4397,-3.4397,-3.4345,-3.4058,-3.3979,-3.3849,-3.3273,-3.2908,-3.2607,-3.2319,-3.181,-3.1313,-3.1052,-3.0986,-3.0986,-3.0986,-3.0986,-3.0986,-3.0986,-3.0986,-3.0986,-3.0986,-3.0986,-3.0986,-3.0986,-3.0986,-3.0986,-3.0986,-3.0986,-3.0986,-3.0986,-3.0986,-3.1099,-3.131,-3.131,-3.131,-3.131,-3.1482,-3.1666,-3.185,-3.2237,-3.2596,-3.3016,-3.3206,-3.329,-3.329,-3.329,-3.329,-3.329,-3.329,-3.329,-3.329,-3.329,-3.329,-3.329,-3.329,-3.329,-3.329,-3.329,-3.329,-3.329,-3.329,-3.329,-3.329,-2.7309,-2.7309,-2.7309,-2.7309,-2.7309,-2.7309,-2.7309,-2.7309,-2.7309,-2.7309,-2.7309,-2.7309,-2.7309,-2.7309,-2.7309,-2.7309,-2.7309,-2.7309,-2.7309,-2.7309,-2.7309,-2.7309,-2.7309,-2.7309,-2.7309,-2.7309,-2.7309,-2.7309,-2.7309,-2.7536,-2.7998,-2.7998,-2.8269,-2.8678,-2.8678,-2.9037,-2.9624,-3.0136,-3.0317,-3.0407,-3.1512,-3.1625,-3.116,-3.1745,-3.2008,-3.214,-3.214,-3.2587,-3.33,-3.3839,-3.405,-3.405,-3.405,-3.4147,-3.423,-3.423,-3.4314,-3.4293,-3.3849,-3.3666,-3.347,-3.2973,-3.2411,-3.1797,-3.1261,-3.1052,-3.0986,-3.0986,-3.0986,-3.0986,-3.0986,-3.0986,-3.0986,-3.0986,-3.0986,-3.0986,-3.0986,-3.0986,-3.0986,-3.0986,-3.0986,-3.0986,-3.0986,-3.0986,-3.0986,-3.0986,-3.0986,-3.0986,-3.0986,-3.0986,-3.1161,-3.1593,-3.1909,-3.2273,-3.2596,-3.3016,-3.3206,-3.3206,-3.3206,-3.3241,-3.329,-3.329,-3.329,-3.329,-3.329,-3.329,-3.329,-3.329,-3.329,-3.329,-3.329,-3.329,-3.329,-3.329,-3.329,-3.329,-2.7309,-2.7309,-2.7309,-2.7309,-2.7309,-2.7309,-2.7309,-2.7309,-2.7309,-2.7309,-2.7309,-2.7309,-2.7309,-2.7309,-2.7309,-2.7309,-2.7309,-2.7309,-2.7309,-2.7309,-2.7309,-2.7309,-2.7309,-2.7309,-2.7309,-2.7309,-2.7309,-2.7309,-2.7309,-2.7536,-2.7998,-2.7998,-2.8269,-2.8678,-2.8678,-2.8771,-2.8863,-2.9428,-2.9623,-2.9658,-3.025,-3.0442,-3.0352,-3.0431,-3.088,-3.1427,-3.1427,-3.1857,-3.2444,-3.2575,-3.2562,-3.2562,-3.2562,-3.3018,-3.3526,-3.3526,-3.3937,-3.4384,-3.4306,-3.3953,-3.3574,-3.3496,-3.3025,-3.2424,-3.181,-3.1339,-3.0986,-3.0986,-3.0986,-3.0986,-3.0986,-3.0986,-3.0986,-3.0986,-3.0986,-3.0986,-3.0986,-3.0986,-3.0986,-3.0986,-3.0986,-3.0986,-3.0986,-3.0986,-3.0986,-3.0986,-3.0986,-3.0986,-3.0986,-3.0986,-3.1161,-3.1593,-3.1909,-3.2128,-3.2164,-3.2561,-3.2775,-3.2775,-3.2775,-3.2966,-3.329,-3.329,-3.329,-3.329,-3.329,-3.329,-3.329,-3.329,-3.329,-3.329,-3.329,-3.329,-3.329,-3.329,-3.329,-3.329,-2.7309,-2.7309,-2.7309,-2.7309,-2.7309,-2.7309,-2.7309,-2.7309,-2.7309,-2.7309,-2.7309,-2.7309,-2.7309,-2.7309,-2.7309,-2.7309,-2.7309,-2.7309,-2.7309,-2.7309,-2.7309,-2.7309,-2.7309,-2.7309,-2.7309,-2.7309,-2.7309,-2.7309,-2.7309,-2.7394,-2.7631,-2.7631,-2.7715,-2.7904,-2.7904,-2.7904,-2.7998,-2.8735,-2.9059,-2.9106,-2.9886,-3.0216,-3.0216,-3.0216,-3.0397,-3.0758,-3.1172,-3.1472,-3.1801,-3.2183,-3.2302,-3.2302,-3.2302,-3.2531,-3.2803,-3.2803,-3.3288,-3.3852,-3.3852,-3.3936,-3.4045,-3.4045,-3.3613,-3.313,-3.2881,-3.211,-3.1365,-3.1052,-3.0986,-3.0986,-3.0986,-3.0986,-3.0986,-3.0986,-3.0986,-3.0986,-3.0986,-3.0986,-3.0986,-3.0986,-3.0986,-3.0986,-3.0986,-3.0986,-3.0986,-3.0986,-3.0986,-3.0986,-3.0986,-3.0986,-3.1099,-3.1272,-3.1629,-3.1813,-3.1813,-3.2164,-3.2345,-3.2345,-3.2345,-3.2682,-3.329,-3.329,-3.329,-3.329,-3.329,-3.329,-3.329,-3.329,-3.329,-3.329,-3.329,-3.329,-3.329,-3.329,-3.329,-3.329]}]]